[[[{"header":{"parameterUnit":"kt","parameterCategory":2,"dx":1,"dy":1,"la1":29.285339999999998,"la2":30.599998999999997,"lo1":-89.70041500000002,"lo2":-87.6738589999976,"nx":112,"ny":82,"refTime":"2022-09-22T06:00:00:Z","depth":0,"parameterNumber":1,"parameterNumberName":"U-component_of_WINDS"},"data":[11.5565,11.4368,11.3016,11.3016,11.1041,10.8922,10.854,10.5788,10.3133,10.2654,10.0522,9.8808,9.9146,9.7052,9.5556,9.6474,9.5436,9.4459,0.0,9.4459,9.4818,9.5735,9.7477,9.9546,10.1987,10.312,10.485,10.7606,10.9456,11.2098,11.5921,11.738,11.9998,12.4244,12.5669,12.6978,12.8286,12.9595,13.0265,13.0265,13.0265,13.0265,13.0265,13.0265,13.0265,13.0265,13.0265,13.0265,13.0265,13.0265,13.0265,13.0265,13.0265,13.0265,13.0265,13.0265,13.0265,13.0265,13.0265,13.0265,13.0265,13.0265,13.0265,13.0265,13.0265,13.0265,13.0149,12.9654,12.9916,13.0149,12.9654,12.9886,13.0265,13.0265,13.0265,13.0265,13.0265,13.0265,13.0265,13.0265,13.0265,13.0265,13.0265,13.0265,13.0265,13.0265,13.0265,13.0265,13.0265,13.0265,13.0265,13.0265,13.0265,13.0265,13.0265,13.0265,13.0265,13.0265,13.0265,13.0265,13.0265,13.0265,13.044,13.0905,13.0498,13.0498,13.0905,13.0498,13.0265,13.0265,13.0265,13.0265,11.2178,11.1316,11.0239,10.976,10.7643,10.5429,10.4569,10.1996,9.9744,9.9266,9.7791,9.6713,9.7112,9.5715,9.4219,9.3362,9.394,9.3861,0.0,9.3382,9.5177,9.7072,9.9685,10.2239,10.4674,10.6778,10.8698,11.0335,11.2687,11.5027,11.7376,11.9125,12.1599,12.4972,12.6309,12.7647,12.8956,12.977,13.0265,13.0265,13.0265,13.0265,13.0265,13.0265,13.0265,13.0265,13.0265,13.0265,13.0265,13.0265,13.0265,13.0265,13.0265,13.0265,13.0265,13.0265,13.0265,13.0265,13.0265,13.0265,13.0265,13.0265,13.0265,13.0265,13.0265,13.0265,13.0265,13.0265,13.0265,13.0265,13.0265,13.0265,13.0265,13.0265,13.0265,13.0265,13.0265,13.0265,13.0265,13.0265,13.0265,13.0265,13.0265,13.0265,13.0265,13.0265,13.0265,13.0265,13.0265,13.0265,13.0265,13.0265,13.0265,13.0265,13.0265,13.0265,13.0265,13.0265,13.0265,13.0265,13.0265,13.0265,13.0265,13.0265,13.0265,13.0265,13.0265,13.0265,13.0265,13.0265,13.0265,13.0265,10.8503,10.7141,10.5862,10.4606,10.2355,10.0441,10.0462,9.9445,9.8129,9.6833,9.6594,9.6115,9.4758,9.4578,9.2903,8.7875,9.1308,0.0,0.0,9.1368,9.5595,9.8428,10.2176,10.536,10.7548,11.1687,11.3634,11.2083,11.6014,11.856,11.8862,12.1305,12.3837,12.6338,12.7647,12.8897,13.0207,13.0265,13.0265,13.0265,13.0265,13.0265,13.0265,13.0265,13.0265,13.0265,13.0265,13.0265,13.0265,13.0265,13.0265,13.0265,13.0265,13.0265,13.0265,13.0265,13.0265,13.0265,13.0265,13.0265,13.0265,13.0265,13.0265,13.0265,13.0265,13.0265,13.0265,13.0265,13.0265,13.0265,13.0265,13.0265,13.0265,13.0265,13.0265,13.0265,13.0265,13.0265,13.0265,13.0265,13.0265,13.0265,13.0265,13.0265,13.0265,13.0265,13.0265,13.0265,13.0265,13.0265,13.0265,13.0265,13.0265,13.0265,13.0265,13.0265,13.0265,13.0265,13.0265,13.0265,13.0265,13.0265,13.0265,13.0265,13.0265,13.0265,13.0265,13.0265,13.0265,13.0265,13.0265,13.0265,10.5287,10.3791,10.1996,10.1637,10.1039,10.0223,9.9326,9.809,9.7013,9.6654,9.5795,0.0,0.0,0.0,9.5876,9.5397,0.0,9.6932,9.5516,9.5676,9.8069,10.353,10.5945,10.8646,11.2198,11.3341,11.4684,11.6689,11.8283,11.989,12.1508,12.3109,12.5117,12.7647,12.8112,12.8897,13.0207,13.0265,13.0265,13.0265,13.0265,13.0265,13.0265,13.0265,13.0265,13.0265,13.0265,13.0265,13.0265,13.0265,13.0265,13.0265,13.0265,13.0265,13.0265,13.0265,13.0265,13.0265,13.0265,13.0265,13.0265,13.0265,13.0265,13.0265,13.0265,13.0265,13.0265,13.0265,13.0265,13.0265,13.0265,13.0265,13.0265,13.0265,13.0265,13.0265,13.0265,13.0265,13.0265,13.0265,13.0265,13.0265,13.0265,13.0265,13.0265,13.0265,13.0265,13.0265,13.0265,13.0265,13.0265,13.0265,13.0265,13.0265,13.0265,13.0265,13.0265,13.0265,13.0265,13.0265,13.0265,13.0265,13.0265,13.0265,13.0265,13.0265,13.0265,13.0265,13.0265,13.0265,13.0265,13.0265,10.1877,10.08,9.9565,9.8967,9.8847,9.8488,9.7171,9.6274,9.5855,9.6495,0.0,0.0,0.0,0.0,0.0,0.0,9.7192,9.8368,9.5616,9.7889,10.1719,10.6543,10.807,11.0376,11.4427,11.6312,11.7916,11.9471,12.1075,12.2384,12.3312,12.5058,12.6745,12.8228,12.8839,12.9479,13.0265,13.0265,13.0265,13.0265,13.0265,13.0265,13.0265,13.0265,13.0265,13.0265,13.0265,13.0265,13.0265,13.0265,13.0265,13.0265,13.0265,13.0265,13.0265,13.0265,13.0265,13.0265,13.0265,13.0265,13.0265,13.0265,13.0265,13.0265,13.0265,13.0265,13.0265,13.0265,13.0265,13.0265,13.0265,13.0265,13.0265,13.0265,13.0265,13.0265,13.0265,13.0265,13.0265,13.0265,13.0265,13.0265,13.0265,13.0265,13.0265,13.0265,13.0265,13.0265,13.0265,13.0265,13.0265,13.0265,13.0265,13.0265,13.0265,13.0265,13.0265,13.0265,13.0265,13.0265,13.0265,13.0265,13.0265,13.0265,13.0265,13.0265,13.0265,13.0265,13.0265,13.0265,13.0265,13.0265,9.8667,9.821,9.785,9.6654,9.6354,9.6115,9.4937,0.0,9.5117,9.6713,0.0,9.7252,9.8748,0.0,0.0,9.1567,9.6693,9.9326,9.3402,10.0321,10.6842,10.9138,11.0304,11.218,11.5558,11.9764,12.1988,12.1186,12.3675,12.5161,12.4854,12.7036,12.8345,12.8519,12.9654,13.0265,13.0265,13.0265,13.0265,13.0265,13.0265,13.0265,13.0265,13.0265,13.0265,13.0265,13.0265,13.0265,13.0265,13.0265,13.0265,13.0265,13.0265,13.0265,13.0265,13.0265,13.0265,13.0265,13.0265,13.0265,13.0265,13.0265,13.0265,13.0265,13.0265,13.0265,13.0265,13.0265,13.0265,13.0265,13.0265,13.0265,13.0265,13.0265,13.0265,13.0265,13.0265,13.0265,13.0265,13.0265,13.0265,13.0265,13.0265,13.0265,13.0265,13.0265,13.0265,13.0265,13.0265,13.0265,13.0265,13.0265,13.0265,13.0265,13.0265,13.0265,13.0265,13.0265,13.0265,13.0265,13.0265,13.0265,13.0265,13.0265,13.0265,13.0265,13.0265,13.0265,13.0265,13.0265,13.0265,13.0265,9.7072,9.6154,9.5177,9.4937,9.4878,9.5117,0.0,0.0,0.0,9.9266,9.8907,9.8928,10.1219,10.1697,10.1937,10.2812,10.5047,10.6349,10.501,11.0993,11.572,11.6199,11.8252,11.9608,11.9469,12.1147,12.2666,12.3631,12.4241,12.5464,12.7443,12.7996,12.8781,12.9828,13.0119,13.0265,13.0265,13.0265,13.0265,13.0265,13.0265,13.0265,13.0265,13.0265,13.0265,13.0265,13.0265,13.0265,13.0265,13.0265,13.0265,13.0265,13.0265,13.0265,13.0265,13.0265,13.0265,13.0265,13.0265,13.0265,13.0265,13.0265,13.0265,13.0265,13.0265,13.0265,13.0265,13.0265,13.0265,13.0265,13.0265,13.0265,13.0265,13.0265,13.0265,13.0265,13.0265,13.0265,13.0265,13.0265,13.0265,13.0265,13.0265,13.0265,13.0265,13.0265,13.0265,13.0265,13.0265,13.0265,13.0265,13.0265,13.0265,13.0265,13.0265,13.0265,13.0265,13.0265,13.0265,13.0265,13.0265,13.0265,13.0265,13.0265,13.0265,13.0265,13.0265,13.0265,13.0265,13.0265,13.0265,13.0265,9.5735,9.4997,9.4459,9.4459,9.4997,0.0,0.0,9.7611,9.8667,10.2595,10.2415,10.2497,10.581,10.6409,10.6648,10.7201,10.8959,11.1256,11.3865,11.7096,11.9191,11.9191,12.0668,12.1602,12.1436,12.2324,12.3302,12.4301,12.564,12.6891,12.8228,12.8897,12.9537,13.0207,13.0265,13.0265,13.0265,13.0265,13.0265,13.0265,13.0265,13.0265,13.0265,13.0265,13.0265,13.0265,13.0265,13.0265,13.0265,13.0265,13.0265,13.0265,13.0265,13.0265,13.0265,13.0265,13.0265,13.0265,13.0265,13.0265,13.0265,13.0265,13.0265,13.0265,13.0265,13.0265,13.0265,13.0265,13.0265,13.0265,13.0265,13.0265,13.0265,13.0265,13.0265,13.0265,13.0265,13.0265,13.0265,13.0265,13.0265,13.0265,13.0265,13.0265,13.0265,13.0265,13.0265,13.0265,13.0265,13.0265,13.0265,13.0265,13.0265,13.0265,13.0265,13.0265,13.0265,13.0265,13.0265,13.0265,13.0265,13.0265,13.0265,13.0265,13.0265,13.0265,13.0265,13.0265,13.0265,13.0265,13.0265,13.0265,9.4758,9.4459,9.4459,9.4459,9.5556,0.0,9.8269,9.9146,10.1001,10.5743,10.6101,10.6625,11.0143,11.0825,11.0585,10.994,11.1855,11.5146,11.9823,12.0721,12.09,12.09,12.1672,12.248,12.3166,12.3685,12.4276,12.4937,12.7036,12.8403,12.8665,12.9654,13.0265,13.0265,13.0265,13.0265,13.0265,13.0265,13.0265,13.0265,13.0265,13.0265,13.0265,13.0265,13.0265,13.0265,13.0265,13.0265,13.0265,13.0265,13.0265,13.0265,13.0265,13.0265,13.0265,13.0265,13.0265,13.0265,13.0265,13.0265,13.0265,13.0265,13.0265,13.0265,13.0265,13.0265,13.0265,13.0265,13.0265,13.0265,13.0265,13.0265,13.0265,13.0265,13.0265,13.0265,13.0265,13.0265,13.0265,13.0265,13.0265,13.0265,13.0265,13.0265,13.0265,13.0265,13.0265,13.0265,13.0265,13.0265,13.0265,13.0265,13.0265,13.0265,13.0265,13.0265,13.0265,13.0265,13.0265,13.0265,13.0265,13.0265,13.0265,13.0265,13.0265,13.0265,13.0265,13.0265,13.0265,13.0265,13.0265,13.0265,9.4498,9.4459,9.4459,9.4459,9.5556,0.0,9.8269,10.1219,10.4569,10.7463,10.8945,11.0226,11.1843,11.2118,11.2836,11.5027,11.6583,11.8532,12.1438,12.2848,12.3566,12.3566,12.4795,12.5868,12.6547,12.6149,12.6183,12.6967,12.7793,12.8781,12.9944,13.0149,13.0265,13.0265,13.0265,13.0265,13.0265,13.0265,13.0265,13.0265,13.0265,13.0265,13.0265,13.0265,13.0265,13.0265,13.0265,13.0265,13.0265,13.0265,13.0265,13.0265,13.0265,13.0265,13.0265,13.0265,13.0265,13.0265,13.0265,13.0265,13.0265,13.0265,13.0265,13.0265,13.0265,13.0265,13.0265,13.0265,13.0265,13.0265,13.0265,13.0265,13.0265,13.0265,13.0265,13.0265,13.0265,13.0265,13.0265,13.0265,13.0265,13.0265,13.0265,13.0265,13.0265,13.0265,13.0265,13.0265,13.0265,13.0265,13.0265,13.0265,13.0265,13.0265,13.0265,13.0265,13.0265,13.0265,13.0265,13.0265,13.0265,13.0265,13.0265,13.0265,13.0265,13.0265,13.0265,13.0265,13.0265,13.0265,13.0265,13.0265,9.4459,9.4459,9.4698,9.5496,0.0,0.0,10.13,10.3769,10.6699,11.0897,11.2238,11.3555,11.6343,11.6882,11.7455,11.9345,12.0721,12.2216,12.419,12.5566,12.6404,12.6404,12.76,12.8338,12.8262,12.8015,12.7987,12.8458,12.8725,12.928,13.0149,13.0265,13.0265,13.0265,13.0265,13.0265,13.0265,13.0265,13.0265,13.0265,13.0265,13.0265,13.0265,13.0265,13.0265,13.0265,13.0265,13.0265,13.0265,13.0265,13.0265,13.0265,13.0265,13.0265,13.0265,13.0265,13.0265,13.0265,13.0265,13.0265,13.0265,13.0265,13.0265,13.0265,13.0265,13.0265,13.0265,13.0265,13.0265,13.0265,13.0265,13.0265,13.0265,13.0265,13.0265,13.0265,13.0265,13.0265,13.0265,13.0265,13.0265,13.0265,13.0265,13.0265,13.0265,13.0265,13.0265,13.0265,13.0265,13.0265,13.0265,13.0265,13.0265,13.0265,13.0265,13.0265,13.0265,13.0265,13.0265,13.0265,13.0265,13.0265,13.0265,13.0265,13.0265,13.0265,13.0265,13.0265,13.0265,13.0265,13.0265,13.0265,9.4399,0.0,0.0,0.0,0.0,0.0,10.4128,10.6543,10.9295,11.389,11.5386,11.6882,12.0063,12.0661,12.1199,12.2934,12.431,12.5506,12.655,12.7807,12.8644,12.8644,12.9455,13.0006,12.9885,12.9717,12.9772,13.0271,12.9982,13.0012,13.0504,13.0354,13.0265,13.0265,13.0265,13.0265,13.0265,13.0265,13.0265,13.0265,13.0265,13.0265,13.0265,13.0265,13.0265,13.0265,13.0265,13.0265,13.0265,13.0265,13.0265,13.0265,13.0265,13.0265,13.0265,13.0265,13.0265,13.0265,13.0265,13.0265,13.0265,13.0265,13.0265,13.0265,13.0265,13.0265,13.0265,13.0265,13.0265,13.0265,13.0265,13.0265,13.0265,13.0265,13.0265,13.0265,13.0265,13.0265,13.0265,13.0265,13.0265,13.0265,13.0265,13.0265,13.0265,13.0265,13.0265,13.0265,13.0265,13.0265,13.0265,13.0265,13.0265,13.0265,13.0265,13.0265,13.0265,13.0265,13.0265,13.0265,13.0265,13.0265,13.0265,13.0265,13.0265,13.0265,13.0265,13.0265,13.0265,13.0265,13.0265,13.0265,0.0,0.0,0.0,9.815,10.0403,10.3013,10.5683,10.9318,11.2956,11.5625,11.8173,12.0362,12.1738,12.2037,12.2874,12.5593,12.7149,12.7986,12.8046,12.9155,12.9993,12.9993,13.0053,13.0504,13.1731,13.1312,13.1506,13.2756,13.1771,13.1155,13.1184,13.0592,13.0265,13.0265,13.0265,13.0265,13.0265,13.0265,13.0265,13.0265,13.0265,13.0265,13.0265,13.0265,13.0265,13.0265,13.0265,13.0265,13.0265,13.0265,13.0265,13.0265,13.0265,13.0265,13.0265,13.0265,13.0265,13.0265,13.0265,13.0265,13.0265,13.0265,13.0265,13.0265,13.0265,13.0265,13.0265,13.0265,13.0265,13.0265,13.0265,13.0265,13.0265,13.0265,13.0265,13.0265,13.0265,13.0265,13.0265,13.0265,13.0265,13.0265,13.0265,13.0265,13.0265,13.0265,13.0265,13.0265,13.0265,13.0265,13.0265,13.0265,13.0265,13.0265,13.0265,13.0265,13.0265,13.0265,13.0265,13.0265,13.0265,13.0265,13.0265,13.0265,13.0265,13.0265,13.0265,13.0265,13.0265,13.0265,13.0265,13.0265,9.41,9.6154,9.821,9.9505,10.2475,10.5743,10.8443,11.2094,11.5446,11.7181,11.9609,12.1857,12.3087,12.4848,12.6344,12.7328,12.8585,12.9395,12.9395,13.0531,13.1341,13.1341,13.2115,13.2773,13.3252,13.3081,13.2975,13.2961,13.2616,13.2034,13.1272,13.1007,13.0711,13.0265,13.0265,13.0265,13.0265,13.0265,13.0265,13.0265,13.0265,13.0265,13.0265,13.0265,13.0265,13.0265,13.0265,13.0265,13.0265,13.0265,13.0265,13.0265,13.0265,13.0265,13.0265,13.0265,13.0265,13.0265,13.0265,13.0265,13.0265,13.0265,13.0265,13.0265,13.0265,13.0265,13.0265,13.0265,13.0265,13.0265,13.0265,13.0265,13.0265,13.0265,13.0265,13.0265,13.0265,13.0265,13.0265,13.0265,13.0265,13.0265,13.0265,13.0265,13.0265,13.0265,13.0265,13.0265,13.0265,13.0265,13.0265,13.0265,13.0265,13.0265,13.0265,13.0265,13.0265,13.0265,13.0265,13.0265,13.0265,13.0265,13.0265,13.0265,13.0265,13.0265,13.0265,13.0265,13.0265,13.0265,13.0265,13.0265,9.4578,9.7171,9.9685,10.1458,10.489,10.848,11.116,11.4512,11.748,11.9191,12.1259,12.3173,12.4549,12.6583,12.8285,12.8737,12.9873,13.0771,13.0771,13.1847,13.2685,13.2685,13.3431,13.3938,13.3938,13.3938,13.3767,13.3366,13.3076,13.2558,13.1625,13.1361,13.0948,13.0265,13.0265,13.0265,13.0265,13.0265,13.0265,13.0265,13.0265,13.0265,13.0265,13.0265,13.0265,13.0265,13.0265,13.0265,13.0265,13.0265,13.0265,13.0265,13.0265,13.0265,13.0265,13.0265,13.0265,13.0295,13.0533,13.0444,13.0295,13.0533,13.0592,13.0562,13.0325,13.0414,13.0533,13.0325,13.0265,13.0265,13.0265,13.0265,13.0265,13.0265,13.0265,13.0265,13.0265,13.0265,13.0265,13.0265,13.0265,13.0265,13.0265,13.0265,13.0265,13.0265,13.0265,13.0265,13.0265,13.0265,13.0265,13.0265,13.0265,13.0265,13.0265,13.0265,13.0265,13.0265,13.0265,13.0265,13.0265,13.0265,13.0265,13.0265,13.0265,13.0265,13.0265,13.0265,13.0265,13.0265,13.0265,13.0265,9.5576,9.8667,10.1338,10.397,10.7606,11.1304,11.3794,11.6463,11.9071,12.1558,12.3147,12.4523,12.6012,12.7328,12.8617,12.9933,13.1221,13.2059,13.2059,13.3132,13.3938,13.3938,13.3938,13.3938,13.3938,13.3938,13.3938,13.3938,13.3395,13.279,13.2268,13.1625,13.0977,13.0325,13.0265,13.0265,13.0265,13.0265,13.0265,13.0265,13.0265,13.0265,13.0265,13.0265,13.0265,13.0265,13.0265,13.0265,13.0265,13.0265,13.0265,13.0265,13.0295,13.0295,13.0265,13.0295,13.0295,13.0384,13.1007,13.0829,13.0473,13.1066,13.1272,13.1154,13.0503,13.074,13.1095,13.0473,13.0295,13.0265,13.0295,13.0295,13.0265,13.0265,13.0265,13.0265,13.0265,13.0265,13.0265,13.0265,13.0265,13.0265,13.0265,13.0265,13.0265,13.0265,13.0265,13.0265,13.0265,13.0265,13.0265,13.0265,13.0265,13.0265,13.0265,13.0265,13.0265,13.0265,13.0265,13.0265,13.0265,13.0265,13.0265,13.0265,13.0265,13.0265,13.0265,13.0265,13.0265,13.0265,13.0265,13.0265,9.6713,10.0702,10.403,10.6625,11.0299,11.3734,11.5386,11.8532,12.1259,12.1917,12.3951,12.6012,12.7388,12.8677,12.9993,13.1309,13.2594,13.346,13.346,13.3699,13.3938,13.3938,13.3938,13.3938,13.3938,13.3938,13.3938,13.3938,13.3796,13.3423,13.2819,13.2209,13.1655,13.1007,13.0503,13.0265,13.0265,13.0265,13.0265,13.0265,13.0265,13.0265,13.0265,13.0265,13.0265,13.0265,13.0265,13.0265,13.0265,13.0265,13.0265,13.0295,13.08,13.0681,13.0325,13.08,13.0977,13.1007,13.1154,13.1449,13.1713,13.1889,13.1947,13.183,13.1184,13.1095,13.1184,13.1036,13.0622,13.0354,13.0859,13.0622,13.0265,13.0265,13.0265,13.0265,13.0265,13.0265,13.0265,13.0265,13.0265,13.0265,13.0265,13.0265,13.0265,13.0265,13.0265,13.0265,13.0265,13.0265,13.0265,13.0265,13.0265,13.0265,13.0265,13.0265,13.0265,13.0265,13.0265,13.0265,13.0265,13.0265,13.0265,13.0265,13.0265,13.0265,13.0265,13.0265,13.0265,13.0265,13.0265,13.0265,9.5616,10.0501,10.5167,10.8384,11.1759,11.4787,11.6678,11.9669,12.219,12.2814,12.4669,12.673,12.8617,12.9574,13.0651,13.2505,13.3431,13.3938,13.3938,13.3938,13.3938,13.3938,13.3938,13.3938,13.3938,13.3938,13.3938,13.3938,13.3938,13.3653,13.2961,13.2442,13.2006,13.1655,13.074,13.0533,13.1095,13.0533,13.0384,13.0681,13.0384,13.0265,13.0265,13.0265,13.0265,13.0265,13.0265,13.0414,13.0652,13.0354,13.0414,13.0711,13.1095,13.0829,13.0354,13.1302,13.1478,13.1302,13.1771,13.2034,13.2239,13.2442,13.25,13.2355,13.1508,13.142,13.1537,13.0948,13.0533,13.0325,13.0711,13.0533,13.0265,13.0265,13.0265,13.0265,13.0265,13.0265,13.0265,13.0265,13.0265,13.0265,13.0265,13.0265,13.0265,13.0265,13.0265,13.0265,13.0265,13.0265,13.0265,13.0265,13.0265,13.0265,13.0265,13.0265,13.0265,13.0265,13.0265,13.0265,13.0265,13.0265,13.0265,13.0265,13.0265,13.0265,13.0265,13.0265,13.0265,13.0265,13.0265,13.0265,9.4279,9.9582,10.5406,10.9843,11.2597,11.5027,11.7814,12.0302,12.2455,12.3745,12.5147,12.6909,12.9335,12.9933,13.083,13.3252,13.3819,13.3938,13.3938,13.3938,13.3938,13.3938,13.3938,13.3938,13.3938,13.3938,13.3938,13.3938,13.3938,13.371,13.3105,13.2558,13.2298,13.2298,13.1066,13.0977,13.2181,13.0918,13.0592,13.1213,13.0562,13.0265,13.0265,13.0265,13.0295,13.0384,13.0384,13.0711,13.1184,13.0622,13.0652,13.1125,13.1184,13.0829,13.0414,13.1596,13.1713,13.1302,13.2384,13.2529,13.2385,13.2732,13.2875,13.2761,13.1537,13.1684,13.1918,13.0711,13.0384,13.0384,13.0384,13.0325,13.0265,13.0265,13.0265,13.0265,13.0265,13.0265,13.0265,13.0265,13.0265,13.0265,13.0265,13.0265,13.0265,13.0265,13.0265,13.0265,13.0265,13.0265,13.0265,13.0265,13.0265,13.0265,13.0265,13.0265,13.0265,13.0265,13.0265,13.0265,13.0265,13.0265,13.0265,13.0265,13.0265,13.0265,13.0265,13.0265,13.0265,13.0265,13.0265,13.0265,9.7112,10.1039,10.5885,11.2094,11.3974,11.5266,11.8951,12.096,12.2455,12.3745,12.5147,12.661,12.8166,12.9335,13.0531,13.2087,13.3252,13.3938,13.3938,13.3938,13.3938,13.3938,13.3938,13.3938,13.3938,13.3938,13.3938,13.3938,13.3938,13.3881,13.3796,13.3194,13.2847,13.2847,13.1654,13.142,13.2181,13.0918,13.0592,13.1213,13.0562,13.0265,13.0265,13.0265,13.0533,13.1066,13.1066,13.1125,13.1213,13.1125,13.08,13.0473,13.1007,13.0829,13.0354,13.1125,13.1331,13.1243,13.1478,13.2093,13.279,13.2413,13.2616,13.2761,13.1537,13.1684,13.2035,13.1272,13.1066,13.1066,13.1066,13.0652,13.0265,13.0265,13.0265,13.0265,13.0265,13.0265,13.0265,13.0265,13.0265,13.0265,13.0265,13.0265,13.0265,13.0265,13.0265,13.0265,13.0265,13.0265,13.0265,13.0265,13.0265,13.0265,13.0265,13.0265,13.0265,13.0265,13.0265,13.0265,13.0265,13.0265,13.0265,13.0265,13.0265,13.0265,13.0265,13.0265,13.0265,13.0265,13.0265,13.0265,9.8428,10.1937,10.5324,10.9175,11.225,11.5326,11.925,12.1139,12.2276,12.2848,12.4669,12.6371,12.6969,12.8677,13.0472,13.176,13.3072,13.3938,13.3938,13.3938,13.3938,13.3938,13.3938,13.3938,13.3938,13.3938,13.3938,13.3938,13.3938,13.3938,13.3938,13.3278,13.3105,13.3481,13.2297,13.2181,13.305,13.183,13.142,13.1713,13.1066,13.0592,13.0265,13.0265,13.0622,13.1213,13.1213,13.142,13.1684,13.1007,13.074,13.08,13.1095,13.0829,13.0354,13.1361,13.1508,13.1272,13.1596,13.2238,13.2904,13.2674,13.2761,13.2846,13.2297,13.1888,13.1625,13.1302,13.0977,13.0711,13.0711,13.0473,13.0265,13.0265,13.0265,13.0265,13.0265,13.0265,13.0265,13.0265,13.0265,13.0265,13.0265,13.0265,13.0265,13.0265,13.0265,13.0265,13.0265,13.0265,13.0265,13.0265,13.0265,13.0265,13.0265,13.0265,13.0265,13.0265,13.0265,13.0265,13.0265,13.0592,13.0592,13.0265,13.0265,13.0265,13.0265,13.0265,13.0265,13.0265,13.0265,13.0265,9.8428,10.1996,10.4606,10.5683,10.9916,11.4907,11.8832,12.0481,12.1319,12.1618,12.3771,12.5772,12.6072,12.8046,13.0053,13.1369,13.2653,13.3639,13.3879,13.3938,13.3938,13.3938,13.3938,13.3938,13.3938,13.3938,13.3938,13.3938,13.3938,13.3938,13.3938,13.3481,13.3423,13.391,13.2876,13.2847,13.391,13.2791,13.2181,13.2181,13.1537,13.0889,13.0265,13.0384,13.074,13.1243,13.1508,13.1859,13.2298,13.1243,13.0948,13.1213,13.1213,13.0829,13.0384,13.139,13.1449,13.1095,13.1596,13.2122,13.2528,13.2383,13.2587,13.2761,13.2441,13.1918,13.1361,13.1095,13.074,13.0444,13.0295,13.0265,13.0265,13.0265,13.0265,13.0265,13.0265,13.0265,13.0265,13.0265,13.0265,13.0265,13.0265,13.0265,13.0265,13.0265,13.0265,13.0265,13.0265,13.0265,13.0265,13.0265,13.0265,13.0265,13.0265,13.0265,13.0325,13.0444,13.0473,13.0473,13.0473,13.1095,13.1125,13.0473,13.0473,13.0473,13.0473,13.0325,13.0325,13.0473,13.0325,13.0265,9.6474,10.0582,10.4427,10.4546,10.86,11.3555,11.7455,11.8473,11.8891,12.0088,12.2396,12.4609,12.5892,12.7328,12.8677,12.9993,13.1309,13.2565,13.3759,13.3938,13.3938,13.3938,13.3938,13.3938,13.3938,13.3938,13.3938,13.3938,13.3938,13.3938,13.3938,13.3881,13.3881,13.3938,13.328,13.3251,13.3938,13.2791,13.2181,13.2181,13.1537,13.0889,13.0265,13.0859,13.1184,13.1272,13.2355,13.2876,13.2846,13.273,13.2122,13.1213,13.1213,13.0829,13.0265,13.0384,13.0384,13.0354,13.0414,13.0859,13.1302,13.0711,13.1302,13.2035,13.083,13.1243,13.186,13.0681,13.0711,13.1007,13.0414,13.0265,13.0265,13.0265,13.0265,13.0265,13.0265,13.0265,13.0265,13.0265,13.0265,13.0265,13.0265,13.0265,13.0265,13.0265,13.0265,13.0265,13.0265,13.0265,13.0265,13.0265,13.0265,13.0265,13.0265,13.0265,13.0503,13.1095,13.1125,13.1125,13.1125,13.1772,13.1801,13.1154,13.1125,13.1125,13.1125,13.0533,13.0562,13.1125,13.0533,13.0265,9.6932,10.0462,10.341,10.4188,10.7822,11.1759,11.4153,11.5266,11.6643,11.955,12.2874,12.5207,12.4908,12.5985,12.7388,12.8677,12.9993,13.1249,13.2565,13.346,13.3938,13.3938,13.3938,13.3938,13.3938,13.3938,13.3938,13.3938,13.3938,13.3938,13.3938,13.3938,13.3938,13.3938,13.3681,13.3681,13.3938,13.3452,13.3021,13.2645,13.2093,13.1684,13.142,13.1272,13.1566,13.2297,13.279,13.2932,13.2904,13.2616,13.1976,13.1213,13.1213,13.0829,13.0265,13.0265,13.0265,13.0265,13.0265,13.0681,13.1184,13.0918,13.1449,13.2093,13.1567,13.1508,13.1508,13.0977,13.074,13.0592,13.0325,13.0265,13.0265,13.0265,13.0265,13.0265,13.0265,13.0265,13.0265,13.0265,13.0265,13.0265,13.0265,13.0265,13.0265,13.0265,13.0265,13.0265,13.0265,13.0592,13.0829,13.0829,13.0829,13.0829,13.0829,13.0829,13.0948,13.1213,13.1596,13.1888,13.2268,13.2529,13.2355,13.183,13.1801,13.1801,13.1801,13.1537,13.1567,13.1772,13.1154,13.0829,9.5975,9.9266,10.2056,10.3013,10.6206,10.9664,11.14,11.2776,11.4608,11.7755,12.1883,12.4636,12.3652,12.4609,12.5952,12.7328,12.8644,13.0053,13.1788,13.3132,13.3938,13.3938,13.3938,13.3938,13.3938,13.3938,13.3938,13.3938,13.3938,13.3938,13.3938,13.3938,13.3938,13.3938,13.3938,13.3938,13.3938,13.3938,13.3624,13.2932,13.2413,13.2268,13.2384,13.1918,13.218,13.2961,13.3134,13.322,13.3192,13.2819,13.2239,13.1508,13.1508,13.1007,13.0265,13.0265,13.0265,13.0265,13.0265,13.0562,13.0977,13.1154,13.1655,13.2152,13.1947,13.1713,13.1449,13.1036,13.0622,13.0265,13.0265,13.0384,13.0503,13.0295,13.0265,13.0265,13.0265,13.0265,13.0265,13.0265,13.0265,13.0265,13.0265,13.0265,13.0265,13.0265,13.0265,13.0325,13.0533,13.0948,13.1302,13.1508,13.1331,13.1302,13.1508,13.1331,13.139,13.1684,13.2151,13.2645,13.3251,13.322,13.2992,13.2384,13.2384,13.2384,13.2384,13.2268,13.2268,13.2384,13.1801,13.1508,9.2544,9.6453,10.0522,10.0522,10.3492,10.7058,10.9783,11.1423,11.2717,11.4093,11.8473,12.2096,12.2096,12.3147,12.4489,12.5952,12.7268,12.9036,13.158,13.3132,13.3938,13.3938,13.3938,13.3938,13.3938,13.3938,13.3938,13.3938,13.3938,13.3938,13.3938,13.3938,13.3938,13.3938,13.3938,13.3938,13.3938,13.3938,13.3624,13.2932,13.2413,13.2442,13.2932,13.2932,13.2932,13.2961,13.3653,13.3938,13.3938,13.391,13.3222,13.2181,13.2181,13.139,13.0265,13.0265,13.0265,13.0265,13.0265,13.0265,13.0354,13.1007,13.1655,13.2064,13.1449,13.1684,13.1918,13.0622,13.0265,13.0265,13.0265,13.074,13.1036,13.0414,13.0265,13.0265,13.0265,13.0265,13.0265,13.0265,13.0265,13.0265,13.0265,13.0265,13.0265,13.0265,13.0265,13.0473,13.1125,13.1213,13.1478,13.2093,13.1596,13.1478,13.2123,13.1596,13.1684,13.2846,13.2932,13.328,13.391,13.3938,13.3653,13.2932,13.2932,13.2932,13.2932,13.2413,13.2472,13.2904,13.2384,13.2181,9.2325,9.5137,9.8269,10.0044,10.2774,10.5204,10.6087,10.9461,11.2477,11.2896,11.5685,11.8891,12.1618,12.2369,12.3472,12.5772,12.649,12.766,13.0292,13.1788,13.2953,13.3819,13.3938,13.3938,13.3938,13.3938,13.3938,13.3938,13.3938,13.3938,13.3938,13.3938,13.3938,13.3938,13.3938,13.3938,13.3938,13.3938,13.3853,13.3653,13.3021,13.305,13.3624,13.3134,13.3251,13.3653,13.3853,13.3938,13.3938,13.3938,13.371,13.3309,13.2905,13.2238,13.1567,13.1567,13.1567,13.1567,13.1567,13.1567,13.1596,13.183,13.2238,13.2529,13.1478,13.1684,13.1918,13.0622,13.0592,13.1007,13.1449,13.1066,13.0622,13.0859,13.0592,13.0265,13.0265,13.0265,13.0265,13.0265,13.0265,13.0265,13.0265,13.0265,13.0265,13.0265,13.0622,13.1007,13.1184,13.1596,13.2123,13.2674,13.2558,13.25,13.2703,13.2529,13.2587,13.2904,13.3423,13.3739,13.3938,13.3938,13.3853,13.3653,13.3653,13.3653,13.3653,13.3452,13.3481,13.3624,13.3021,13.2732,9.1727,9.412,9.7132,9.9206,10.0979,10.2535,10.4068,10.732,11.0239,11.0718,11.3291,11.6403,11.931,12.108,12.2635,12.431,12.5473,12.7089,12.9694,13.1189,13.2446,13.3759,13.3938,13.3938,13.3938,13.3938,13.3938,13.3938,13.3938,13.3938,13.3938,13.3938,13.3938,13.3938,13.3938,13.3938,13.3938,13.3938,13.3938,13.3938,13.3538,13.3567,13.391,13.3538,13.3567,13.3938,13.3938,13.3938,13.3938,13.3938,13.3938,13.3881,13.3192,13.2645,13.2181,13.2181,13.2181,13.2181,13.2181,13.2181,13.2239,13.2384,13.2703,13.2788,13.2093,13.2151,13.2238,13.1214,13.1095,13.1272,13.142,13.1036,13.0652,13.0829,13.0533,13.0265,13.0265,13.0265,13.0265,13.0265,13.0265,13.0265,13.0265,13.0265,13.0325,13.0592,13.0977,13.139,13.1801,13.2209,13.2674,13.328,13.3306,13.3306,13.3306,13.3076,13.3048,13.3278,13.371,13.3938,13.3938,13.3938,13.3938,13.3938,13.3938,13.3938,13.3938,13.3938,13.3938,13.391,13.3538,13.3306,9.0889,9.3482,9.6773,9.8189,9.8569,9.9505,10.3111,10.5144,10.652,10.7643,11.1017,11.4129,11.5565,11.8891,12.1558,12.1977,12.425,12.6969,12.9634,13.113,13.2386,13.3759,13.3938,13.3938,13.3938,13.3938,13.3938,13.3938,13.3938,13.3938,13.3938,13.3938,13.3938,13.3938,13.3938,13.3938,13.3938,13.3938,13.3938,13.3938,13.3938,13.3938,13.3938,13.3938,13.3938,13.3938,13.3938,13.3938,13.3938,13.3938,13.3938,13.3881,13.3309,13.2732,13.2327,13.2327,13.2327,13.2327,13.2327,13.2327,13.2414,13.2905,13.3019,13.299,13.2961,13.2932,13.2876,13.2298,13.1713,13.1154,13.0533,13.077,13.1007,13.0473,13.0295,13.0265,13.0265,13.0265,13.0265,13.0265,13.0265,13.0265,13.0325,13.0325,13.0533,13.1184,13.1331,13.1713,13.2847,13.299,13.3309,13.3881,13.3938,13.3938,13.3938,13.3335,13.3309,13.391,13.3938,13.3938,13.3938,13.3938,13.3938,13.3938,13.3938,13.3938,13.3938,13.3938,13.3938,13.3938,13.3938,13.3938,9.0649,9.2744,9.5556,9.7949,9.8569,9.8787,9.9744,10.2475,10.4606,10.397,10.6124,10.8936,11.134,11.3375,11.6283,12.1259,12.3472,12.5779,12.9514,13.0292,13.1309,13.3639,13.3938,13.3938,13.3938,13.3938,13.3938,13.3938,13.3938,13.3938,13.3938,13.3938,13.3938,13.3938,13.3938,13.3938,13.3938,13.3938,13.3938,13.3938,13.3938,13.3938,13.3938,13.3938,13.3938,13.3938,13.3938,13.3938,13.3938,13.3938,13.3938,13.391,13.3767,13.3624,13.351,13.351,13.351,13.351,13.351,13.351,13.3538,13.3681,13.371,13.3624,13.3076,13.2932,13.2761,13.1684,13.1684,13.1918,13.1772,13.1125,13.0562,13.0918,13.0622,13.0265,13.0265,13.0265,13.0265,13.0265,13.0265,13.0414,13.0918,13.1007,13.1213,13.186,13.2297,13.2615,13.2904,13.3364,13.3767,13.391,13.3938,13.3938,13.3938,13.3796,13.3796,13.3938,13.3938,13.3938,13.3938,13.3938,13.3938,13.3938,13.3938,13.3938,13.3938,13.3938,13.3938,13.3938,13.3938,13.3938,9.059,9.2504,9.4997,9.7112,9.7171,9.6992,9.8248,9.9744,10.092,10.1458,10.3649,10.6064,10.8121,11.1137,11.4368,11.7934,12.0601,12.3413,12.6795,12.8378,12.9873,13.1935,13.3192,13.3938,13.3938,13.3938,13.3938,13.3938,13.3938,13.3938,13.3938,13.3938,13.3938,13.3938,13.3938,13.3938,13.3938,13.3938,13.3938,13.3938,13.3938,13.3938,13.3938,13.3938,13.3938,13.3938,13.3938,13.3938,13.3938,13.3938,13.3938,13.3938,13.3938,13.3938,13.3938,13.3938,13.3938,13.3938,13.3938,13.3938,13.3938,13.3938,13.3938,13.3881,13.3538,13.3364,13.3251,13.2297,13.1859,13.1684,13.139,13.08,13.0354,13.0711,13.0503,13.0265,13.0265,13.0265,13.0265,13.0265,13.0265,13.0473,13.1125,13.1213,13.1537,13.2384,13.279,13.3048,13.3395,13.3739,13.3938,13.3938,13.3938,13.3938,13.3938,13.3938,13.3938,13.3938,13.3938,13.3938,13.3938,13.3938,13.3938,13.3938,13.3938,13.3938,13.3938,13.3938,13.3938,13.3938,13.3938,13.3938,9.0829,9.2664,9.4758,9.5995,9.5376,9.5057,9.7411,9.7252,9.7252,9.9445,10.1996,10.4188,10.5481,10.9617,11.3052,11.383,11.6822,12.0063,12.3267,12.6105,12.8318,12.9873,13.2175,13.3699,13.3938,13.3938,13.3938,13.3938,13.3938,13.3938,13.3938,13.3938,13.3938,13.3938,13.3938,13.3938,13.3938,13.3938,13.3938,13.3938,13.3938,13.3938,13.3938,13.3938,13.3938,13.3938,13.3938,13.3938,13.3938,13.3938,13.3938,13.3938,13.3938,13.3938,13.3938,13.3938,13.3938,13.3938,13.3938,13.3938,13.3938,13.3938,13.3938,13.3938,13.3938,13.3881,13.3653,13.2934,13.1976,13.1066,13.0414,13.0265,13.0265,13.0265,13.0265,13.0265,13.0265,13.0265,13.0265,13.0265,13.0265,13.0503,13.1243,13.1361,13.1742,13.2963,13.3076,13.3278,13.3881,13.3938,13.3938,13.3938,13.3938,13.3938,13.3938,13.3938,13.3938,13.3938,13.3938,13.3938,13.3938,13.3938,13.3938,13.3938,13.3938,13.3938,13.3938,13.3938,13.3938,13.3938,13.3938,13.3938,9.1906,9.3322,9.4519,9.4758,9.4638,9.4578,9.4997,9.5855,9.6713,9.7132,9.9266,10.1458,10.2752,10.4606,10.7403,11.1938,11.3136,11.5625,12.1558,12.4729,12.7328,12.9754,13.1369,13.2713,13.3819,13.3938,13.3938,13.3938,13.3938,13.3938,13.3938,13.3938,13.3938,13.3938,13.3938,13.3938,13.3938,13.3938,13.3938,13.3938,13.3938,13.3938,13.3938,13.3938,13.3938,13.3938,13.3938,13.3938,13.3938,13.3938,13.3938,13.3938,13.3938,13.3938,13.3938,13.3938,13.3938,13.3938,13.3938,13.3938,13.3938,13.3938,13.3938,13.3938,13.3938,13.3567,13.2846,13.1771,13.1361,13.1066,13.0414,13.0265,13.0265,13.0265,13.0265,13.0265,13.0265,13.0265,13.0265,13.0265,13.0265,13.0652,13.183,13.2035,13.2443,13.3624,13.3796,13.3824,13.391,13.3938,13.3938,13.3938,13.3938,13.3938,13.3938,13.3938,13.3938,13.3938,13.3938,13.3938,13.3938,13.3938,13.3938,13.3938,13.3938,13.3938,13.3938,13.3938,13.3938,13.3938,13.3938,13.3938,9.2385,9.3502,9.4459,9.4459,9.4459,9.4459,9.4459,9.4997,9.5676,9.6474,9.7551,9.9026,10.1001,10.3013,10.5384,10.86,11.0957,11.3914,11.8293,12.308,12.6849,12.8737,13.0771,13.2505,13.3819,13.3938,13.3938,13.3938,13.3938,13.3938,13.3938,13.3938,13.3938,13.3938,13.3938,13.3938,13.3938,13.3938,13.3938,13.3938,13.3938,13.3938,13.3938,13.3938,13.3938,13.3938,13.3938,13.3938,13.3938,13.3938,13.3938,13.3938,13.3938,13.3938,13.3938,13.3938,13.3938,13.3938,13.3938,13.3938,13.3881,13.3538,13.3222,13.2963,13.2963,13.2529,13.1888,13.139,13.0977,13.0622,13.0325,13.0265,13.0265,13.0265,13.0265,13.0265,13.0265,13.0265,13.0265,13.0265,13.0533,13.1095,13.2035,13.2384,13.2905,13.3796,13.3938,13.3938,13.3938,13.3938,13.3938,13.3938,13.3938,13.3938,13.3938,13.3938,13.3938,13.3938,13.3938,13.3938,13.3938,13.3938,13.3938,13.3938,13.3938,13.3938,13.3938,13.3938,13.3938,13.3938,13.3938,13.3938,9.3342,0.0,9.5057,9.5356,9.5177,9.4997,0.0,9.4698,9.4758,9.5855,9.6354,9.7312,9.9625,10.1937,10.4188,10.64,10.9138,11.2274,11.6164,12.0806,12.4755,12.7328,12.9933,13.2027,13.3371,13.3759,13.3938,13.3938,13.3938,13.3938,13.3938,13.3938,13.3938,13.3938,13.3938,13.3938,13.3938,13.3938,13.3938,13.3938,13.3938,13.3938,13.3938,13.3938,13.3938,13.3938,13.3938,13.3938,13.3938,13.3938,13.3938,13.3938,13.3938,13.3938,13.3938,13.3938,13.3938,13.3938,13.3938,13.3938,13.3824,13.3134,13.2616,13.2181,13.2181,13.1625,13.1007,13.1007,13.0652,13.0265,13.0265,13.0265,13.0265,13.0265,13.0265,13.0265,13.0265,13.0265,13.0265,13.0265,13.077,13.1449,13.2064,13.2616,13.3163,13.3853,13.3938,13.3938,13.3938,13.3938,13.3938,13.3938,13.3938,13.3938,13.3938,13.3938,13.3938,13.3938,13.3938,13.3938,13.3938,13.3938,13.3938,13.3938,13.3938,13.3938,13.3938,13.3938,13.3938,13.3938,13.3938,13.3938,0.0,9.6375,9.6713,9.797,9.7372,9.6474,9.6474,9.5436,0.0,9.4638,9.5676,9.7013,9.8449,9.9864,10.2377,10.7366,10.738,10.9391,11.6977,11.7396,11.9276,12.5533,12.8557,13.0711,13.2027,13.3192,13.3938,13.3938,13.3938,13.3938,13.3938,13.3938,13.3938,13.3938,13.3938,13.3938,13.3938,13.3938,13.3938,13.3938,13.3938,13.3938,13.3938,13.3938,13.3938,13.3938,13.3938,13.3938,13.3938,13.3938,13.3938,13.3938,13.3938,13.3938,13.3938,13.3938,13.3938,13.3938,13.3938,13.3938,13.3824,13.3134,13.2616,13.2181,13.2181,13.1331,13.0325,13.0325,13.0295,13.0265,13.0265,13.0265,13.0265,13.0265,13.0265,13.0265,13.0265,13.0265,13.0265,13.0265,13.077,13.1449,13.2064,13.2616,13.3163,13.3853,13.3938,13.3938,13.3938,13.3938,13.3938,13.3938,13.3938,13.3938,13.3938,13.3938,13.3938,13.3938,13.3938,13.3938,13.3938,13.3938,13.3938,13.3938,13.3938,13.3938,13.3938,13.3938,13.3938,13.3938,13.3938,13.3938,9.6354,9.7192,9.797,9.8449,9.821,9.7611,9.6773,9.6175,9.5556,9.4638,9.5616,9.7013,9.8329,9.9625,10.1958,10.6363,10.664,10.9092,11.7096,11.7755,11.9609,12.5473,12.7747,12.9993,13.2893,13.2893,13.3072,13.3879,13.3938,13.3938,13.3938,13.3938,13.3938,13.3938,13.3938,13.3938,13.3938,13.3938,13.3938,13.3938,13.3938,13.3938,13.3938,13.3938,13.3938,13.3938,13.3938,13.3938,0.0,13.3938,13.3938,13.3938,13.3938,13.371,13.3306,13.3306,13.3136,13.2876,13.3222,13.3107,13.279,13.2529,13.2093,13.1508,13.1125,13.0652,13.0265,13.0265,13.0265,13.0265,13.0265,13.0265,13.0265,13.0265,13.0265,13.0265,13.0265,13.0265,13.0265,13.0265,13.1125,13.1889,13.2152,13.2934,13.3681,13.391,13.3938,13.3938,13.3938,13.3938,13.3938,13.3938,13.3938,13.3938,13.3938,13.3938,13.3938,13.3938,13.3938,13.3938,13.3938,13.3938,13.3938,13.3938,13.3938,13.3938,13.3938,13.3938,13.3938,13.3938,13.3938,13.3938,9.7611,9.8509,9.9385,10.0163,10.0103,9.9565,9.8667,9.815,9.7432,9.6014,9.6573,9.7611,9.8907,9.9864,10.1757,10.566,10.6318,10.9092,11.7096,11.8173,12.0148,12.5533,12.6909,12.8884,13.2354,13.2653,13.2953,13.3879,13.3938,13.3938,13.3938,13.3938,13.3938,13.3938,13.3938,13.3938,13.3938,13.3938,13.3938,13.3938,13.3938,13.3938,13.3938,13.3938,13.3938,13.3938,13.3938,13.3938,13.3938,13.3938,13.3938,13.3938,13.3938,13.3567,13.2932,13.2932,13.2645,13.2239,13.2587,13.2471,13.2152,13.1947,13.1596,13.1095,13.0444,13.0265,13.0265,13.0265,13.0265,13.0265,13.0265,13.0265,13.0265,13.0265,13.0265,13.0265,13.0265,13.0265,13.0325,13.0533,13.1449,13.2239,13.2384,13.3251,13.3938,13.3938,13.3938,13.3938,13.3938,13.3938,13.3938,13.3938,13.3938,13.3938,13.3938,13.3938,13.3938,13.3938,13.3938,13.3938,13.3938,13.3938,13.3938,13.3938,13.3938,13.3938,13.3938,13.3938,13.3938,13.3938,13.3938,13.3938,9.9744,10.0522,10.1159,10.3731,10.341,10.2475,10.2415,10.1458,10.0163,9.8787,9.8569,9.8967,10.0283,10.0522,10.1817,10.566,10.6341,10.9152,11.7096,11.8173,12.0208,12.5533,12.6191,12.7208,12.9754,13.2354,13.3938,13.3938,13.3938,13.3938,13.3938,13.3938,13.3938,13.3938,13.3938,13.3938,13.3938,13.3938,13.3938,13.3938,13.3938,13.3938,13.3938,13.3938,13.3938,13.3938,13.3938,13.3938,13.3938,13.3938,13.3938,13.3938,13.3938,13.3538,13.2932,13.2932,13.2616,13.2181,13.2181,13.2181,13.2064,13.1449,13.1213,13.1095,13.0444,13.0265,13.0265,13.0265,13.0265,13.0265,13.0265,13.0265,13.0265,13.0265,13.0265,13.0265,13.0265,13.0265,13.0444,13.1095,13.1743,13.2297,13.2846,13.351,13.3938,13.3938,13.3938,13.3938,13.3938,13.3938,13.3938,13.3938,13.3938,13.3938,13.3938,13.3938,13.3938,13.3938,13.3938,13.3938,13.3938,13.3938,13.3938,13.3938,13.3938,13.3938,13.3938,13.3938,13.3938,13.3938,13.3938,13.3938,9.9146,10.1121,10.341,10.4188,10.4786,10.4726,10.2894,10.2176,10.124,9.9026,9.9266,10.0044,10.0403,10.1219,10.2834,10.5862,10.7141,11.0156,11.7216,11.9011,12.1225,12.5653,12.6969,12.7867,12.8617,13.101,13.2953,13.3879,13.3938,13.3938,13.3938,13.3938,13.3938,13.3938,13.3938,13.3938,13.3938,13.3938,13.3938,13.3938,13.3938,13.3938,13.3938,13.3938,13.3938,13.3938,13.3938,13.3938,13.3938,13.3938,13.3938,13.3938,13.3938,13.3309,13.2384,13.2384,13.1772,13.0889,13.1361,13.1213,13.0859,13.1154,13.0918,13.0503,13.0325,13.0265,13.0265,13.0265,13.0265,13.0265,13.0265,13.0265,13.0265,13.0265,13.0265,13.0265,13.0265,13.0265,13.0325,13.0503,13.1449,13.2239,13.2355,13.3251,13.3938,13.3938,13.3938,13.3938,13.3938,13.3938,13.3938,13.3938,13.3938,13.3938,13.3938,13.3938,13.3938,13.3938,13.3938,13.3938,13.3938,13.3938,13.3938,13.3938,13.3938,13.3938,13.3938,13.3938,13.3938,13.3938,13.3938,13.3938,10.0163,10.2176,10.4487,10.5025,10.6101,10.6543,10.4487,10.4008,10.3253,10.062,10.0762,10.1398,10.1937,10.2714,10.409,10.6662,10.7762,11.0418,11.6583,11.8532,12.084,12.4848,12.649,12.7567,12.8019,12.9993,13.1788,13.3072,13.3639,13.3938,13.3938,13.3938,13.3938,13.3938,13.3938,13.3938,13.3938,13.3938,13.3938,13.3938,13.3938,13.3938,13.3938,13.3938,13.3938,13.3938,13.3938,13.3938,13.3938,13.3938,13.3938,13.3938,13.3938,13.3194,13.2181,13.2181,13.1361,13.0295,13.0711,13.0592,13.0325,13.0711,13.0562,13.0265,13.0265,13.0265,13.0265,13.0265,13.0265,13.0265,13.0265,13.0265,13.0265,13.0265,13.0265,13.0265,13.0265,13.0265,13.0325,13.0592,13.1478,13.2268,13.2442,13.328,13.3938,13.3938,13.3938,13.3938,13.3938,13.3938,13.3938,13.3938,13.3938,13.3938,13.3938,13.3938,13.3938,13.3938,13.3938,13.3938,13.3938,13.3938,13.3938,13.3938,13.3938,13.3938,13.3938,13.3938,13.3938,13.3938,13.3938,13.3938,10.1996,10.3432,10.4845,10.6019,10.738,10.8061,10.664,10.6318,10.56,10.3013,10.2415,10.2834,10.4128,10.4487,10.5406,10.8025,10.8683,11.0598,11.566,11.7635,11.9883,12.3566,12.5267,12.667,12.7959,12.9155,13.0472,13.1879,13.3072,13.3759,13.3759,13.3879,13.3938,13.3938,13.3938,13.3938,13.3938,13.3938,13.3938,13.3938,13.3938,13.3938,13.3938,13.3938,13.3938,13.3938,13.3938,13.3938,13.3938,13.3938,13.3938,13.3938,13.3938,13.3222,13.2268,13.221,13.142,13.0325,13.0265,13.0265,13.0265,13.0265,13.0295,13.0354,13.0354,13.0295,13.0265,13.0265,13.0265,13.0265,13.0265,13.0265,13.0265,13.0265,13.0265,13.0265,13.0265,13.0265,13.0444,13.1095,13.1743,13.2385,13.2846,13.351,13.3938,13.3938,13.3938,13.3938,13.3938,13.3938,13.3938,13.3938,13.3938,13.3938,13.3938,13.3938,13.3938,13.3938,13.3938,13.3938,13.3938,13.3938,13.3938,13.3938,13.3938,13.3938,13.3938,13.3938,13.3938,13.3938,13.3938,13.3938,10.1121,10.335,10.5959,10.6258,10.8181,10.9305,10.6879,10.6318,10.56,10.3013,10.2415,10.2834,10.4128,10.5204,10.6782,10.9544,11.1699,11.4129,11.7336,11.9789,12.1917,12.3805,12.5267,12.667,12.7959,12.8345,12.9455,13.1819,13.2266,13.2386,13.2386,13.3371,13.3938,13.3938,13.3938,13.3938,13.3938,13.3938,13.3938,13.3938,13.3938,13.3938,13.3938,13.3938,13.3938,13.3938,13.3938,13.3938,13.3938,13.3938,13.3938,13.3938,13.3938,13.3481,13.2761,13.2356,13.1684,13.0948,13.0444,13.0265,13.0265,13.0265,13.0592,13.1007,13.1007,13.0652,13.0265,13.0265,13.0265,13.0265,13.0265,13.0265,13.0265,13.0265,13.0265,13.0265,13.0265,13.0265,13.0444,13.1095,13.1743,13.2385,13.2846,13.351,13.3938,13.3938,13.3938,13.3938,13.3938,13.3938,13.3938,13.3938,13.3938,13.3938,13.3938,13.3938,13.3938,13.3938,13.3938,13.3938,13.3938,13.3938,13.3938,13.3938,13.3938,13.3938,13.3938,13.3938,13.3938,13.3938,13.3938,13.3938,10.1578,10.3372,10.5563,10.6139,10.7882,10.8982,10.756,10.6759,10.578,10.3769,10.2894,10.3013,10.4965,10.64,10.8181,11.0861,11.3016,11.4991,11.7002,11.9464,12.1618,12.2934,12.4908,12.6431,12.7089,12.7747,12.8677,13.0053,13.0711,13.1042,13.1042,13.1668,13.2354,13.3012,13.3639,13.3938,13.3938,13.3938,13.3938,13.3938,13.3938,13.3938,13.3938,13.3938,13.3938,13.3938,13.3938,13.3938,13.3938,13.3938,13.3938,13.3938,13.3938,13.3567,13.2904,13.2645,13.2151,13.1625,13.1302,13.1184,13.1184,13.1184,13.142,13.1684,13.1684,13.1449,13.1125,13.08,13.0711,13.0652,13.0325,13.0265,13.0265,13.0265,13.0265,13.0265,13.0265,13.0503,13.0918,13.1567,13.2122,13.2645,13.2934,13.351,13.3938,13.3938,13.3938,13.3938,13.3938,13.3938,13.3938,13.3938,13.3938,13.3938,13.3938,13.3938,13.3938,13.3938,13.3938,13.3938,13.3938,13.3938,13.3938,13.3938,13.3938,13.3938,13.3938,13.3938,13.3938,13.3938,13.3938,13.3938,10.2355,10.3432,10.4666,10.5743,10.7141,10.8204,10.8002,10.7261,10.6281,10.4965,10.3829,10.3911,10.652,10.7942,10.9581,11.2537,11.3914,11.5087,11.6403,11.8652,12.0601,12.1917,12.4277,12.5892,12.6131,12.7149,12.7839,12.8106,12.8884,12.9455,12.9694,12.9694,13.0292,13.1608,13.2713,13.34,13.3639,13.3819,13.3938,13.3938,13.3938,13.3938,13.3938,13.3938,13.3938,13.3938,13.3938,13.3938,13.3938,13.3938,13.3938,13.3938,13.3938,13.3624,13.3105,13.299,13.2703,13.2327,13.221,13.2181,13.221,13.2443,13.2443,13.2327,13.2327,13.2268,13.2064,13.1537,13.139,13.1243,13.0592,13.0414,13.0414,13.0414,13.0325,13.0295,13.0384,13.0859,13.1449,13.2181,13.2674,13.2961,13.3076,13.3595,13.3938,13.3938,13.3938,13.3938,13.3938,13.3938,13.3938,13.3938,13.3938,13.3938,13.3938,13.3938,13.3938,13.3938,13.3938,13.3938,13.3938,13.3938,13.3938,13.3938,13.3938,13.3938,13.3938,13.3938,13.3938,13.3938,13.3938,13.3938,10.2116,10.3432,10.4427,10.4606,10.6483,10.7942,10.6819,10.732,10.7643,10.6341,10.5899,10.664,10.9364,10.9986,11.134,11.5087,11.5865,11.6463,11.7755,11.9191,12.0601,12.1917,12.3386,12.4788,12.6012,12.6311,12.6909,12.8019,12.7208,12.7149,12.8258,12.8318,12.8916,13.0292,13.0472,13.107,13.2266,13.3371,13.3938,13.3938,13.3938,13.3938,13.3938,13.3938,13.3938,13.3938,13.3938,13.3938,13.3938,13.3938,13.3938,13.3938,13.3938,13.3881,13.3739,13.3134,13.2904,13.2819,13.2356,13.2181,13.2356,13.3366,13.3337,13.2876,13.2876,13.2529,13.2181,13.2093,13.2064,13.1918,13.1272,13.1095,13.1095,13.1095,13.0652,13.0414,13.0977,13.1154,13.1567,13.2674,13.2934,13.3105,13.371,13.3881,13.3938,13.3938,13.3938,13.3938,13.3938,13.3938,13.3938,13.3938,13.3938,13.3938,13.3938,13.3938,13.3938,13.3938,13.3938,13.3938,13.3938,13.3938,13.3938,13.3938,13.3938,13.3938,13.3938,13.3938,13.3938,13.3938,13.3938,13.3938,10.2056,10.2834,10.3492,10.421,10.5227,10.6124,10.6281,10.6221,10.6124,10.6281,10.5743,10.6064,10.8743,10.9843,11.1244,11.3674,11.5266,11.6463,11.7002,11.8832,12.0362,12.09,12.2156,12.3472,12.4848,12.4968,12.5506,12.6909,12.5746,12.5566,12.6909,12.7029,12.7627,12.8916,12.8916,12.9574,13.0862,13.1429,13.2115,13.2805,13.2805,13.3252,13.3938,13.3938,13.3938,13.3938,13.3938,13.3938,13.3938,13.3938,13.3938,13.3938,13.3938,13.3938,13.391,13.3624,13.3538,13.3481,13.3222,13.3136,13.3222,13.3767,13.3739,13.3538,13.3538,13.3337,13.3078,13.2732,13.2443,13.2123,13.183,13.1508,13.1331,13.1684,13.1537,13.142,13.1713,13.1976,13.2355,13.2846,13.322,13.3624,13.3881,13.3938,13.3938,13.3938,13.3938,13.3938,13.3938,13.3938,13.3938,13.3938,13.3938,13.3938,13.3938,13.3938,13.3938,13.3938,13.3938,13.3938,13.3938,13.3938,13.3938,13.3938,13.5147,13.5756,13.5817,13.7016,13.7668,13.7668,13.7668,13.7668,10.1539,10.1937,10.2236,10.3552,10.4128,10.4606,10.5623,10.5324,10.5144,10.6139,10.5802,10.6064,10.8384,10.9664,11.0944,11.2597,11.4213,11.5505,11.6164,11.7934,11.937,12.0063,12.096,12.2096,12.3386,12.3506,12.3951,12.5054,12.413,12.413,12.5506,12.5653,12.6251,12.7567,12.7627,12.8226,12.9514,12.9574,13.0232,13.146,13.146,13.2027,13.2953,13.2953,13.3132,13.346,13.346,13.3639,13.3938,13.3938,13.3938,13.3938,13.3938,13.3938,13.3938,13.3938,13.3938,13.3879,13.3551,13.3639,13.3938,13.3938,13.3938,13.3938,13.3938,13.3938,13.3853,13.3366,13.2934,13.2617,13.2384,13.2005,13.1742,13.2238,13.2298,13.2239,13.2385,13.2703,13.2932,13.2932,13.351,13.3938,13.3938,13.3938,13.3938,13.3938,13.3938,13.3938,13.3938,13.3938,13.3938,13.3938,13.3938,13.3938,13.3938,13.3938,13.3938,13.3938,13.3938,13.4223,13.4758,13.4192,13.4223,13.4786,13.6392,13.7234,13.7234,13.9446,14.0541,14.0541,14.0541,14.0541,9.9924,10.0582,10.092,10.2236,10.3492,10.4427,10.4487,10.5384,10.6258,10.6318,10.7261,10.8503,11.0023,11.0346,11.1244,11.3794,11.3255,11.3435,11.5924,11.6343,11.7336,11.9823,12.0208,12.0721,12.2037,12.2156,12.2216,12.2276,12.2216,12.2728,12.4044,12.4104,12.4788,12.6191,12.6251,12.6909,12.8198,12.8226,12.8856,13.0172,13.0172,13.0172,13.0232,13.0232,13.089,13.2059,13.2059,13.2745,13.3938,13.3938,13.3938,13.3938,13.3938,13.3938,13.3938,13.3938,13.3938,13.3759,13.2505,13.2893,13.3938,13.3938,13.3938,13.3938,13.3938,13.3938,13.3938,13.391,13.3853,13.371,13.3048,13.2934,13.2846,13.2934,13.2529,13.2327,13.2788,13.2932,13.2932,13.2932,13.351,13.3938,13.3938,13.3938,13.3938,13.3938,13.3938,13.3938,13.3938,13.3938,13.3938,13.3938,13.3938,13.3938,13.3938,13.3938,13.3938,13.3938,13.3938,13.4898,13.6961,13.5035,13.4894,13.7016,13.7179,13.7234,13.7234,13.9446,14.0541,14.0541,14.0541,14.0541,9.9565,10.0522,10.08,10.2116,10.2774,10.344,10.4532,10.4286,10.4362,10.6331,10.6194,10.6184,10.75,10.8503,10.9364,11.0299,11.1519,11.2657,11.3615,11.5206,11.6583,11.7515,11.8353,11.943,12.0661,12.0088,11.9909,12.078,12.084,12.1379,12.2669,12.2788,12.2994,12.3532,12.437,12.5028,12.5506,12.6371,12.7089,12.7567,12.8378,12.9215,13.0053,13.0053,13.0292,13.0771,13.0771,13.101,13.1429,13.1429,13.1429,13.1429,13.1429,13.1429,13.1429,13.1429,13.1995,13.2505,13.1189,13.101,13.1429,13.1429,13.1429,13.1429,13.1429,13.1429,13.1429,13.1429,13.1713,13.2143,13.2257,13.2625,13.3048,13.351,13.3452,13.3337,13.3567,13.3595,13.3595,13.3595,13.3796,13.3938,13.3938,13.3938,13.3938,13.3938,13.3938,13.3938,13.3938,13.3938,13.3938,13.3938,13.3938,13.3938,13.3938,13.5231,13.5455,13.4052,13.5259,13.642,13.7207,13.6475,13.6702,13.7952,13.8082,13.8317,13.873,13.96,14.074,14.205,14.205,14.205,9.8138,9.8858,9.8892,10.074,10.1486,10.2082,10.322,10.3394,10.3721,10.5089,10.533,10.53,10.5616,10.6722,10.7643,10.7643,10.9521,11.116,11.1639,11.3555,11.5087,11.5565,11.6762,11.7874,11.8712,11.7635,11.7421,11.8712,11.8832,11.9609,12.1319,12.1438,12.1618,12.2037,12.2908,12.3326,12.3326,12.431,12.4995,12.5447,12.6284,12.7421,12.8737,12.8737,12.8976,12.9395,12.9395,12.9634,13.0053,13.0053,13.0053,13.0053,13.0053,13.0053,13.0053,13.0053,13.0292,13.0531,12.9694,12.9694,13.0053,13.0053,13.0053,13.0053,13.0053,13.0053,13.0053,13.0053,13.0372,13.0772,13.1197,13.1657,13.2083,13.2509,13.2594,13.2713,13.3192,13.3252,13.3371,13.3879,13.3938,13.3938,13.3938,13.3938,13.3938,13.3938,13.3938,13.3759,13.3312,13.3639,13.3938,13.3938,13.3938,13.3938,13.3938,13.4896,13.5149,13.4403,13.5294,13.6526,13.7941,13.7286,13.7479,13.8791,13.8916,13.9164,13.955,14.0379,14.149,14.285,14.285,14.285,9.5585,9.5632,9.512,9.8106,9.9633,10.0492,10.0616,10.2855,10.4401,10.2817,10.4817,10.6292,10.4662,10.5429,10.6326,10.6281,10.738,10.8683,11.0106,11.146,11.2776,11.4034,11.5386,11.6164,11.6044,11.4967,11.4847,11.6104,11.6164,11.7276,11.9883,12.0028,12.0601,12.1917,12.1977,12.2037,12.2037,12.2037,12.2695,12.3984,12.3984,12.4669,12.6012,12.6012,12.673,12.7986,12.8019,12.8737,12.9933,12.9933,12.9933,12.9933,12.9933,12.9933,12.9933,12.9813,12.8976,12.7926,12.7926,12.8737,12.9873,12.9873,12.9873,12.9933,12.9933,12.9933,12.9933,12.9933,12.9933,12.9993,12.9993,12.9993,13.0053,13.0053,13.0053,13.0412,13.1668,13.1939,13.2326,13.3551,13.3819,13.3819,13.3819,13.3819,13.3819,13.3819,13.3819,13.3371,13.2087,13.3012,13.3819,13.3819,13.3819,13.3819,13.3819,13.271,13.2881,13.4885,13.3898,13.5131,13.9383,13.7496,13.7397,13.9533,13.9533,13.951,13.9452,14.1566,14.2607,14.2609,14.2609,14.2609,9.4145,9.4153,9.4275,9.9197,9.9921,10.0251,10.3509,10.3143,10.2504,10.4218,10.4328,10.385,10.3124,10.5069,10.6375,10.5129,10.6042,10.7021,10.738,10.9461,11.1041,11.1423,11.3495,11.4069,11.2178,11.3375,11.4453,11.4787,11.4847,11.5565,11.7241,11.7276,11.7934,11.9191,12.0182,12.0661,12.0661,12.1618,12.2276,12.2635,12.2635,12.2814,12.3173,12.3173,12.3891,12.5207,12.6251,12.6909,12.7208,12.7208,12.7208,12.7208,12.7208,12.7208,12.7029,12.5028,12.4071,12.3712,12.3712,12.4609,12.5686,12.5686,12.6404,12.7208,12.7208,12.7208,12.7208,12.7208,12.7926,12.8644,12.8644,12.9335,13.0053,13.0053,13.0053,13.0172,13.0531,13.0591,13.0711,13.107,13.1098,13.1098,13.1098,13.1098,13.1098,13.1098,13.1098,13.095,13.0651,13.089,13.1098,13.1098,13.1098,13.1098,13.1098,13.2277,13.3189,13.3696,13.4864,13.6726,13.9431,13.8999,13.9218,14.0374,13.8913,13.7896,13.7281,13.6391,13.6249,13.6646,13.6646,13.6646,8.9155,8.9302,9.0188,9.4742,9.5628,9.6342,10.0275,10.1123,10.1614,10.3241,10.3394,10.3072,10.2687,10.4068,10.4887,10.38,10.5272,10.6337,10.5593,10.7343,10.8683,10.8683,11.0036,11.0395,10.8862,11.0598,11.2034,11.2597,11.3196,11.4009,11.5386,11.5446,11.5805,11.6523,11.7814,11.8473,11.8473,11.9789,12.0721,12.1259,12.1259,12.1558,12.2096,12.2096,12.2515,12.3293,12.4071,12.4456,12.4456,12.4456,12.4456,12.4456,12.4456,12.4456,12.425,12.2635,12.2096,12.2096,12.2096,12.2575,12.3207,12.3207,12.3771,12.4456,12.4456,12.4456,12.4456,12.4456,12.4968,12.5686,12.6224,12.6942,12.766,12.8258,12.8378,12.8557,12.9096,12.9215,12.9395,12.9933,13.0053,13.0053,13.0053,13.0053,12.9694,12.8557,12.8856,12.9215,12.9215,12.9694,13.0053,13.0053,13.0053,13.038,13.1279,13.2044,13.3163,13.4816,13.5659,13.671,13.8222,13.8249,13.8207,13.8071,13.6862,13.6014,13.5549,13.4361,13.3927,13.4344,13.4344,13.3029,8.298,8.325,8.5056,8.7936,8.9345,9.074,0.0,9.7386,10.0269,10.014,10.1487,10.26,10.2191,10.2664,10.2997,10.258,10.4858,10.6199,10.4642,10.5578,10.6357,10.6178,10.6298,10.6327,10.6101,10.7261,10.8563,10.9843,11.1041,11.2298,11.3794,11.3854,11.4034,11.4333,11.5446,11.6044,11.6044,11.7181,11.8353,11.949,11.9609,12.0302,12.1438,12.1558,12.1738,12.1857,12.1857,12.1917,12.2096,12.2096,12.2096,12.2096,12.2096,12.1738,12.1225,12.1457,12.1534,12.15,12.1731,12.1988,12.2254,12.2254,12.2315,12.24,12.24,12.2278,12.2096,12.2096,12.2096,12.2336,12.3506,12.3805,12.4104,12.5413,12.5713,12.6012,12.7181,12.754,12.7959,12.9155,12.9514,12.9634,12.9634,12.9634,12.8841,12.6653,12.7335,12.8151,12.8298,12.9354,13.0136,13.0284,13.0284,13.1039,13.2916,13.1869,13.2701,13.6508,13.5654,13.5339,13.6208,13.6207,13.5549,13.4081,13.4081,13.3884,13.3555,13.3555,13.349,13.3358,13.3358,13.0399,0.0,0.0,0.0,0.0,0.0,0.0,0.0,9.231,9.3131,9.415,9.6501,9.826,9.7915,10.0944,10.3368,10.3144,10.4537,10.5446,10.4957,10.5968,10.6374,10.5378,10.6151,10.6279,10.4882,10.5922,10.6819,10.7141,10.7357,10.8577,11.1064,11.1184,11.2118,11.4273,11.4572,11.4668,11.4668,11.4907,11.5146,11.5446,11.6523,11.7096,11.7396,11.8473,11.9524,12.0481,12.0481,12.108,12.2096,12.2096,12.2096,12.2096,12.2096,11.949,11.6002,11.7484,11.802,11.821,11.9669,12.163,12.3459,12.3459,12.391,12.442,12.442,12.3317,12.2096,12.2096,12.2096,12.2156,12.2396,12.2429,12.2515,12.2814,12.2874,12.2934,12.3173,12.4071,12.4881,12.5121,12.6105,12.6909,12.6909,12.6909,12.7063,12.7477,12.7779,12.8402,12.9659,13.0033,13.0618,13.1815,13.1902,13.2052,13.2474,13.1197,13.098,13.2341,13.2196,13.2875,13.4654,13.4739,13.4016,13.2437,13.2437,13.132,12.8973,12.8973,12.8446,12.7242,12.7242,12.5401,0.0,0.0,0.0,0.0,0.0,0.0,0.0,0.0,0.0,0.0,0.0,9.4156,9.4582,0.0,10.1386,10.1116,10.3621,10.5475,10.5215,10.572,10.5886,10.5243,10.5782,10.6036,10.5926,10.711,10.7499,10.6668,10.802,10.871,10.8416,11.0015,11.0736,11.0322,11.2452,11.3223,11.2381,11.3674,11.4333,11.4333,11.4967,11.5266,11.5266,11.5924,11.6558,11.7216,11.7216,11.7575,11.8173,11.8173,11.8173,11.8375,12.0209,11.9291,11.7146,11.8052,11.8416,11.8552,11.945,12.0641,12.1772,12.1772,12.2052,12.2337,12.2337,12.1713,12.0899,12.0899,12.0899,12.0988,12.1382,12.1496,12.1824,12.3183,12.3546,12.3546,12.3546,12.4783,12.5639,12.4695,12.5845,12.7008,12.7008,12.7008,12.7218,12.7794,12.7914,12.8189,12.8967,12.9093,12.9093,12.9093,12.9683,12.9833,12.9156,13.0062,13.0851,13.1208,13.2206,13.2556,13.2112,13.2088,13.1036,12.8821,12.8755,12.7703,12.5599,12.5599,12.4809,12.3363,12.1916,12.0469,0.0,0.0,0.0,0.0,0.0,0.0,0.0,0.0,0.0,0.0,0.0,0.0,0.0,0.0,0.0,9.8147,10.1987,10.4939,10.4988,10.5045,10.5057,10.5006,10.5284,10.5882,10.6952,10.8068,10.8155,10.7107,10.9242,10.9573,10.7092,10.9506,10.9862,10.7366,11.079,11.1959,11.0631,11.27,11.3764,11.3764,11.3951,0.0,11.406,11.4179,11.4333,11.4333,11.4333,11.4333,11.4297,11.4685,11.4854,11.507,11.7258,11.8128,11.8149,11.852,11.865,11.8715,11.9059,11.9378,11.9632,11.9632,11.9585,11.9492,11.9492,11.9419,0.0,11.9321,11.951,11.9884,12.0504,12.0659,12.1276,12.3433,12.3987,12.3987,12.3987,12.5623,12.6664,12.5069,12.6481,12.7914,12.7914,12.7452,12.7049,12.7049,12.7049,12.7262,12.7793,12.811,12.796,12.7049,12.83,12.8704,12.7493,12.9565,13.0905,13.0905,13.2009,13.143,12.8735,12.8603,12.7091,12.3955,12.3889,12.3146,12.1746,12.1746,12.1305,12.0357,11.6261,11.4653,0.0,0.0,0.0,0.0,0.0,0.0,0.0,0.0,0.0,0.0,0.0,0.0,0.0,0.0,0.0,0.0,9.9311,10.2517,10.366,10.3976,10.4058,10.3864,10.4923,10.5635,10.5606,10.5702,10.6272,10.7346,10.7777,10.8305,10.9051,10.946,0.0,0.0,0.0,11.1429,11.1303,11.1532,11.172,11.1698,11.2644,11.3109,11.3102,11.3938,11.4333,11.4333,11.4333,11.4333,11.4394,11.6046,11.6689,11.6408,11.3485,11.2326,11.2534,11.4144,11.4721,11.5003,11.6599,0.0,0.0,11.9204,11.887,11.8551,11.8551,11.8216,11.7833,11.7833,11.8797,11.978,11.9871,11.9867,11.9929,12.0242,12.0305,12.0305,12.0305,12.2367,12.4239,12.4009,12.6116,12.7914,12.7914,12.5695,12.396,12.396,12.396,12.4875,12.7423,12.8842,13.0085,13.1153,13.2658,0.0,13.3378,13.1255,13.0004,13.0004,12.7845,12.5842,12.4264,12.4132,12.216,11.7905,11.7839,11.7097,11.5717,11.5717,11.6243,11.7116,10.9142,10.6943,0.0,0.0,0.0,0.0,0.0,0.0,0.0,0.0,0.0,0.0,0.0,0.0,0.0,0.0,0.0,0.0,9.5152,9.7566,9.6404,9.7789,9.9503,10.1031,10.248,10.4,10.564,10.5827,10.5965,10.6472,10.7399,10.7662,10.7121,10.8927,10.9738,10.9115,11.0839,11.122,11.0251,11.1027,11.1384,11.1384,11.1801,11.2083,11.204,11.2459,11.2599,11.2599,11.2599,11.2599,11.2644,11.3457,11.3722,11.3816,0.0,0.0,0.0,0.0,11.5678,11.5773,11.6547,11.7247,11.7773,11.7773,11.7681,11.7484,11.7484,11.7333,11.7177,11.7177,11.7564,11.7969,11.7741,11.7705,11.8108,11.9806,12.0209,12.04,12.1271,12.3212,12.4537,12.3336,12.5009,0.0,12.5415,12.4256,12.3738,12.4527,12.4658,12.5119,12.6322,12.6979,12.7288,12.7025,12.836,12.8886,12.8077,12.7617,0.0,0.0,0.0,12.4921,12.3455,12.262,0.0,0.0,0.0,11.4467,11.2166,11.136,0.0,0.0,10.3419,10.1865,0.0,0.0,0.0,0.0,0.0,0.0,0.0,0.0,0.0,0.0,0.0,0.0,0.0,0.0,0.0,0.0,9.0352,9.1996,8.9497,9.1996,9.5021,9.7489,9.9345,10.1678,10.4638,10.4901,10.5025,10.5259,10.6801,10.7058,10.5651,10.8261,10.9173,10.7774,11.0185,11.0976,10.9679,11.1021,11.1701,11.1701,11.1583,11.1531,11.1531,11.1421,11.1384,11.1384,11.1384,11.1384,11.1425,11.1938,11.2141,11.2318,11.4282,11.4814,11.4485,11.4485,11.4485,11.4485,11.4485,11.4485,11.4533,11.4946,11.5077,11.5143,11.5537,11.5932,11.6243,11.6243,11.6524,11.6773,11.6444,11.6373,11.6911,11.8981,11.9519,11.9777,12.0853,12.2525,12.3385,12.1958,12.2499,12.2686,12.1305,12.1023,12.1371,12.2423,12.2902,12.3297,12.3757,12.4481,12.4593,12.3541,12.4724,12.5138,12.4132,12.4593,12.4809,12.4415,12.402,12.3146,12.17,12.0272,11.8431,11.6243,11.4073,11.1509,0.0,0.0,0.0,0.0,0.0,0.0,0.0,0.0,0.0,0.0,0.0,0.0,0.0,0.0,0.0,0.0,0.0,0.0,0.0,0.0,0.0,0.0,0.0,0.0,8.4802,8.8365,9.1667,9.315,9.581,9.8653,10.1531,10.1794,10.2419,10.3948,10.5394,10.6183,10.6148,10.7513,10.8302,10.8264,10.9713,11.0435,11.0383,11.178,11.252,11.2502,11.2142,11.1924,11.1931,11.1529,11.1384,11.1384,11.1384,11.1384,11.1528,11.3285,11.4039,11.3764,11.1507,10.9733,10.8533,10.8533,10.8533,10.8533,10.8533,10.8533,10.8796,11.0128,11.0606,11.0869,11.2267,11.3631,11.4712,11.4712,11.5782,11.6834,11.6779,11.6845,11.6826,11.691,11.6976,11.6976,11.7023,11.8262,11.9333,11.9276,11.8065,11.6655,11.5191,11.4975,11.4975,11.5041,11.6177,0.0,11.9154,12.1765,12.3475,12.3455,12.4724,12.5533,12.5533,12.4264,12.2883,12.1541,12.0141,11.8628,11.7116,11.5651,11.4844,11.4778,11.0637,10.7104,10.4211,0.0,0.0,0.0,0.0,0.0,0.0,0.0,0.0,0.0,0.0,0.0,0.0,0.0,0.0,0.0,0.0,0.0,0.0,0.0,0.0,0.0,0.0,0.0,0.0,8.3842,8.7182,8.8656,9.0549,9.2456,9.4363,9.4575,9.5547,9.803,9.9508,10.1152,10.3043,10.3619,10.4342,10.5394,10.6857,10.7598,10.7598,10.9027,10.9733,10.9733,10.9551,10.9529,10.9529,11.0355,11.0746,11.0829,11.1755,11.2162,11.2199,11.2839,11.195,11.014,10.9311,10.809,10.6857,10.6857,10.6249,10.546,10.546,10.546,10.5657,10.712,10.7598,10.7861,10.9273,11.0062,11.0439,11.0439,11.0768,11.1377,11.2315,11.2578,11.3021,11.4993,11.5388,11.5651,11.659,11.7247,11.7642,11.7642,11.5687,11.4175,11.4599,11.4712,11.4993,11.598,11.6524,11.705,11.7576,11.8431,11.9088,11.9088,11.9483,11.9812,11.9812,11.9351,11.8825,11.8365,11.7905,11.6966,11.5454,11.4025,11.2841,11.1837,10.947,10.6364,10.2452,0.0,0.0,0.0,0.0,0.0,0.0,0.0,0.0,0.0,0.0,0.0,0.0,0.0,0.0,0.0,0.0,0.0,0.0,0.0,0.0,0.0,0.0,0.0,0.0,0.0,0.0,8.5565,8.7144,0.0,9.0103,9.0221,9.0747,9.2076,9.3508,9.535,9.7717,9.8359,9.9543,10.1597,10.3043,10.403,10.4572,10.5986,10.6758,10.6758,10.7235,10.7498,10.7564,10.901,10.9668,10.9668,11.0606,11.1,11.0934,10.9948,10.8107,10.5854,10.5377,10.3948,10.2254,10.2254,10.1334,10.02,10.066,10.0873,10.0989,10.1925,10.2599,10.3388,10.5328,10.5575,10.518,10.518,10.5509,10.6232,10.7778,10.8501,10.9488,11.1837,11.2411,11.2609,11.3547,11.4157,11.442,11.3876,11.2315,11.1132,11.1592,11.2495,11.3284,11.3678,11.5059,11.6045,11.6045,11.6524,11.6853,11.6853,11.6853,11.6853,11.6853,11.6853,11.659,11.6111,11.6045,11.5191,11.3218,11.225,11.0886,10.8962,10.6429,10.352,0.0,0.0,0.0,0.0,0.0,0.0,0.0,0.0,0.0,0.0,0.0,0.0,0.0,0.0,0.0,0.0,0.0,0.0,0.0,0.0,0.0,0.0,0.0,0.0,0.0,0.0,0.0,8.3553,8.5302,0.0,0.0,0.0,0.0,8.6447,8.7656,8.9168,9.0695,9.2047,9.4085,9.6877,9.8359,9.9806,10.1202,10.2764,10.3553,10.3701,10.5033,10.5756,10.5822,10.7301,10.7941,10.7941,10.8007,10.8073,10.781,10.4737,10.2567,10.112,9.974,9.7423,9.4955,9.4955,9.402,9.2953,9.4348,9.4889,9.4955,9.4955,9.5876,9.7601,10.0282,10.0134,0.0,0.0,10.0069,10.1515,10.3224,10.4704,10.6085,10.7695,10.8073,10.8073,10.8138,10.9207,10.9751,10.8138,10.7876,10.7498,10.6151,0.0,10.9536,10.8336,11.1688,11.4384,11.4449,11.5717,11.659,11.659,11.659,11.659,11.659,11.659,11.6064,11.4665,11.4515,11.3218,11.0408,11.0128,10.8699,10.5773,10.1515,0.0,0.0,0.0,0.0,0.0,0.0,0.0,0.0,0.0,0.0,0.0,0.0,0.0,0.0,0.0,0.0,0.0,0.0,0.0,0.0,0.0,0.0,0.0,0.0,0.0,0.0,7.2926,7.5939,7.9198,7.9001,7.9186,0.0,0.0,0.0,0.0,0.0,0.0,8.7632,8.8144,8.9182,9.0944,9.2391,9.3837,9.532,9.6781,9.8046,9.9048,9.9442,10.015,10.1252,10.2698,10.3356,10.3422,10.4605,10.5065,10.4605,9.8409,9.5648,9.5254,9.4925,9.3019,9.0469,9.0469,8.9563,8.8393,8.8736,8.9577,9.0469,9.0469,9.147,9.2734,9.3457,0.0,0.0,0.0,0.0,9.451,9.8127,9.9377,10.056,10.4211,10.5065,10.5394,10.6463,10.7006,10.6134,10.2485,10.2617,10.3241,10.2846,0.0,0.0,10.6397,10.855,11.0308,11.1377,11.2793,11.3648,11.3648,11.3648,11.3648,11.3648,11.3648,11.3517,11.3104,11.2118,11.072,10.8862,10.6775,10.3848,9.9971,0.0,0.0,0.0,0.0,0.0,0.0,0.0,0.0,0.0,0.0,0.0,0.0,0.0,0.0,0.0,0.0,0.0,0.0,0.0,0.0,0.0,0.0,0.0,0.0,0.0,0.0,0.0,6.7727,7.0988,7.3931,7.406,7.4265,0.0,0.0,0.0,0.0,0.0,0.0,0.0,0.0,0.0,8.588,8.6683,8.8445,9.1178,9.2047,9.318,9.4575,9.5218,9.5926,9.6766,9.8228,9.8819,9.8901,9.9148,9.8491,9.7044,9.2953,9.1244,9.1047,0.0,0.0,0.0,0.0,8.3132,8.2027,8.2671,8.3855,8.5054,8.429,0.0,0.0,0.0,0.0,0.0,0.0,0.0,8.9817,9.3026,9.4665,9.6336,9.9427,10.015,10.0545,10.2007,10.0392,9.8134,0.0,9.6478,9.7116,9.7024,0.0,0.0,0.0,0.0,10.7169,10.9207,11.0737,11.1873,11.2465,11.253,11.253,11.253,11.1938,11.161,11.161,10.9685,10.791,10.6446,10.2961,9.9486,0.0,0.0,0.0,0.0,0.0,0.0,0.0,0.0,0.0,0.0,0.0,0.0,0.0,0.0,0.0,0.0,0.0,0.0,0.0,0.0,0.0,0.0,0.0,0.0,0.0,0.0,0.0,0.0,0.0,6.5193,6.8326,0.0,0.0,0.0,0.0,0.0,0.0,0.0,0.0,0.0,0.0,0.0,0.0,0.0,8.2856,8.6538,8.7116,8.8234,8.984,9.1061,9.1901,9.2296,9.3559,9.41,9.4035,9.2039,0.0,8.7642,8.7289,0.0,0.0,0.0,0.0,0.0,0.0,0.0,0.0,0.0,0.0,0.0,0.0,0.0,0.0,0.0,0.0,0.0,0.0,0.0,0.0,0.0,0.0,9.2208,9.4013,9.4459,9.4575,9.5308,9.1903,8.8951,8.9939,9.0315,0.0,0.0,0.0,0.0,0.0,0.0,0.0,10.7154,10.9045,11.0606,11.1873,11.2004,11.2004,11.2004,11.0869,11.0014,10.9882,10.7137,10.4753,10.2912,9.8966,0.0,0.0,0.0,0.0,0.0,0.0,0.0,0.0,0.0,0.0,0.0,0.0,0.0,0.0,0.0,0.0,0.0,0.0,0.0,0.0,0.0,0.0,0.0,0.0,0.0,0.0,0.0,0.0,0.0,0.0,0.0,0.0,0.0,0.0,0.0,0.0,0.0,0.0,0.0,0.0,0.0,0.0,0.0,0.0,0.0,0.0,0.0,0.0,0.0,0.0,8.3973,8.5434,8.7815,8.8078,8.8224,8.7908,8.3217,8.1382,8.1422,7.9318,0.0,0.0,0.0,0.0,0.0,0.0,0.0,0.0,0.0,0.0,0.0,0.0,0.0,0.0,0.0,0.0,0.0,0.0,0.0,0.0,0.0,0.0,8.5464,8.9305,9.0127,8.9135,8.6125,0.0,0.0,0.0,0.0,0.0,0.0,0.0,0.0,0.0,0.0,0.0,10.3069,10.6416,10.873,10.901,10.8993,10.8993,10.8993,10.8813,10.8156,10.694,10.4096,10.0742,0.0,0.0,0.0,0.0,0.0,0.0,0.0,0.0,0.0,0.0,0.0,0.0,0.0,0.0,0.0,0.0,0.0,0.0,0.0,0.0,0.0,0.0,0.0,0.0,0.0,0.0,0.0,0.0,0.0,0.0,0.0,0.0,0.0,0.0,0.0,0.0,0.0,0.0,0.0,0.0,0.0,0.0,0.0,0.0,0.0,0.0,0.0,0.0,0.0,0.0,0.0,0.0,0.0,0.0,0.0,0.0,0.0,0.0,7.8265,7.5556,0.0,0.0,0.0,0.0,0.0,0.0,0.0,0.0,0.0,0.0,0.0,0.0,0.0,0.0,0.0,0.0,0.0,0.0,0.0,0.0,0.0,0.0,0.0,0.0,0.0,0.0,0.0,0.0,0.0,0.0,0.0,0.0,0.0,0.0,0.0,0.0,0.0,0.0,0.0,0.0,9.9501,10.3535,10.6627,10.8138,10.827,10.827,10.827,10.6906,10.5394,10.3898,9.969,0.0,0.0,0.0,0.0,0.0,0.0,0.0,0.0,0.0,0.0,0.0,0.0,0.0,0.0,0.0,0.0,0.0,0.0,0.0,0.0,0.0,0.0,0.0,0.0,0.0,0.0,0.0,0.0,0.0,0.0,0.0,0.0,0.0,0.0,0.0,0.0,0.0,0.0,0.0,0.0,0.0,0.0,0.0,0.0,0.0,0.0,0.0,0.0,0.0,0.0,0.0,0.0,0.0,0.0,0.0,0.0,0.0,0.0,0.0,7.3405,7.0319,0.0,0.0,0.0,0.0,0.0,0.0,0.0,0.0,0.0,0.0,0.0,0.0,0.0,0.0,0.0,0.0,0.0,0.0,0.0,0.0,0.0,0.0,0.0,0.0,0.0,0.0,0.0,0.0,0.0,0.0,0.0,0.0,0.0,0.0,0.0,0.0,0.0,0.0,0.0,0.0,9.6061,10.0339,10.3866,10.6166,10.6429,10.6429,10.6429,10.4342,10.2107,10.0003,9.532,0.0,0.0,0.0,0.0,0.0,0.0,0.0,0.0,0.0,0.0,0.0,0.0,0.0,0.0,0.0,0.0,0.0,0.0,0.0,0.0,0.0,0.0,0.0,0.0,0.0,0.0,0.0,0.0,0.0,0.0,0.0,0.0,0.0,0.0,0.0,0.0,0.0,0.0,0.0,0.0,0.0,0.0,0.0,0.0,0.0,0.0,0.0,0.0,0.0,0.0,0.0,0.0,0.0,0.0,0.0,0.0,0.0,0.0,0.0,0.0,0.0,0.0,0.0,0.0,0.0,0.0,0.0,0.0,0.0,0.0,0.0,0.0,0.0,0.0,0.0,0.0,0.0,0.0,0.0,0.0,0.0,0.0,0.0,0.0,0.0,0.0,0.0,0.0,0.0,0.0,0.0,0.0,0.0,0.0,0.0,0.0,0.0,0.0,0.0,0.0,0.0,9.2262,9.677,10.0053,10.0316,10.0316,10.0316,10.0316,10.0118,9.8212,9.4136,0.0,0.0,0.0,0.0,0.0,0.0,0.0,0.0,0.0,0.0,0.0,0.0,0.0,0.0,0.0,0.0,0.0,0.0,0.0,0.0,0.0,0.0,0.0,0.0,0.0,0.0,0.0,0.0,0.0,0.0,0.0,0.0,0.0,0.0,0.0,0.0,0.0,0.0,0.0,0.0,0.0,0.0,0.0,0.0,0.0,0.0,0.0,0.0,0.0,0.0,0.0,0.0,0.0,0.0,0.0,0.0,0.0,0.0,0.0,0.0,0.0,0.0,0.0,0.0,0.0,0.0,0.0,0.0,0.0,0.0,0.0,0.0,0.0,0.0,0.0,0.0,0.0,0.0,0.0,0.0,0.0,0.0,0.0,0.0,0.0,0.0,0.0,0.0,0.0,0.0,0.0,0.0,0.0,0.0,0.0,0.0,0.0,0.0,0.0,0.0,0.0,0.0,9.0182,9.4278,9.7636,9.933,9.9527,9.9527,9.9527,9.7965,9.5592,9.2264,0.0,0.0,0.0,0.0,0.0,0.0,0.0,0.0,0.0,0.0,0.0,0.0,0.0,0.0,0.0,0.0,0.0,0.0,0.0,0.0,0.0,0.0,0.0,0.0,0.0,0.0,0.0,0.0,0.0,0.0,0.0,0.0,0.0,0.0,0.0,0.0,0.0,0.0,0.0,0.0,0.0,0.0,0.0,0.0,0.0,0.0,0.0,0.0,0.0,0.0,0.0,0.0,0.0,0.0,0.0,0.0,0.0,0.0,0.0,0.0,0.0,0.0,0.0,0.0,0.0,0.0,0.0,0.0,0.0,0.0,0.0,0.0,0.0,0.0,0.0,0.0,0.0,0.0,0.0,0.0,0.0,0.0,0.0,0.0,0.0,0.0,0.0,0.0,0.0,0.0,0.0,0.0,0.0,0.0,0.0,0.0,0.0,0.0,0.0,0.0,0.0,0.0,8.7941,9.1653,9.494,9.7358,9.7226,9.716,9.762,9.5006,9.2229,8.9583,0.0,0.0,0.0,0.0,0.0,0.0,0.0,0.0,0.0,0.0,0.0,0.0,0.0,0.0,0.0,0.0,0.0,0.0,0.0,0.0,0.0,0.0,0.0,0.0,0.0,0.0,0.0,0.0,0.0,0.0,0.0,0.0,0.0,0.0,0.0,0.0,0.0,0.0,0.0,0.0,0.0,0.0,0.0,0.0,0.0,0.0,0.0,0.0,0.0,0.0,0.0,0.0,0.0,0.0,0.0,0.0,0.0,0.0,0.0,0.0,0.0,0.0,0.0,0.0,0.0,0.0,0.0,0.0,0.0,0.0,0.0,0.0,0.0,0.0,0.0,0.0,0.0,0.0,0.0,0.0,0.0,0.0,0.0,0.0,0.0,0.0,0.0,0.0,0.0,0.0,0.0,0.0,0.0,0.0,0.0,0.0,0.0,0.0,0.0,0.0,0.0,0.0,8.4969,8.8632,9.1601,9.3019,9.1916,9.1667,9.3085,9.0535,8.7752,0.0,0.0,0.0,0.0,0.0,0.0,0.0,0.0,0.0,0.0,0.0,0.0,0.0,0.0,0.0,0.0,0.0,0.0,0.0,0.0,0.0,0.0,0.0,0.0,0.0,0.0,0.0,0.0,0.0,0.0,0.0,0.0,0.0,0.0,0.0,0.0,0.0,0.0,0.0,0.0,0.0,0.0,0.0,0.0,0.0,0.0,0.0,0.0,0.0,0.0,0.0,0.0,0.0,0.0,0.0,0.0,0.0,0.0,0.0,0.0,0.0,0.0,0.0,0.0,0.0,0.0,0.0,0.0,0.0,0.0,0.0,0.0,0.0,0.0,0.0,0.0,0.0,0.0,0.0,0.0,0.0,0.0,0.0,0.0,0.0,0.0,0.0,0.0,0.0,0.0,0.0,0.0,0.0,0.0,0.0,0.0,0.0,0.0,0.0,0.0,0.0,0.0,0.0,8.5715,8.7836,8.975,0.0,9.1221,9.1155,9.1601,8.9943,8.7755,8.5158,0.0,0.0,0.0,0.0,0.0,0.0,0.0,0.0,0.0,0.0,0.0,0.0,0.0,0.0,0.0,0.0,0.0,0.0,0.0,0.0,0.0,0.0,0.0,0.0,0.0,0.0,0.0,0.0,0.0,0.0,0.0,0.0,0.0,0.0,0.0,0.0,0.0,0.0,0.0,0.0,0.0,0.0,0.0,0.0,0.0,0.0,0.0,0.0,0.0,0.0,0.0,0.0,0.0,0.0,0.0,0.0,0.0,0.0,0.0,0.0,0.0,0.0,0.0,0.0,0.0,0.0,0.0,0.0,0.0,0.0,0.0,0.0,0.0,0.0,0.0,0.0,0.0,0.0,0.0,0.0,0.0,0.0,0.0,0.0,0.0,0.0,0.0,0.0,0.0,0.0,0.0,0.0,0.0,0.0,0.0,0.0,0.0,0.0,0.0,0.0,0.0,0.0,0.0,8.6787,8.8446,0.0,8.9798,8.9746,9.0259,8.8577,8.6628,8.4605,0.0,0.0,0.0,0.0,0.0,0.0,0.0,0.0,0.0,0.0,0.0,0.0,0.0,0.0,0.0,0.0,0.0,0.0,0.0,0.0,0.0,0.0,0.0,0.0,0.0,0.0,0.0,0.0,0.0,0.0,0.0,0.0,0.0,0.0,0.0,0.0,0.0,0.0,0.0,0.0,0.0,0.0,0.0,0.0,0.0,0.0,0.0,0.0,0.0,0.0,0.0,0.0,0.0,0.0,0.0,0.0,0.0,0.0,0.0,0.0,0.0,0.0,0.0,0.0,0.0,0.0,0.0,0.0,0.0,0.0,0.0,0.0,0.0,0.0,0.0,0.0,0.0,0.0,0.0,0.0,0.0,0.0,0.0,0.0,0.0,0.0,0.0,0.0,0.0,0.0,0.0,0.0,0.0,0.0,0.0,0.0,0.0,0.0,0.0,0.0,0.0,0.0,0.0,8.5548,8.7581,8.8981,8.7871,8.762,8.8967,8.6853,8.4881,8.3321,7.9318,0.0,0.0,0.0,0.0,0.0,0.0,0.0,0.0,0.0,0.0,0.0,0.0,0.0,0.0,0.0,0.0,0.0,0.0,0.0,0.0,0.0,0.0,0.0,0.0,0.0,0.0,0.0,0.0,0.0,0.0,0.0,0.0,0.0,0.0,0.0,0.0,0.0,0.0,0.0,0.0,0.0,0.0,0.0,0.0,0.0,0.0,0.0,0.0,0.0,0.0,0.0,0.0,0.0,0.0,0.0,0.0,0.0,0.0,0.0,0.0,0.0,0.0,0.0,0.0,0.0,0.0,0.0,0.0,0.0,0.0,0.0,0.0,0.0,0.0,0.0,0.0,0.0,0.0,0.0,0.0,0.0,0.0,0.0,0.0,0.0,0.0,0.0,0.0,0.0,0.0,0.0,0.0,0.0,0.0,0.0,0.0,0.0,0.0,0.0,0.0,0.0,0.0,8.519,8.7161,8.7809,8.7596,8.753,8.7848,8.7317,8.5467,8.1986,7.973,0.0,0.0,0.0,0.0,0.0,0.0,0.0,0.0,0.0,0.0,0.0,0.0,0.0,0.0,0.0,0.0,0.0,0.0,0.0,0.0,0.0,0.0,0.0,0.0,0.0,0.0,0.0,0.0,0.0,0.0,0.0,0.0,0.0,0.0,0.0,0.0,0.0,0.0,0.0,0.0,0.0,0.0,0.0,0.0,0.0,0.0,0.0,0.0,0.0,0.0,0.0,0.0,0.0,0.0,0.0,0.0,0.0,0.0,0.0,0.0,0.0,0.0,0.0,0.0,0.0,0.0,0.0,0.0,0.0,0.0,0.0,0.0,0.0,0.0,0.0,0.0,0.0,0.0,0.0,0.0,0.0,0.0,0.0,0.0,0.0,0.0,0.0,0.0,0.0,0.0,0.0,0.0,0.0,0.0,0.0,0.0,0.0,0.0,0.0,0.0,0.0,0.0,8.3036,8.5715,8.7484,8.762,8.762,8.762,8.7138,8.5264,8.1657,7.8793,0.0,0.0,0.0,0.0,0.0,0.0,0.0,0.0,0.0,0.0,0.0,0.0,0.0,0.0,0.0,0.0,0.0,0.0,0.0,0.0,0.0,0.0,0.0,0.0,0.0,0.0,0.0,0.0,0.0,0.0,0.0,0.0,0.0,0.0,0.0,0.0,0.0,0.0,0.0,0.0,0.0,0.0,0.0,0.0,0.0,0.0,0.0,0.0,0.0,0.0,0.0,0.0,0.0,0.0,0.0,0.0,0.0,0.0,0.0,0.0,0.0,0.0,0.0,0.0,0.0,0.0,0.0,0.0,0.0,0.0,0.0,0.0,0.0,0.0,0.0,0.0,0.0,0.0,0.0,0.0,0.0,0.0,0.0,0.0,0.0,0.0,0.0,0.0,0.0,0.0,0.0,0.0,0.0,0.0,0.0,0.0,0.0,0.0,0.0,0.0,0.0,0.0,0.0,8.3683,8.6741,8.7195,8.7239,8.7239,8.6398,8.4438,8.1333,0.0,0.0,0.0,0.0,0.0,0.0,0.0,0.0,0.0,0.0,0.0,0.0,0.0,0.0,0.0,0.0,0.0,0.0,0.0,0.0,0.0,0.0,0.0,0.0,0.0,0.0,0.0,0.0,0.0,0.0,0.0,0.0,0.0,0.0,0.0,0.0,0.0,0.0,0.0,0.0,0.0,0.0,0.0,0.0,0.0,0.0,0.0,0.0,0.0,0.0,0.0,0.0,0.0,0.0,0.0,0.0,0.0,0.0,0.0,0.0,0.0,0.0,0.0,0.0,0.0,0.0,0.0,0.0,0.0,0.0,0.0,0.0,0.0,0.0,0.0,0.0,0.0,0.0,0.0,0.0,0.0,0.0,0.0,0.0,0.0,0.0,0.0,0.0,0.0,0.0,0.0,0.0,0.0,0.0,0.0,0.0,0.0,0.0,0.0,0.0,0.0,0.0,0.0,0.0,8.1664,8.339,8.4158,8.4596,8.4596,8.4365,8.2752,7.9087,0.0,0.0,0.0,0.0,0.0,0.0,0.0,0.0,0.0,0.0,0.0,0.0,0.0,0.0]}],[{"header":{"parameterUnit":"kt","parameterCategory":2,"dx":1,"dy":1,"la1":29.285339999999998,"la2":30.599998999999997,"lo1":-89.70041500000002,"lo2":-87.6738589999976,"nx":112,"ny":82,"refTime":"2022-09-22T06:00:00:Z","depth":0,"parameterNumber":2,"parameterNumberName":"V-component_of_WINDS"},"data":[9.0239,8.9304,8.8198,8.8198,8.6657,8.5052,8.4801,8.265,8.0622,8.0247,7.8537,7.7154,7.7461,7.5825,7.4656,7.5331,7.4563,7.3841,0.0,7.3841,7.4121,7.4797,7.6759,7.8917,8.1215,8.2717,8.5048,8.8753,9.0329,9.2973,9.7162,9.8494,10.069,10.4253,10.5508,10.6665,10.7705,10.8743,10.9245,10.9245,10.9245,10.9245,10.9245,10.9245,10.9245,10.9245,10.9245,10.9245,10.9245,10.9245,10.9245,10.9245,10.9245,10.9245,10.9245,10.9245,10.9245,10.9245,10.9245,10.9245,10.9245,10.9245,10.9245,10.9245,10.9245,10.9245,10.9147,10.8792,10.8952,10.9147,10.8792,10.8988,10.9245,10.9245,10.9245,10.9245,10.9245,10.9245,10.9245,10.9245,10.9245,10.9245,10.9245,10.9245,10.9245,10.9245,10.9245,10.9245,10.9245,10.9245,10.9245,10.9245,10.9245,10.9245,10.9245,10.9245,10.9245,10.9245,10.9245,10.9245,10.9245,10.9245,10.9391,10.9782,10.944,10.944,10.9782,10.944,10.9245,10.9245,10.9245,10.9245,8.7544,8.6921,8.608,8.5706,8.41,8.237,8.1744,7.9733,7.7929,7.7555,7.6359,7.5518,7.5872,7.4823,7.3654,7.2901,7.3394,7.3373,0.0,7.2999,7.4402,7.5799,7.8497,8.1143,8.3448,8.5316,8.7776,9.1054,9.2737,9.5032,9.8381,9.9958,10.209,10.4922,10.6045,10.7168,10.8207,10.889,10.9245,10.9245,10.9245,10.9245,10.9245,10.9245,10.9245,10.9245,10.9245,10.9245,10.9245,10.9245,10.9245,10.9245,10.9245,10.9245,10.9245,10.9245,10.9245,10.9245,10.9245,10.9245,10.9245,10.9245,10.9245,10.9245,10.9245,10.9245,10.9245,10.9245,10.9245,10.9245,10.9245,10.9245,10.9245,10.9245,10.9245,10.9245,10.9245,10.9245,10.9245,10.9245,10.9245,10.9245,10.9245,10.9245,10.9245,10.9245,10.9245,10.9245,10.9245,10.9245,10.9245,10.9245,10.9245,10.9245,10.9245,10.9245,10.9245,10.9245,10.9245,10.9245,10.9245,10.9245,10.9245,10.9245,10.9245,10.9245,10.9245,10.9245,10.9245,10.9245,10.9245,10.9245,8.4724,8.3755,8.2802,8.1819,8.0014,7.8517,7.849,7.7695,7.6667,7.5612,7.5425,7.5051,7.4075,7.3934,7.2625,6.8578,7.1337,0.0,0.0,7.1384,7.4729,7.69,7.9873,8.2827,8.5691,8.8047,9.0237,9.2394,9.4787,9.7191,9.9682,10.1731,10.3912,10.6128,10.7168,10.8158,10.9196,10.9245,10.9245,10.9245,10.9245,10.9245,10.9245,10.9245,10.9245,10.9245,10.9245,10.9245,10.9245,10.9245,10.9245,10.9245,10.9245,10.9245,10.9245,10.9245,10.9245,10.9245,10.9245,10.9245,10.9245,10.9245,10.9245,10.9245,10.9245,10.9245,10.9245,10.9245,10.9245,10.9245,10.9245,10.9245,10.9245,10.9245,10.9245,10.9245,10.9245,10.9245,10.9245,10.9245,10.9245,10.9245,10.9245,10.9245,10.9245,10.9245,10.9245,10.9245,10.9245,10.9245,10.9245,10.9245,10.9245,10.9245,10.9245,10.9245,10.9245,10.9245,10.9245,10.9245,10.9245,10.9245,10.9245,10.9245,10.9245,10.9245,10.9245,10.9245,10.9245,10.9245,10.9245,10.9245,8.2305,8.1136,7.9733,7.9452,7.8985,7.8303,7.7602,7.6593,7.5752,7.5472,7.4843,0.0,0.0,0.0,7.4864,7.449,0.0,7.5732,7.4584,7.475,7.662,8.0977,8.282,8.565,9.0452,9.1936,9.4014,9.7427,9.7885,9.9159,10.1844,10.3243,10.4985,10.7168,10.7558,10.8158,10.9196,10.9245,10.9245,10.9245,10.9245,10.9245,10.9245,10.9245,10.9245,10.9245,10.9245,10.9245,10.9245,10.9245,10.9245,10.9245,10.9245,10.9245,10.9245,10.9245,10.9245,10.9245,10.9245,10.9245,10.9245,10.9245,10.9245,10.9245,10.9245,10.9245,10.9245,10.9245,10.9245,10.9245,10.9245,10.9245,10.9245,10.9245,10.9245,10.9245,10.9245,10.9245,10.9245,10.9245,10.9245,10.9245,10.9245,10.9245,10.9245,10.9245,10.9245,10.9245,10.9245,10.9245,10.9245,10.9245,10.9245,10.9245,10.9245,10.9245,10.9245,10.9245,10.9245,10.9245,10.9245,10.9245,10.9245,10.9245,10.9245,10.9245,10.9245,10.9245,10.9245,10.9245,10.9245,10.9245,7.964,7.8798,7.7789,7.7321,7.7228,7.6947,7.5919,7.5217,7.489,7.5305,0.0,0.0,0.0,0.0,0.0,0.0,7.5892,7.6854,7.4703,7.648,7.9472,8.3287,8.4909,8.7502,9.2042,9.4661,9.7256,10.0137,10.0585,10.1504,10.3356,10.4936,10.6352,10.7656,10.8109,10.8646,10.9245,10.9245,10.9245,10.9245,10.9245,10.9245,10.9245,10.9245,10.9245,10.9245,10.9245,10.9245,10.9245,10.9245,10.9245,10.9245,10.9245,10.9245,10.9245,10.9245,10.9245,10.9245,10.9245,10.9245,10.9245,10.9245,10.9245,10.9245,10.9245,10.9245,10.9245,10.9245,10.9245,10.9245,10.9245,10.9245,10.9245,10.9245,10.9245,10.9245,10.9245,10.9245,10.9245,10.9245,10.9245,10.9245,10.9245,10.9245,10.9245,10.9245,10.9245,10.9245,10.9245,10.9245,10.9245,10.9245,10.9245,10.9245,10.9245,10.9245,10.9245,10.9245,10.9245,10.9245,10.9245,10.9245,10.9245,10.9245,10.9245,10.9245,10.9245,10.9245,10.9245,10.9245,10.9245,10.9245,7.7087,7.6687,7.6406,7.5472,7.5238,7.5051,7.4215,0.0,7.4355,7.5518,0.0,7.5939,7.7107,0.0,0.0,7.1499,7.5545,7.7602,7.2974,7.8424,8.3521,8.5268,8.7103,8.9382,9.2331,9.6552,9.9835,10.1518,10.2802,10.3865,10.4707,10.6596,10.7754,10.79,10.8792,10.9245,10.9245,10.9245,10.9245,10.9245,10.9245,10.9245,10.9245,10.9245,10.9245,10.9245,10.9245,10.9245,10.9245,10.9245,10.9245,10.9245,10.9245,10.9245,10.9245,10.9245,10.9245,10.9245,10.9245,10.9245,10.9245,10.9245,10.9245,10.9245,10.9245,10.9245,10.9245,10.9245,10.9245,10.9245,10.9245,10.9245,10.9245,10.9245,10.9245,10.9245,10.9245,10.9245,10.9245,10.9245,10.9245,10.9245,10.9245,10.9245,10.9245,10.9245,10.9245,10.9245,10.9245,10.9245,10.9245,10.9245,10.9245,10.9245,10.9245,10.9245,10.9245,10.9245,10.9245,10.9245,10.9245,10.9245,10.9245,10.9245,10.9245,10.9245,10.9245,10.9245,10.9245,10.9245,10.9245,10.9245,7.5799,7.5124,7.4402,7.4215,7.4168,7.4355,0.0,0.0,0.0,7.7555,7.7274,7.7247,7.9125,7.9499,7.9686,8.0416,8.2118,8.3042,8.2043,8.6717,9.0411,9.0785,9.2596,9.4556,9.6313,9.8103,10.0446,10.3566,10.402,10.5044,10.6938,10.7461,10.806,10.8939,10.9183,10.9245,10.9245,10.9245,10.9245,10.9245,10.9245,10.9245,10.9245,10.9245,10.9245,10.9245,10.9245,10.9245,10.9245,10.9245,10.9245,10.9245,10.9245,10.9245,10.9245,10.9245,10.9245,10.9245,10.9245,10.9245,10.9245,10.9245,10.9245,10.9245,10.9245,10.9245,10.9245,10.9245,10.9245,10.9245,10.9245,10.9245,10.9245,10.9245,10.9245,10.9245,10.9245,10.9245,10.9245,10.9245,10.9245,10.9245,10.9245,10.9245,10.9245,10.9245,10.9245,10.9245,10.9245,10.9245,10.9245,10.9245,10.9245,10.9245,10.9245,10.9245,10.9245,10.9245,10.9245,10.9245,10.9245,10.9245,10.9245,10.9245,10.9245,10.9245,10.9245,10.9245,10.9245,10.9245,10.9245,10.9245,7.4797,7.4262,7.3841,7.3841,7.4262,0.0,0.0,7.6219,7.7087,8.0201,8.006,8.0079,8.2622,8.3089,8.3276,8.3802,8.5128,8.6874,8.8961,9.1486,9.3122,9.3122,9.4807,9.6564,9.8228,9.9665,10.1586,10.4185,10.5425,10.6533,10.7656,10.8158,10.8695,10.9196,10.9245,10.9245,10.9245,10.9245,10.9245,10.9245,10.9245,10.9245,10.9245,10.9245,10.9245,10.9245,10.9245,10.9245,10.9245,10.9245,10.9245,10.9245,10.9245,10.9245,10.9245,10.9245,10.9245,10.9245,10.9245,10.9245,10.9245,10.9245,10.9245,10.9245,10.9245,10.9245,10.9245,10.9245,10.9245,10.9245,10.9245,10.9245,10.9245,10.9245,10.9245,10.9245,10.9245,10.9245,10.9245,10.9245,10.9245,10.9245,10.9245,10.9245,10.9245,10.9245,10.9245,10.9245,10.9245,10.9245,10.9245,10.9245,10.9245,10.9245,10.9245,10.9245,10.9245,10.9245,10.9245,10.9245,10.9245,10.9245,10.9245,10.9245,10.9245,10.9245,10.9245,10.9245,10.9245,10.9245,10.9245,10.9245,7.4075,7.3841,7.3841,7.3841,7.4656,0.0,7.6733,7.7461,7.8911,8.2708,8.2989,8.3305,8.5956,8.644,8.6253,8.5846,8.7341,8.9912,9.3669,9.437,9.4511,9.4511,9.5864,9.7534,9.9349,10.0999,10.2673,10.4371,10.6478,10.7802,10.7963,10.8792,10.9245,10.9245,10.9245,10.9245,10.9245,10.9245,10.9245,10.9245,10.9245,10.9245,10.9245,10.9245,10.9245,10.9245,10.9245,10.9245,10.9245,10.9245,10.9245,10.9245,10.9245,10.9245,10.9245,10.9245,10.9245,10.9245,10.9245,10.9245,10.9245,10.9245,10.9245,10.9245,10.9245,10.9245,10.9245,10.9245,10.9245,10.9245,10.9245,10.9245,10.9245,10.9245,10.9245,10.9245,10.9245,10.9245,10.9245,10.9245,10.9245,10.9245,10.9245,10.9245,10.9245,10.9245,10.9245,10.9245,10.9245,10.9245,10.9245,10.9245,10.9245,10.9245,10.9245,10.9245,10.9245,10.9245,10.9245,10.9245,10.9245,10.9245,10.9245,10.9245,10.9245,10.9245,10.9245,10.9245,10.9245,10.9245,10.9245,10.9245,7.3913,7.3841,7.3841,7.3841,7.4656,0.0,7.6733,7.9125,8.1744,8.3959,8.5022,8.5973,8.7234,8.7498,8.8058,8.9818,9.1033,9.2608,9.4931,9.6087,9.6649,9.6649,9.7665,9.9004,10.0716,10.1698,10.2982,10.478,10.6638,10.806,10.9036,10.9147,10.9245,10.9245,10.9245,10.9245,10.9245,10.9245,10.9245,10.9245,10.9245,10.9245,10.9245,10.9245,10.9245,10.9245,10.9245,10.9245,10.9245,10.9245,10.9245,10.9245,10.9245,10.9245,10.9245,10.9245,10.9245,10.9245,10.9245,10.9245,10.9245,10.9245,10.9245,10.9245,10.9245,10.9245,10.9245,10.9245,10.9245,10.9245,10.9245,10.9245,10.9245,10.9245,10.9245,10.9245,10.9245,10.9245,10.9245,10.9245,10.9245,10.9245,10.9245,10.9245,10.9245,10.9245,10.9245,10.9245,10.9245,10.9245,10.9245,10.9245,10.9245,10.9245,10.9245,10.9245,10.9245,10.9245,10.9245,10.9245,10.9245,10.9245,10.9245,10.9245,10.9245,10.9245,10.9245,10.9245,10.9245,10.9245,10.9245,10.9245,7.3841,7.3841,7.4028,7.461,0.0,0.0,7.9144,8.1164,8.3457,8.6594,8.7591,8.8619,9.0846,9.1267,9.1766,9.3295,9.437,9.5539,9.7083,9.8158,9.8813,9.8813,9.9748,10.0777,10.1853,10.2285,10.3411,10.5716,10.6585,10.77,10.9147,10.9245,10.9245,10.9245,10.9245,10.9245,10.9245,10.9245,10.9245,10.9245,10.9245,10.9245,10.9245,10.9245,10.9245,10.9245,10.9245,10.9245,10.9245,10.9245,10.9245,10.9245,10.9245,10.9245,10.9245,10.9245,10.9245,10.9245,10.9245,10.9245,10.9245,10.9245,10.9245,10.9245,10.9245,10.9245,10.9245,10.9245,10.9245,10.9245,10.9245,10.9245,10.9245,10.9245,10.9245,10.9245,10.9245,10.9245,10.9245,10.9245,10.9245,10.9245,10.9245,10.9245,10.9245,10.9245,10.9245,10.9245,10.9245,10.9245,10.9245,10.9245,10.9245,10.9245,10.9245,10.9245,10.9245,10.9245,10.9245,10.9245,10.9245,10.9245,10.9245,10.9245,10.9245,10.9245,10.9245,10.9245,10.9245,10.9245,10.9245,10.9245,7.3794,0.0,0.0,0.0,0.0,0.0,8.1445,8.3287,8.5438,8.893,9.0099,9.1267,9.3856,9.4324,9.4744,9.6101,9.7176,9.8111,9.8872,9.9854,10.0508,10.0508,10.1198,10.1972,10.2738,10.2951,10.3978,10.614,10.6733,10.7532,10.8841,10.9138,10.9245,10.9245,10.9245,10.9245,10.9245,10.9245,10.9245,10.9245,10.9245,10.9245,10.9245,10.9245,10.9245,10.9245,10.9245,10.9245,10.9245,10.9245,10.9245,10.9245,10.9245,10.9245,10.9245,10.9245,10.9245,10.9245,10.9245,10.9245,10.9245,10.9245,10.9245,10.9245,10.9245,10.9245,10.9245,10.9245,10.9245,10.9245,10.9245,10.9245,10.9245,10.9245,10.9245,10.9245,10.9245,10.9245,10.9245,10.9245,10.9245,10.9245,10.9245,10.9245,10.9245,10.9245,10.9245,10.9245,10.9245,10.9245,10.9245,10.9245,10.9245,10.9245,10.9245,10.9245,10.9245,10.9245,10.9245,10.9245,10.9245,10.9245,10.9245,10.9245,10.9245,10.9245,10.9245,10.9245,10.9245,10.9245,10.9245,10.9245,0.0,0.0,0.0,7.664,7.8443,8.0528,8.2661,8.5409,8.8152,9.0286,9.2327,9.409,9.5165,9.5399,9.6054,9.8124,9.9339,9.9994,10.0041,10.0964,10.1619,10.1619,10.1666,10.2075,10.3094,10.375,10.4605,10.5717,10.7183,10.8056,10.814,10.8854,10.9245,10.9245,10.9245,10.9245,10.9245,10.9245,10.9245,10.9245,10.9245,10.9245,10.9245,10.9245,10.9245,10.9245,10.9245,10.9245,10.9245,10.9245,10.9245,10.9245,10.9245,10.9245,10.9245,10.9245,10.9245,10.9245,10.9245,10.9245,10.9245,10.9245,10.9245,10.9245,10.9245,10.9245,10.9245,10.9245,10.9245,10.9245,10.9245,10.9245,10.9245,10.9245,10.9245,10.9245,10.9245,10.9245,10.9245,10.9245,10.9245,10.9245,10.9245,10.9245,10.9245,10.9245,10.9245,10.9245,10.9245,10.9245,10.9245,10.9245,10.9245,10.9245,10.9245,10.9245,10.9245,10.9245,10.9245,10.9245,10.9245,10.9245,10.9245,10.9245,10.9245,10.9245,10.9245,10.9245,10.9245,10.9245,10.9245,10.9245,7.356,7.5124,7.6687,7.7742,8.0107,8.2708,8.4678,8.7528,9.0145,9.1501,9.3449,9.5259,9.6274,9.7597,9.8766,9.948,10.0461,10.1151,10.1151,10.204,10.273,10.273,10.3219,10.3734,10.4108,10.4326,10.4829,10.5703,10.6257,10.6979,10.8032,10.8354,10.8711,10.9245,10.9245,10.9245,10.9245,10.9245,10.9245,10.9245,10.9245,10.9245,10.9245,10.9245,10.9245,10.9245,10.9245,10.9245,10.9245,10.9245,10.9245,10.9245,10.9245,10.9245,10.9245,10.9245,10.9245,10.9245,10.9245,10.9245,10.9245,10.9245,10.9245,10.9245,10.9245,10.9245,10.9245,10.9245,10.9245,10.9245,10.9245,10.9245,10.9245,10.9245,10.9245,10.9245,10.9245,10.9245,10.9245,10.9245,10.9245,10.9245,10.9245,10.9245,10.9245,10.9245,10.9245,10.9245,10.9245,10.9245,10.9245,10.9245,10.9245,10.9245,10.9245,10.9245,10.9245,10.9245,10.9245,10.9245,10.9245,10.9245,10.9245,10.9245,10.9245,10.9245,10.9245,10.9245,10.9245,10.9245,10.9245,10.9245,7.3934,7.5919,7.7882,7.9312,8.1949,8.4754,8.675,8.9366,9.1734,9.3122,9.4791,9.6288,9.7363,9.8953,10.0228,10.0637,10.1525,10.2227,10.2227,10.3068,10.3723,10.3723,10.4248,10.4585,10.4585,10.4585,10.4804,10.5314,10.5558,10.633,10.7602,10.7925,10.8426,10.9245,10.9245,10.9245,10.9245,10.9245,10.9245,10.9245,10.9245,10.9245,10.9245,10.9245,10.9245,10.9245,10.9245,10.9245,10.9245,10.9245,10.9245,10.9245,10.9245,10.9245,10.9245,10.9245,10.9245,10.9209,10.8925,10.9032,10.9209,10.8925,10.8854,10.8889,10.9174,10.9067,10.8925,10.9174,10.9245,10.9245,10.9245,10.9245,10.9245,10.9245,10.9245,10.9245,10.9245,10.9245,10.9245,10.9245,10.9245,10.9245,10.9245,10.9245,10.9245,10.9245,10.9245,10.9245,10.9245,10.9245,10.9245,10.9245,10.9245,10.9245,10.9245,10.9245,10.9245,10.9245,10.9245,10.9245,10.9245,10.9245,10.9245,10.9245,10.9245,10.9245,10.9245,10.9245,10.9245,10.9245,10.9245,10.9245,7.463,7.7087,7.9219,8.1276,8.4023,8.6813,8.8806,9.094,9.3028,9.5025,9.6321,9.7397,9.8451,9.948,10.0543,10.1572,10.2637,10.3292,10.3292,10.4014,10.4585,10.4585,10.4585,10.4585,10.4585,10.4585,10.4585,10.4585,10.5278,10.604,10.6811,10.7602,10.839,10.9174,10.9245,10.9245,10.9245,10.9245,10.9245,10.9245,10.9245,10.9245,10.9245,10.9245,10.9245,10.9245,10.9245,10.9245,10.9245,10.9245,10.9245,10.9245,10.9209,10.9209,10.9245,10.9209,10.9209,10.9103,10.8354,10.8568,10.8996,10.8283,10.8032,10.8175,10.896,10.8675,10.8247,10.8996,10.9209,10.9245,10.9209,10.9209,10.9245,10.9245,10.9245,10.9245,10.9245,10.9245,10.9245,10.9245,10.9245,10.9245,10.9245,10.9245,10.9245,10.9245,10.9245,10.9245,10.9245,10.9245,10.9245,10.9245,10.9245,10.9245,10.9245,10.9245,10.9245,10.9245,10.9245,10.9245,10.9245,10.9245,10.9245,10.9245,10.9245,10.9245,10.9245,10.9245,10.9245,10.9245,10.9245,10.9245,7.5518,7.8677,8.1323,8.3305,8.6126,8.8759,9.0099,9.2608,9.4791,9.5306,9.6896,9.8451,9.9526,10.059,10.1619,10.2648,10.3593,10.4212,10.4212,10.4398,10.4585,10.4585,10.4585,10.4585,10.4585,10.4585,10.4585,10.4585,10.4768,10.5242,10.6004,10.6763,10.7566,10.8354,10.896,10.9245,10.9245,10.9245,10.9245,10.9245,10.9245,10.9245,10.9245,10.9245,10.9245,10.9245,10.9245,10.9245,10.9245,10.9245,10.9245,10.9209,10.8604,10.8747,10.9174,10.8604,10.839,10.8354,10.8175,10.7817,10.7494,10.7279,10.7207,10.7351,10.814,10.8247,10.814,10.8318,10.8818,10.9138,10.8533,10.8818,10.9245,10.9245,10.9245,10.9245,10.9245,10.9245,10.9245,10.9245,10.9245,10.9245,10.9245,10.9245,10.9245,10.9245,10.9245,10.9245,10.9245,10.9245,10.9245,10.9245,10.9245,10.9245,10.9245,10.9245,10.9245,10.9245,10.9245,10.9245,10.9245,10.9245,10.9245,10.9245,10.9245,10.9245,10.9245,10.9245,10.9245,10.9245,10.9245,10.9245,7.4703,7.8564,8.2212,8.4631,8.7217,8.9631,9.1158,9.3496,9.5573,9.6007,9.7457,9.9012,10.0543,10.1291,10.2133,10.3583,10.4248,10.4585,10.4585,10.4585,10.4585,10.4585,10.4585,10.4585,10.4585,10.4585,10.4585,10.4585,10.4585,10.495,10.5703,10.6474,10.7135,10.7566,10.8675,10.8925,10.8247,10.8925,10.9103,10.8747,10.9103,10.9245,10.9245,10.9245,10.9245,10.9245,10.9245,10.9067,10.8782,10.9138,10.9067,10.8711,10.8247,10.8568,10.9138,10.7997,10.7782,10.7997,10.7303,10.6979,10.6847,10.6474,10.6402,10.6582,10.7746,10.7853,10.771,10.8426,10.8925,10.9174,10.8711,10.8925,10.9245,10.9245,10.9245,10.9245,10.9245,10.9245,10.9245,10.9245,10.9245,10.9245,10.9245,10.9245,10.9245,10.9245,10.9245,10.9245,10.9245,10.9245,10.9245,10.9245,10.9245,10.9245,10.9245,10.9245,10.9245,10.9245,10.9245,10.9245,10.9245,10.9245,10.9245,10.9245,10.9245,10.9245,10.9245,10.9245,10.9245,10.9245,10.9245,10.9245,7.37,7.789,8.2399,8.5723,8.7871,8.9818,9.2047,9.4043,9.5726,9.6789,9.7831,9.9152,10.1104,10.1572,10.2273,10.4108,10.4492,10.4585,10.4585,10.4585,10.4585,10.4585,10.4585,10.4585,10.4585,10.4585,10.4585,10.4585,10.4585,10.4877,10.5522,10.633,10.6774,10.6774,10.8283,10.839,10.6919,10.8461,10.8854,10.8104,10.8889,10.9245,10.9245,10.9245,10.9209,10.9103,10.9103,10.8711,10.814,10.8818,10.8782,10.8211,10.814,10.8568,10.9067,10.7638,10.7494,10.7877,10.6546,10.6366,10.6666,10.6113,10.5812,10.6076,10.759,10.753,10.7243,10.8711,10.9103,10.9103,10.9103,10.9174,10.9245,10.9245,10.9245,10.9245,10.9245,10.9245,10.9245,10.9245,10.9245,10.9245,10.9245,10.9245,10.9245,10.9245,10.9245,10.9245,10.9245,10.9245,10.9245,10.9245,10.9245,10.9245,10.9245,10.9245,10.9245,10.9245,10.9245,10.9245,10.9245,10.9245,10.9245,10.9245,10.9245,10.9245,10.9245,10.9245,10.9245,10.9245,10.9245,10.9245,7.5872,7.8985,8.2773,8.7528,8.8946,9.0005,9.2935,9.4557,9.5726,9.6789,9.7831,9.8919,10.0134,10.1104,10.204,10.3255,10.4108,10.4585,10.4585,10.4585,10.4585,10.4585,10.4585,10.4585,10.4585,10.4585,10.4585,10.4585,10.4585,10.4658,10.4768,10.5532,10.5968,10.5968,10.7446,10.7853,10.6919,10.8461,10.8854,10.8104,10.8889,10.9245,10.9245,10.9245,10.8925,10.8283,10.8283,10.8211,10.8104,10.8211,10.8604,10.8996,10.8354,10.8568,10.9138,10.8211,10.7961,10.8068,10.7782,10.6907,10.604,10.651,10.6257,10.6076,10.759,10.753,10.7099,10.8032,10.8283,10.8283,10.8283,10.8782,10.9245,10.9245,10.9245,10.9245,10.9245,10.9245,10.9245,10.9245,10.9245,10.9245,10.9245,10.9245,10.9245,10.9245,10.9245,10.9245,10.9245,10.9245,10.9245,10.9245,10.9245,10.9245,10.9245,10.9245,10.9245,10.9245,10.9245,10.9245,10.9245,10.9245,10.9245,10.9245,10.9245,10.9245,10.9245,10.9245,10.9245,10.9245,10.9245,10.9245,7.69,7.9686,8.2381,8.5345,8.7699,9.0052,9.3169,9.4698,9.5586,9.6087,9.7457,9.8732,9.9199,10.059,10.1993,10.3058,10.3967,10.4585,10.4585,10.4585,10.4585,10.4585,10.4585,10.4585,10.4585,10.4585,10.4585,10.4585,10.4585,10.4585,10.4585,10.5304,10.5522,10.5169,10.6655,10.6919,10.5714,10.7231,10.7853,10.7494,10.8283,10.8854,10.9245,10.9245,10.8818,10.8104,10.8104,10.7853,10.753,10.8354,10.8675,10.8604,10.8247,10.8568,10.9138,10.7925,10.7746,10.8032,10.7638,10.6727,10.5775,10.6185,10.6076,10.5848,10.6655,10.7159,10.7602,10.7997,10.839,10.8711,10.8711,10.8996,10.9245,10.9245,10.9245,10.9245,10.9245,10.9245,10.9245,10.9245,10.9245,10.9245,10.9245,10.9245,10.9245,10.9245,10.9245,10.9245,10.9245,10.9245,10.9245,10.9245,10.9245,10.9245,10.9245,10.9245,10.9245,10.9245,10.9245,10.9245,10.9245,10.8854,10.8854,10.9245,10.9245,10.9245,10.9245,10.9245,10.9245,10.9245,10.9245,10.9245,7.69,7.9733,8.1819,8.2661,8.5876,8.9725,9.2841,9.4183,9.4838,9.5072,9.6755,9.8264,9.8498,10.0041,10.1666,10.2694,10.364,10.4352,10.4539,10.4585,10.4585,10.4585,10.4585,10.4585,10.4585,10.4585,10.4585,10.4585,10.4585,10.4585,10.4585,10.5169,10.5242,10.4622,10.5932,10.5968,10.4622,10.616,10.6919,10.6919,10.771,10.8497,10.9245,10.9103,10.8675,10.8068,10.7746,10.7195,10.6774,10.7948,10.8306,10.8104,10.8104,10.8568,10.9103,10.7889,10.7817,10.8247,10.7638,10.6871,10.6246,10.6427,10.6293,10.6076,10.6354,10.7123,10.7925,10.8247,10.8675,10.9032,10.9209,10.9245,10.9245,10.9245,10.9245,10.9245,10.9245,10.9245,10.9245,10.9245,10.9245,10.9245,10.9245,10.9245,10.9245,10.9245,10.9245,10.9245,10.9245,10.9245,10.9245,10.9245,10.9245,10.9245,10.9245,10.9245,10.9174,10.9032,10.8996,10.8996,10.8996,10.8247,10.8211,10.8996,10.8996,10.8996,10.8996,10.9174,10.9174,10.8996,10.9174,10.9245,7.5331,7.8583,8.1679,8.1772,8.4848,8.8619,9.1766,9.2561,9.2888,9.3823,9.568,9.741,9.8358,9.948,10.059,10.1619,10.2648,10.363,10.4445,10.4585,10.4585,10.4585,10.4585,10.4585,10.4585,10.4585,10.4585,10.4585,10.4585,10.4585,10.4585,10.4658,10.4658,10.4585,10.5423,10.546,10.4585,10.616,10.6919,10.6919,10.771,10.8497,10.9245,10.8533,10.814,10.8032,10.6582,10.5932,10.5848,10.5993,10.6871,10.8104,10.8104,10.8568,10.9245,10.9103,10.9103,10.9138,10.9067,10.8533,10.7997,10.8711,10.7997,10.7099,10.8449,10.8068,10.7315,10.8747,10.8711,10.8354,10.9067,10.9245,10.9245,10.9245,10.9245,10.9245,10.9245,10.9245,10.9245,10.9245,10.9245,10.9245,10.9245,10.9245,10.9245,10.9245,10.9245,10.9245,10.9245,10.9245,10.9245,10.9245,10.9245,10.9245,10.9245,10.9245,10.896,10.8247,10.8211,10.8211,10.8211,10.7423,10.7387,10.8175,10.8211,10.8211,10.8211,10.8925,10.8889,10.8211,10.8925,10.9245,7.5732,7.849,8.0884,8.1492,8.424,8.7217,8.9086,9.0005,9.108,9.3402,9.6054,9.7878,9.7644,9.8486,9.9526,10.059,10.1619,10.2601,10.363,10.4212,10.4585,10.4585,10.4585,10.4585,10.4585,10.4585,10.4585,10.4585,10.4585,10.4585,10.4585,10.4585,10.4585,10.4585,10.4914,10.4914,10.4585,10.5205,10.575,10.6221,10.7027,10.753,10.7853,10.8032,10.7554,10.6655,10.604,10.5739,10.5775,10.6257,10.7051,10.8104,10.8104,10.8568,10.9245,10.9245,10.9245,10.9245,10.9245,10.8747,10.814,10.8461,10.7817,10.7027,10.7674,10.7746,10.7746,10.839,10.8675,10.8854,10.9174,10.9245,10.9245,10.9245,10.9245,10.9245,10.9245,10.9245,10.9245,10.9245,10.9245,10.9245,10.9245,10.9245,10.9245,10.9245,10.9245,10.9245,10.9245,10.8854,10.8568,10.8568,10.8568,10.8568,10.8568,10.8568,10.8426,10.8104,10.7638,10.7159,10.6691,10.6366,10.6582,10.7351,10.7387,10.7387,10.7387,10.771,10.7674,10.7423,10.8175,10.8568,7.4984,7.7555,7.978,8.0528,8.2978,8.5582,8.6937,8.8012,8.9491,9.2,9.5226,9.7376,9.6662,9.741,9.8404,9.948,10.0508,10.1666,10.3022,10.4014,10.4585,10.4585,10.4585,10.4585,10.4585,10.4585,10.4585,10.4585,10.4585,10.4585,10.4585,10.4585,10.4585,10.4585,10.4585,10.4585,10.4585,10.4585,10.4987,10.5739,10.651,10.6811,10.6546,10.7123,10.6799,10.5703,10.5485,10.5376,10.5413,10.6004,10.6847,10.7746,10.7746,10.8354,10.9245,10.9245,10.9245,10.9245,10.9245,10.8889,10.839,10.8175,10.7566,10.6955,10.7207,10.7494,10.7817,10.8318,10.8818,10.9245,10.9245,10.9103,10.896,10.9209,10.9245,10.9245,10.9245,10.9245,10.9245,10.9245,10.9245,10.9245,10.9245,10.9245,10.9245,10.9245,10.9245,10.9174,10.8925,10.8426,10.7997,10.7746,10.7961,10.7997,10.7746,10.7961,10.7889,10.7411,10.6835,10.6221,10.546,10.5376,10.5786,10.6546,10.6546,10.6546,10.6546,10.6811,10.6811,10.6546,10.7387,10.7746,7.2344,7.5358,7.8537,7.8537,8.0902,8.3737,8.5676,8.6907,8.7965,8.9039,9.2561,9.5446,9.5446,9.6321,9.7316,9.8404,9.9433,10.0871,10.2917,10.4014,10.4585,10.4585,10.4585,10.4585,10.4585,10.4585,10.4585,10.4585,10.4585,10.4585,10.4585,10.4585,10.4585,10.4585,10.4585,10.4585,10.4585,10.4585,10.4987,10.5739,10.651,10.6474,10.5739,10.5739,10.5739,10.5703,10.495,10.4585,10.4585,10.4622,10.5496,10.6919,10.6919,10.7889,10.9245,10.9245,10.9245,10.9245,10.9245,10.9245,10.9138,10.8354,10.7566,10.7063,10.7817,10.753,10.7243,10.8818,10.9245,10.9245,10.9245,10.8675,10.8318,10.9067,10.9245,10.9245,10.9245,10.9245,10.9245,10.9245,10.9245,10.9245,10.9245,10.9245,10.9245,10.9245,10.9245,10.8996,10.8211,10.8104,10.7782,10.7027,10.7638,10.7782,10.6991,10.7638,10.7411,10.5848,10.5739,10.5423,10.4622,10.4585,10.495,10.5739,10.5739,10.5739,10.5739,10.651,10.6558,10.5775,10.6546,10.6919,7.2132,7.4329,7.6733,7.8163,8.0341,8.2287,8.2884,8.5472,8.7778,8.8105,9.0332,9.2888,9.5072,9.5713,9.6521,9.8264,9.8825,9.9795,10.1853,10.3022,10.3874,10.4492,10.4585,10.4585,10.4585,10.4585,10.4585,10.4585,10.4585,10.4585,10.4585,10.4585,10.4585,10.4585,10.4585,10.4585,10.4585,10.4585,10.4695,10.495,10.575,10.5714,10.4987,10.5485,10.546,10.495,10.4695,10.4585,10.4585,10.4585,10.4877,10.5387,10.5895,10.6727,10.7674,10.7674,10.7674,10.7674,10.7674,10.7674,10.7638,10.7351,10.6727,10.6366,10.7662,10.753,10.7243,10.8818,10.8854,10.8354,10.7817,10.8283,10.8818,10.8533,10.8854,10.9245,10.9245,10.9245,10.9245,10.9245,10.9245,10.9245,10.9245,10.9245,10.9245,10.9245,10.8818,10.8354,10.814,10.7638,10.6991,10.6185,10.633,10.6402,10.6149,10.6366,10.6293,10.5775,10.5242,10.4841,10.4585,10.4585,10.4695,10.495,10.495,10.495,10.495,10.5205,10.5169,10.4987,10.575,10.6113,7.1665,7.3535,7.5845,7.7508,7.8938,8.0154,8.1398,8.3895,8.608,8.6454,8.8463,9.0893,9.3215,9.4651,9.5867,9.7176,9.803,9.9293,10.1385,10.2554,10.3536,10.4445,10.4585,10.4585,10.4585,10.4585,10.4585,10.4585,10.4585,10.4585,10.4585,10.4585,10.4585,10.4585,10.4585,10.4585,10.4585,10.4585,10.4585,10.4585,10.5096,10.506,10.4622,10.5096,10.506,10.4585,10.4585,10.4585,10.4585,10.4585,10.4585,10.4658,10.5413,10.6221,10.6919,10.6919,10.6919,10.6919,10.6919,10.6919,10.6847,10.6546,10.6149,10.592,10.6907,10.6835,10.6727,10.7984,10.8247,10.8032,10.7853,10.8318,10.8782,10.8568,10.8925,10.9245,10.9245,10.9245,10.9245,10.9245,10.9245,10.9245,10.9245,10.9245,10.9174,10.8854,10.839,10.7889,10.7267,10.6763,10.6185,10.5423,10.5267,10.5267,10.5267,10.5558,10.5594,10.5304,10.4877,10.4585,10.4585,10.4585,10.4585,10.4585,10.4585,10.4585,10.4585,10.4585,10.4585,10.4622,10.5096,10.5267,7.101,7.2995,7.5565,7.6713,7.6967,7.7742,8.065,8.224,8.3316,8.41,8.6687,8.9117,9.0239,9.2888,9.5025,9.5352,9.7129,9.9199,10.1338,10.2507,10.3489,10.4445,10.4585,10.4585,10.4585,10.4585,10.4585,10.4585,10.4585,10.4585,10.4585,10.4585,10.4585,10.4585,10.4585,10.4585,10.4585,10.4585,10.4585,10.4585,10.4585,10.4585,10.4585,10.4585,10.4585,10.4585,10.4585,10.4585,10.4585,10.4585,10.4585,10.4658,10.5387,10.6113,10.6738,10.6738,10.6738,10.6738,10.6738,10.6738,10.663,10.5895,10.563,10.5667,10.5703,10.5739,10.5932,10.6774,10.7494,10.8175,10.8925,10.864,10.8354,10.8996,10.9209,10.9245,10.9245,10.9245,10.9245,10.9245,10.9245,10.9245,10.9174,10.9174,10.8925,10.814,10.7961,10.7375,10.5968,10.5667,10.5387,10.4658,10.4585,10.4585,10.4585,10.5231,10.5387,10.4622,10.4585,10.4585,10.4585,10.4585,10.4585,10.4585,10.4585,10.4585,10.4585,10.4585,10.4585,10.4585,10.4585,10.4585,7.0823,7.2459,7.4656,7.6526,7.6967,7.7181,7.7929,8.0107,8.1819,8.1276,8.296,8.5158,8.689,8.8479,9.08,9.4791,9.6521,9.838,10.1245,10.1853,10.2648,10.4352,10.4585,10.4585,10.4585,10.4585,10.4585,10.4585,10.4585,10.4585,10.4585,10.4585,10.4585,10.4585,10.4585,10.4585,10.4585,10.4585,10.4585,10.4585,10.4585,10.4585,10.4585,10.4585,10.4585,10.4585,10.4585,10.4585,10.4585,10.4585,10.4585,10.4622,10.4804,10.4987,10.5132,10.5132,10.5132,10.5132,10.5132,10.5132,10.5096,10.4914,10.4877,10.4987,10.5558,10.5739,10.6076,10.7411,10.753,10.7243,10.7423,10.8211,10.8889,10.8461,10.8818,10.9245,10.9245,10.9245,10.9245,10.9245,10.9245,10.9067,10.8461,10.8354,10.8104,10.7315,10.6655,10.6138,10.5775,10.5195,10.4804,10.4622,10.4585,10.4585,10.4585,10.4768,10.4768,10.4585,10.4585,10.4585,10.4585,10.4585,10.4585,10.4585,10.4585,10.4585,10.4585,10.4585,10.4585,10.4585,10.4585,10.4585,7.0776,7.2272,7.4262,7.5872,7.5919,7.5778,7.676,7.7929,7.8891,7.9312,8.1071,8.2913,8.4474,8.6781,8.9304,9.214,9.4277,9.6475,9.9175,10.0356,10.1525,10.3079,10.4061,10.4585,10.4585,10.4585,10.4585,10.4585,10.4585,10.4585,10.4585,10.4585,10.4585,10.4585,10.4585,10.4585,10.4585,10.4585,10.4585,10.4585,10.4585,10.4585,10.4585,10.4585,10.4585,10.4585,10.4585,10.4585,10.4585,10.4585,10.4585,10.4585,10.4585,10.4585,10.4585,10.4585,10.4585,10.4585,10.4585,10.4585,10.4585,10.4585,10.4585,10.4658,10.5096,10.5195,10.546,10.6655,10.7195,10.753,10.7889,10.8604,10.9138,10.8711,10.896,10.9245,10.9245,10.9245,10.9245,10.9245,10.9245,10.8996,10.8211,10.8104,10.771,10.6546,10.604,10.5594,10.5278,10.4841,10.4585,10.4585,10.4585,10.4585,10.4585,10.4585,10.4585,10.4585,10.4585,10.4585,10.4585,10.4585,10.4585,10.4585,10.4585,10.4585,10.4585,10.4585,10.4585,10.4585,10.4585,10.4585,7.0963,7.2438,7.4075,7.4958,7.4516,7.4308,7.6106,7.5939,7.5939,7.7695,7.9733,8.1492,8.255,8.5642,8.8276,8.8884,9.122,9.3856,9.6415,9.8579,10.0309,10.1525,10.3266,10.4398,10.4585,10.4585,10.4585,10.4585,10.4585,10.4585,10.4585,10.4585,10.4585,10.4585,10.4585,10.4585,10.4585,10.4585,10.4585,10.4585,10.4585,10.4585,10.4585,10.4585,10.4585,10.4585,10.4585,10.4585,10.4585,10.4585,10.4585,10.4585,10.4585,10.4585,10.4585,10.4585,10.4585,10.4585,10.4585,10.4585,10.4585,10.4585,10.4585,10.4585,10.4585,10.4658,10.495,10.5859,10.7051,10.8283,10.9067,10.9245,10.9245,10.9245,10.9245,10.9245,10.9245,10.9245,10.9245,10.9245,10.9245,10.896,10.8068,10.7925,10.7339,10.5823,10.5558,10.5304,10.4658,10.4585,10.4585,10.4585,10.4585,10.4585,10.4585,10.4585,10.4585,10.4585,10.4585,10.4585,10.4585,10.4585,10.4585,10.4585,10.4585,10.4585,10.4585,10.4585,10.4585,10.4585,10.4585,10.4585,7.1805,7.2952,7.3888,7.4075,7.3981,7.3934,7.4262,7.489,7.5518,7.5845,7.7555,7.9312,8.0369,8.1819,8.3913,8.7358,8.8292,9.0286,9.5025,9.7503,9.948,10.1432,10.2694,10.3687,10.4492,10.4585,10.4585,10.4585,10.4585,10.4585,10.4585,10.4585,10.4585,10.4585,10.4585,10.4585,10.4585,10.4585,10.4585,10.4585,10.4585,10.4585,10.4585,10.4585,10.4585,10.4585,10.4585,10.4585,10.4585,10.4585,10.4585,10.4585,10.4585,10.4585,10.4585,10.4585,10.4585,10.4585,10.4585,10.4585,10.4585,10.4585,10.4585,10.4585,10.4585,10.506,10.5848,10.7303,10.7925,10.8283,10.9067,10.9245,10.9245,10.9245,10.9245,10.9245,10.9245,10.9245,10.9245,10.9245,10.9245,10.8782,10.7351,10.7099,10.6594,10.4987,10.4768,10.4731,10.4622,10.4585,10.4585,10.4585,10.4585,10.4585,10.4585,10.4585,10.4585,10.4585,10.4585,10.4585,10.4585,10.4585,10.4585,10.4585,10.4585,10.4585,10.4585,10.4585,10.4585,10.4585,10.4585,10.4585,7.2179,7.3093,7.3841,7.3841,7.3841,7.3841,7.3841,7.4262,7.475,7.5331,7.6173,7.7368,7.8911,8.0528,8.2427,8.4848,8.664,8.8899,9.2421,9.6161,9.9106,10.0637,10.2227,10.3583,10.4492,10.4585,10.4585,10.4585,10.4585,10.4585,10.4585,10.4585,10.4585,10.4585,10.4585,10.4585,10.4585,10.4585,10.4585,10.4585,10.4585,10.4585,10.4585,10.4585,10.4585,10.4585,10.4585,10.4585,10.4585,10.4585,10.4585,10.4585,10.4585,10.4585,10.4585,10.4585,10.4585,10.4585,10.4585,10.4585,10.4658,10.5096,10.5496,10.5823,10.5823,10.6366,10.7159,10.7889,10.839,10.8818,10.9174,10.9245,10.9245,10.9245,10.9245,10.9245,10.9245,10.9245,10.9245,10.9245,10.8925,10.8247,10.7099,10.6546,10.5895,10.4768,10.4585,10.4585,10.4585,10.4585,10.4585,10.4585,10.4585,10.4585,10.4585,10.4585,10.4585,10.4585,10.4585,10.4585,10.4585,10.4585,10.4585,10.4585,10.4585,10.4585,10.4585,10.4585,10.4585,10.4585,10.4585,10.4585,7.2927,0.0,7.4308,7.4542,7.4402,7.4262,0.0,7.4028,7.4075,7.489,7.5238,7.5986,7.7835,7.9686,8.1492,8.3223,8.5268,8.7669,9.0706,9.4384,9.7469,9.948,10.1572,10.3209,10.4201,10.4445,10.4585,10.4585,10.4585,10.4585,10.4585,10.4585,10.4585,10.4585,10.4585,10.4585,10.4585,10.4585,10.4585,10.4585,10.4585,10.4585,10.4585,10.4585,10.4585,10.4585,10.4585,10.4585,10.4585,10.4585,10.4585,10.4585,10.4585,10.4585,10.4585,10.4585,10.4585,10.4585,10.4585,10.4585,10.4731,10.5485,10.6257,10.6919,10.6919,10.7602,10.8354,10.8354,10.8782,10.9245,10.9245,10.9245,10.9245,10.9245,10.9245,10.9245,10.9245,10.9245,10.9245,10.9245,10.864,10.7817,10.7063,10.6257,10.5449,10.4695,10.4585,10.4585,10.4585,10.4585,10.4585,10.4585,10.4585,10.4585,10.4585,10.4585,10.4585,10.4585,10.4585,10.4585,10.4585,10.4585,10.4585,10.4585,10.4585,10.4585,10.4585,10.4585,10.4585,10.4585,10.4585,10.4585,0.0,7.5212,7.5518,7.65,7.6032,7.5331,7.5331,7.4563,0.0,7.3981,7.475,7.5752,7.6874,7.8022,7.9986,8.3837,8.3942,8.5562,9.1392,9.1719,9.3136,9.8077,10.0496,10.218,10.3209,10.4061,10.4585,10.4585,10.4585,10.4585,10.4585,10.4585,10.4585,10.4585,10.4585,10.4585,10.4585,10.4585,10.4585,10.4585,10.4585,10.4585,10.4585,10.4585,10.4585,10.4585,10.4585,10.4585,10.4585,10.4585,10.4585,10.4585,10.4585,10.4585,10.4585,10.4585,10.4585,10.4585,10.4585,10.4585,10.4731,10.5485,10.6257,10.6919,10.6919,10.7961,10.9174,10.9174,10.9209,10.9245,10.9245,10.9245,10.9245,10.9245,10.9245,10.9245,10.9245,10.9245,10.9245,10.9245,10.864,10.7817,10.7063,10.6257,10.5449,10.4695,10.4585,10.4585,10.4585,10.4585,10.4585,10.4585,10.4585,10.4585,10.4585,10.4585,10.4585,10.4585,10.4585,10.4585,10.4585,10.4585,10.4585,10.4585,10.4585,10.4585,10.4585,10.4585,10.4585,10.4585,10.4585,10.4585,7.5238,7.5892,7.65,7.6874,7.6687,7.6219,7.5565,7.5098,7.4656,7.3981,7.4703,7.5752,7.678,7.7835,7.9659,8.3147,8.341,8.5328,9.1486,9.2,9.3449,9.803,9.9807,10.1619,10.3827,10.3827,10.3967,10.4539,10.4585,10.4585,10.4585,10.4585,10.4585,10.4585,10.4585,10.4585,10.4585,10.4585,10.4585,10.4585,10.4585,10.4585,10.4585,10.4585,10.4585,10.4585,10.4585,10.4585,0.0,10.4585,10.4585,10.4585,10.4585,10.4877,10.5267,10.5267,10.5605,10.5932,10.5496,10.5641,10.604,10.6366,10.7027,10.7746,10.8211,10.8782,10.9245,10.9245,10.9245,10.9245,10.9245,10.9245,10.9245,10.9245,10.9245,10.9245,10.9245,10.9245,10.9245,10.9245,10.8211,10.7279,10.6955,10.5859,10.4914,10.4622,10.4585,10.4585,10.4585,10.4585,10.4585,10.4585,10.4585,10.4585,10.4585,10.4585,10.4585,10.4585,10.4585,10.4585,10.4585,10.4585,10.4585,10.4585,10.4585,10.4585,10.4585,10.4585,10.4585,10.4585,10.4585,10.4585,7.6219,7.692,7.7648,7.8256,7.8209,7.7789,7.7087,7.664,7.6079,7.5057,7.5451,7.6219,7.7274,7.8022,7.9546,8.269,8.3205,8.5328,9.1486,9.2327,9.387,9.8077,9.9152,10.0695,10.3406,10.364,10.3874,10.4539,10.4585,10.4585,10.4585,10.4585,10.4585,10.4585,10.4585,10.4585,10.4585,10.4585,10.4585,10.4585,10.4585,10.4585,10.4585,10.4585,10.4585,10.4585,10.4585,10.4585,10.4585,10.4585,10.4585,10.4585,10.4585,10.506,10.5739,10.5739,10.6221,10.6847,10.6293,10.6438,10.6955,10.7207,10.7638,10.8247,10.9032,10.9245,10.9245,10.9245,10.9245,10.9245,10.9245,10.9245,10.9245,10.9245,10.9245,10.9245,10.9245,10.9245,10.9174,10.8925,10.7817,10.6847,10.6546,10.546,10.4585,10.4585,10.4585,10.4585,10.4585,10.4585,10.4585,10.4585,10.4585,10.4585,10.4585,10.4585,10.4585,10.4585,10.4585,10.4585,10.4585,10.4585,10.4585,10.4585,10.4585,10.4585,10.4585,10.4585,10.4585,10.4585,10.4585,10.4585,7.7929,7.8537,7.9078,8.1089,8.0884,8.0107,8.006,7.9312,7.8256,7.7181,7.6967,7.7321,7.835,7.8537,7.9593,8.269,8.3176,8.5375,9.1486,9.2327,9.3917,9.8077,9.8591,9.9386,10.1432,10.3406,10.4585,10.4585,10.4585,10.4585,10.4585,10.4585,10.4585,10.4585,10.4585,10.4585,10.4585,10.4585,10.4585,10.4585,10.4585,10.4585,10.4585,10.4585,10.4585,10.4585,10.4585,10.4585,10.4585,10.4585,10.4585,10.4585,10.4585,10.5096,10.5739,10.5739,10.6257,10.6919,10.6919,10.6919,10.7063,10.7817,10.8104,10.8247,10.9032,10.9245,10.9245,10.9245,10.9245,10.9245,10.9245,10.9245,10.9245,10.9245,10.9245,10.9245,10.9245,10.9245,10.9032,10.8247,10.7459,10.6655,10.5848,10.5132,10.4585,10.4585,10.4585,10.4585,10.4585,10.4585,10.4585,10.4585,10.4585,10.4585,10.4585,10.4585,10.4585,10.4585,10.4585,10.4585,10.4585,10.4585,10.4585,10.4585,10.4585,10.4585,10.4585,10.4585,10.4585,10.4585,10.4585,10.4585,7.7461,7.9004,8.0884,8.1492,8.196,8.1913,8.0435,7.9873,7.9098,7.7368,7.7555,7.8163,7.8443,7.9125,8.0388,8.2802,8.3755,8.6063,9.1579,9.2982,9.4711,9.8171,9.9199,9.99,10.0543,10.2414,10.3874,10.4539,10.4585,10.4585,10.4585,10.4585,10.4585,10.4585,10.4585,10.4585,10.4585,10.4585,10.4585,10.4585,10.4585,10.4585,10.4585,10.4585,10.4585,10.4585,10.4585,10.4585,10.4585,10.4585,10.4585,10.4585,10.4585,10.5387,10.6546,10.6546,10.7423,10.8497,10.7925,10.8104,10.8533,10.8175,10.8461,10.896,10.9174,10.9245,10.9245,10.9245,10.9245,10.9245,10.9245,10.9245,10.9245,10.9245,10.9245,10.9245,10.9245,10.9245,10.9174,10.896,10.7817,10.6847,10.6582,10.546,10.4585,10.4585,10.4585,10.4585,10.4585,10.4585,10.4585,10.4585,10.4585,10.4585,10.4585,10.4585,10.4585,10.4585,10.4585,10.4585,10.4585,10.4585,10.4585,10.4585,10.4585,10.4585,10.4585,10.4585,10.4585,10.4585,10.4585,10.4585,7.8256,7.9873,8.1726,8.2147,8.2989,8.3287,8.1726,8.1351,8.0715,7.8657,7.8724,7.9265,7.9686,8.0294,8.137,8.3381,8.4193,8.622,9.1033,9.2608,9.4464,9.7597,9.8825,9.9667,10.0076,10.1619,10.3022,10.3967,10.4352,10.4585,10.4585,10.4585,10.4585,10.4585,10.4585,10.4585,10.4585,10.4585,10.4585,10.4585,10.4585,10.4585,10.4585,10.4585,10.4585,10.4585,10.4585,10.4585,10.4585,10.4585,10.4585,10.4585,10.4585,10.5532,10.6919,10.6919,10.7925,10.9209,10.8711,10.8854,10.9174,10.8711,10.8889,10.9245,10.9245,10.9245,10.9245,10.9245,10.9245,10.9245,10.9245,10.9245,10.9245,10.9245,10.9245,10.9245,10.9245,10.9245,10.9174,10.8854,10.7782,10.6811,10.6474,10.5423,10.4585,10.4585,10.4585,10.4585,10.4585,10.4585,10.4585,10.4585,10.4585,10.4585,10.4585,10.4585,10.4585,10.4585,10.4585,10.4585,10.4585,10.4585,10.4585,10.4585,10.4585,10.4585,10.4585,10.4585,10.4585,10.4585,10.4585,10.4585,7.9733,8.0855,8.2006,8.2971,8.3942,8.4427,8.341,8.3205,8.2643,8.0528,8.006,8.0388,8.1445,8.1726,8.2399,8.4351,8.4865,8.636,9.0364,9.1906,9.3716,9.6649,9.7924,9.8965,10.0029,10.0964,10.1993,10.3151,10.3967,10.4445,10.4445,10.4539,10.4585,10.4585,10.4585,10.4585,10.4585,10.4585,10.4585,10.4585,10.4585,10.4585,10.4585,10.4585,10.4585,10.4585,10.4585,10.4585,10.4585,10.4585,10.4585,10.4585,10.4585,10.5496,10.6811,10.6883,10.7853,10.9174,10.9245,10.9245,10.9245,10.9245,10.9209,10.9138,10.9138,10.9209,10.9245,10.9245,10.9245,10.9245,10.9245,10.9245,10.9245,10.9245,10.9245,10.9245,10.9245,10.9245,10.9032,10.8247,10.7459,10.6666,10.5848,10.5132,10.4585,10.4585,10.4585,10.4585,10.4585,10.4585,10.4585,10.4585,10.4585,10.4585,10.4585,10.4585,10.4585,10.4585,10.4585,10.4585,10.4585,10.4585,10.4585,10.4585,10.4585,10.4585,10.4585,10.4585,10.4585,10.4585,10.4585,10.4585,7.9004,8.0837,8.2924,8.3158,8.452,8.5302,8.3597,8.3205,8.2643,8.0528,8.006,8.0388,8.1445,8.2287,8.3474,8.5489,8.7171,8.9117,9.1673,9.3589,9.5306,9.6836,9.7924,9.8965,10.0029,10.0274,10.1198,10.3104,10.3396,10.3489,10.3489,10.4201,10.4585,10.4585,10.4585,10.4585,10.4585,10.4585,10.4585,10.4585,10.4585,10.4585,10.4585,10.4585,10.4585,10.4585,10.4585,10.4585,10.4585,10.4585,10.4585,10.4585,10.4585,10.5169,10.6076,10.6702,10.753,10.8426,10.9032,10.9245,10.9245,10.9245,10.8854,10.8354,10.8354,10.8782,10.9245,10.9245,10.9245,10.9245,10.9245,10.9245,10.9245,10.9245,10.9245,10.9245,10.9245,10.9245,10.9032,10.8247,10.7459,10.6666,10.5848,10.5132,10.4585,10.4585,10.4585,10.4585,10.4585,10.4585,10.4585,10.4585,10.4585,10.4585,10.4585,10.4585,10.4585,10.4585,10.4585,10.4585,10.4585,10.4585,10.4585,10.4585,10.4585,10.4585,10.4585,10.4585,10.4585,10.4585,10.4585,10.4585,7.9406,8.0809,8.2568,8.3064,8.4287,8.5098,8.4082,8.3503,8.2784,8.1164,8.0435,8.0528,8.21,8.3223,8.452,8.6517,8.8198,8.974,9.136,9.3388,9.5072,9.6101,9.7644,9.8778,9.9293,9.9807,10.059,10.1666,10.218,10.2496,10.2496,10.2928,10.3406,10.3921,10.4352,10.4585,10.4585,10.4585,10.4585,10.4585,10.4585,10.4585,10.4585,10.4585,10.4585,10.4585,10.4585,10.4585,10.4585,10.4585,10.4585,10.4585,10.4585,10.506,10.5775,10.6221,10.6835,10.7602,10.7997,10.814,10.814,10.814,10.7853,10.753,10.753,10.7817,10.8211,10.8604,10.8711,10.8782,10.9174,10.9245,10.9245,10.9245,10.9245,10.9245,10.9245,10.896,10.8461,10.7674,10.6871,10.6221,10.5859,10.5132,10.4585,10.4585,10.4585,10.4585,10.4585,10.4585,10.4585,10.4585,10.4585,10.4585,10.4585,10.4585,10.4585,10.4585,10.4585,10.4585,10.4585,10.4585,10.4585,10.4585,10.4585,10.4585,10.4585,10.4585,10.4585,10.4585,10.4585,10.4585,8.0014,8.0855,8.1866,8.2708,8.3755,8.4491,8.438,8.3848,8.3129,8.21,8.1211,8.123,8.3316,8.4333,8.5566,8.7825,8.8899,8.9865,9.0893,9.2701,9.4277,9.5306,9.7095,9.8358,9.8545,9.9339,9.9935,10.0087,10.0695,10.1198,10.1385,10.1385,10.1853,10.2881,10.3687,10.4165,10.4352,10.4492,10.4585,10.4585,10.4585,10.4585,10.4585,10.4585,10.4585,10.4585,10.4585,10.4585,10.4585,10.4585,10.4585,10.4585,10.4585,10.4987,10.5522,10.5667,10.6149,10.6738,10.6883,10.6919,10.6883,10.6594,10.6594,10.6738,10.6738,10.6811,10.7063,10.771,10.7889,10.8068,10.8854,10.9067,10.9067,10.9067,10.9174,10.9209,10.9103,10.8533,10.7817,10.6919,10.6185,10.5703,10.5558,10.5023,10.4585,10.4585,10.4585,10.4585,10.4585,10.4585,10.4585,10.4585,10.4585,10.4585,10.4585,10.4585,10.4585,10.4585,10.4585,10.4585,10.4585,10.4585,10.4585,10.4585,10.4585,10.4585,10.4585,10.4585,10.4585,10.4585,10.4585,10.4585,7.9827,8.0855,8.1679,8.1819,8.324,8.4333,8.355,8.3895,8.41,8.3176,8.2877,8.341,8.5349,8.5786,8.689,8.9865,9.0472,9.094,9.2,9.3122,9.4277,9.5306,9.6508,9.755,9.8451,9.8685,9.9152,10.0076,9.9386,9.9339,10.0263,10.0309,10.0777,10.1853,10.1993,10.2461,10.3396,10.4201,10.4585,10.4585,10.4585,10.4585,10.4585,10.4585,10.4585,10.4585,10.4585,10.4585,10.4585,10.4585,10.4585,10.4585,10.4585,10.4658,10.4841,10.5485,10.5775,10.6004,10.6702,10.6919,10.6702,10.5314,10.5351,10.5932,10.5932,10.6366,10.6919,10.7027,10.7063,10.7243,10.8032,10.8247,10.8247,10.8247,10.8782,10.9067,10.839,10.8175,10.7674,10.6185,10.5859,10.5522,10.4877,10.4658,10.4585,10.4585,10.4585,10.4585,10.4585,10.4585,10.4585,10.4585,10.4585,10.4585,10.4585,10.4585,10.4585,10.4585,10.4585,10.4585,10.4585,10.4585,10.4585,10.4585,10.4585,10.4585,10.4585,10.4585,10.4585,10.4585,10.4585,10.4585,7.978,8.0388,8.0902,8.1463,8.2258,8.296,8.3129,8.3082,8.296,8.3129,8.2708,8.2913,8.4911,8.5723,8.6767,8.8712,9.0005,9.094,9.136,9.2841,9.409,9.4511,9.5493,9.6521,9.7597,9.7691,9.8111,9.9152,9.8298,9.8158,9.9152,9.9246,9.9713,10.0777,10.0777,10.1291,10.2356,10.2741,10.3219,10.3817,10.3817,10.4108,10.4585,10.4585,10.4585,10.4585,10.4585,10.4585,10.4585,10.4585,10.4585,10.4585,10.4585,10.4585,10.4622,10.4987,10.5096,10.5169,10.5496,10.5605,10.5496,10.4804,10.4841,10.5096,10.5096,10.5351,10.5678,10.6113,10.6594,10.6991,10.7351,10.7746,10.7961,10.753,10.771,10.7853,10.7494,10.7051,10.6582,10.5848,10.5376,10.4987,10.4658,10.4585,10.4585,10.4585,10.4585,10.4585,10.4585,10.4585,10.4585,10.4585,10.4585,10.4585,10.4585,10.4585,10.4585,10.4585,10.4585,10.4585,10.4585,10.4585,10.4585,10.4585,10.2768,10.1836,10.1881,10.0005,9.9107,9.9107,9.9107,9.9107,7.9331,7.9686,7.992,8.0949,8.1445,8.1819,8.2614,8.2381,8.224,8.3064,8.2755,8.2913,8.4631,8.5582,8.6533,8.7871,8.9133,9.0192,9.0706,9.214,9.3262,9.3856,9.4557,9.5446,9.6508,9.6602,9.6896,9.7703,9.7036,9.7036,9.8111,9.8171,9.8638,9.9667,9.9713,10.0181,10.1245,10.1291,10.1806,10.2824,10.2824,10.3209,10.3874,10.3874,10.4014,10.4212,10.4212,10.4352,10.4585,10.4585,10.4585,10.4585,10.4585,10.4585,10.4585,10.4585,10.4585,10.4539,10.4341,10.4352,10.4585,10.4585,10.4585,10.4585,10.4585,10.4585,10.4695,10.5314,10.5859,10.6377,10.6546,10.7015,10.7339,10.6727,10.6774,10.6847,10.6666,10.6149,10.5739,10.5739,10.5132,10.4585,10.4585,10.4585,10.4585,10.4585,10.4585,10.4585,10.4585,10.4585,10.4585,10.4585,10.4585,10.4585,10.4585,10.4585,10.4585,10.4585,10.4585,10.422,10.3403,10.4137,10.422,10.3366,10.0982,9.9706,9.9706,9.6455,9.4852,9.4852,9.4852,9.4852,7.8069,7.8583,7.8891,7.992,8.0902,8.1679,8.1726,8.2427,8.3158,8.3205,8.3848,8.4724,8.5863,8.6066,8.6767,8.8806,8.8385,8.8526,9.0519,9.0846,9.1673,9.3669,9.3917,9.437,9.5399,9.5493,9.5539,9.5586,9.5539,9.5994,9.7023,9.707,9.755,9.8591,9.8638,9.9152,10.0216,10.0181,10.073,10.1759,10.1759,10.1759,10.1806,10.1806,10.232,10.3292,10.3292,10.377,10.4585,10.4585,10.4585,10.4585,10.4585,10.4585,10.4585,10.4585,10.4585,10.4445,10.3583,10.3827,10.4585,10.4585,10.4585,10.4585,10.4585,10.4585,10.4585,10.4622,10.4695,10.4877,10.5594,10.5859,10.5848,10.5859,10.6366,10.6738,10.592,10.5739,10.5739,10.5739,10.5132,10.4585,10.4585,10.4585,10.4585,10.4585,10.4585,10.4585,10.4585,10.4585,10.4585,10.4585,10.4585,10.4585,10.4585,10.4585,10.4585,10.4585,10.4585,10.3219,10.008,10.2916,10.31,10.0005,9.9781,9.9706,9.9706,9.6455,9.4852,9.4852,9.4852,9.4852,7.7789,7.8537,7.8798,7.9827,8.0341,8.0227,7.8547,7.9751,8.0897,7.9944,8.1256,8.3007,8.4035,8.4724,8.5349,8.6126,8.7031,8.7918,8.8666,8.9958,9.1033,9.1813,9.2467,9.3309,9.4324,9.3823,9.3683,9.4417,9.4464,9.4885,9.5947,9.6041,9.6147,9.6568,9.7223,9.7737,9.8111,9.8732,9.9293,9.9667,10.0356,10.1011,10.1666,10.1666,10.1853,10.2227,10.2227,10.2414,10.2741,10.2741,10.2741,10.2741,10.2741,10.2741,10.2741,10.2741,10.3126,10.3583,10.2554,10.2414,10.2741,10.2741,10.2741,10.2741,10.2741,10.2741,10.2741,10.2741,10.3486,10.429,10.4146,10.4905,10.5594,10.5132,10.5205,10.5351,10.506,10.5023,10.5023,10.5023,10.4768,10.4585,10.4585,10.4585,10.4585,10.4585,10.4585,10.4585,10.4585,10.4585,10.4585,10.4585,10.4585,10.4585,10.4585,10.2658,10.2362,10.4439,10.2621,10.0945,9.9744,10.0871,9.9662,9.5812,9.5624,9.4343,9.1823,9.0495,8.8854,8.6889,8.6889,8.6889,7.4036,7.56,7.7046,7.7388,7.8534,7.9129,7.7385,7.7913,7.8738,7.8563,7.9507,8.08,8.2377,8.3427,8.41,8.41,8.5519,8.675,8.7124,8.8619,8.9865,9.0239,9.1173,9.2093,9.2748,9.1906,9.1687,9.2748,9.2841,9.3449,9.4838,9.4931,9.5072,9.5399,9.6134,9.6462,9.6462,9.7176,9.7656,9.8065,9.8719,9.9608,10.0637,10.0637,10.0824,10.1151,10.1151,10.1338,10.1666,10.1666,10.1666,10.1666,10.1666,10.1666,10.1666,10.1666,10.1853,10.204,10.1385,10.1385,10.1666,10.1666,10.1666,10.1666,10.1666,10.1666,10.1666,10.1666,10.2489,10.3208,10.2791,10.3557,10.4243,10.3702,10.3593,10.3687,10.4061,10.4108,10.4201,10.4539,10.4585,10.4585,10.4585,10.4585,10.4585,10.4585,10.4585,10.4445,10.4154,10.4352,10.4585,10.4585,10.4585,10.4585,10.4585,10.2345,10.138,10.2492,10.0169,9.7833,9.5693,9.6632,9.5428,9.1592,9.1403,9.0051,8.7465,8.6129,8.4439,8.2422,8.2422,8.2422,6.6697,6.964,7.336,7.2429,7.5207,7.8205,7.8169,7.7112,7.6813,7.9296,7.8672,7.8472,8.1129,8.237,8.3071,8.3129,8.3942,8.4865,8.5879,8.6984,8.8012,8.8993,9.0099,9.0706,9.0613,8.9771,8.9678,9.0659,9.0706,9.1626,9.3716,9.3776,9.4277,9.5306,9.5352,9.5399,9.5399,9.5399,9.5914,9.6976,9.6976,9.7457,9.8451,9.8451,9.9012,9.9994,10.0076,10.0637,10.1572,10.1572,10.1572,10.1572,10.1572,10.1572,10.1572,10.1478,10.0824,9.9947,9.9947,10.0637,10.1525,10.1525,10.1525,10.1572,10.1572,10.1572,10.1572,10.1572,10.1572,10.1619,10.1619,10.1619,10.1666,10.1666,10.1666,10.1946,10.2928,10.3198,10.3443,10.4341,10.4492,10.4492,10.4492,10.4492,10.4492,10.4492,10.4492,10.4201,10.3255,10.3921,10.4492,10.4492,10.4492,10.4492,10.4492,10.3568,10.1733,9.8675,9.745,9.4017,8.7732,9.0522,9.0672,8.7349,8.7349,8.7387,8.7192,8.4014,8.2386,8.2232,8.2232,8.2232,6.531,6.5697,6.6975,6.9217,7.0169,7.0359,6.9776,7.2054,7.4132,7.3825,7.4717,7.6538,7.9892,7.9851,7.9886,8.1767,8.2942,8.3661,8.3942,8.5472,8.6657,8.6907,8.8572,8.907,8.7544,8.8479,8.932,8.9631,8.9678,9.0239,9.1547,9.1626,9.214,9.3122,9.3949,9.4324,9.4324,9.5072,9.5586,9.5867,9.5867,9.6007,9.6288,9.6288,9.6849,9.7878,9.8638,9.9152,9.9386,9.9386,9.9386,9.9386,9.9386,9.9386,9.9246,9.7737,9.6989,9.6708,9.6708,9.741,9.8252,9.8252,9.8813,9.9386,9.9386,9.9386,9.9386,9.9386,9.9947,10.0508,10.0508,10.1104,10.1666,10.1666,10.1666,10.1759,10.204,10.2086,10.218,10.2461,10.2425,10.2425,10.2425,10.2425,10.2425,10.2425,10.2425,10.2367,10.2133,10.232,10.2425,10.2425,10.2425,10.2425,10.2425,10.0018,9.8162,9.747,9.4927,9.1681,8.7656,8.8339,8.6993,8.3048,8.5178,8.4658,8.1117,8.2459,8.1664,7.8893,7.8893,7.8893,6.0774,6.1232,6.1551,6.3081,6.435,6.5328,6.5587,6.7608,6.9593,7.0171,7.156,7.3733,7.7336,7.7138,7.7435,8.0506,8.0961,8.1319,8.2406,8.3866,8.4865,8.4865,8.5969,8.625,8.5005,8.636,8.7482,8.7871,8.8339,8.9024,9.0099,9.0145,9.0426,9.0986,9.2047,9.2561,9.2561,9.3589,9.437,9.4791,9.4791,9.5025,9.5446,9.5446,9.5773,9.6381,9.6989,9.7236,9.7236,9.7236,9.7236,9.7236,9.7236,9.7236,9.7129,9.5867,9.5446,9.5446,9.5446,9.582,9.6368,9.6368,9.6755,9.7236,9.7236,9.7236,9.7236,9.7236,9.7691,9.8252,9.8673,9.9234,9.9795,10.0263,10.0356,10.0496,10.0917,10.1011,10.1151,10.1572,10.1666,10.1666,10.1666,10.1666,10.1385,10.0496,10.073,10.1011,10.1011,10.1385,10.1666,10.1666,10.1666,10.1122,9.9827,9.754,9.5094,9.2602,9.0271,8.7409,8.3978,8.3788,8.2531,7.9765,8.1526,8.102,7.821,8.0086,7.9777,7.7564,7.7564,7.6804,5.4436,5.6087,5.6665,5.5718,5.816,6.1277,0.0,6.3205,6.3917,6.703,6.8293,6.9899,7.3398,7.378,7.4746,7.8357,7.7857,7.7957,8.0658,8.1931,8.2536,8.2397,8.249,8.2699,8.2989,8.3848,8.4771,8.5723,8.6657,8.7638,8.8806,8.8853,8.8993,8.9226,9.0145,9.0613,9.0613,9.1501,9.2467,9.3356,9.3449,9.4043,9.4931,9.5025,9.5165,9.5259,9.5259,9.5306,9.5446,9.5446,9.5446,9.5446,9.5446,9.5165,9.4711,9.4414,9.4314,9.4234,9.3936,9.3975,9.4127,9.4127,9.4546,9.4932,9.4932,9.5213,9.5446,9.5446,9.5446,9.5633,9.6602,9.6836,9.707,9.7984,9.8217,9.8451,9.9421,9.9701,10.0029,10.0964,10.1245,10.1338,10.1338,10.1338,10.0379,9.7624,9.7984,9.8667,9.8725,9.9593,10.0196,10.0253,10.0253,9.9138,9.6348,9.5205,9.2058,8.6026,8.4817,8.2581,7.8739,7.859,7.821,7.7412,7.7412,7.7298,7.7108,7.7108,7.707,7.6994,7.6994,7.5286,0.0,0.0,0.0,0.0,0.0,0.0,0.0,5.6741,5.8868,6.0378,6.1775,6.3811,6.7334,6.7329,6.7932,7.1387,7.2309,7.3663,7.6826,7.8144,7.8488,7.7665,7.8279,7.9634,8.1713,8.2848,8.355,8.3755,8.3971,8.4877,8.6627,8.672,8.7498,8.918,8.9413,8.9538,8.9538,8.9725,8.9912,9.0145,9.0986,9.1486,9.1719,9.2561,9.3435,9.4183,9.4183,9.4651,9.5446,9.5446,9.5446,9.5446,9.5446,9.3356,9.0173,8.7979,8.7131,8.6874,8.4721,8.4969,8.6196,8.6196,8.8844,9.2014,9.2014,9.3613,9.5446,9.5446,9.5446,9.5493,9.568,9.576,9.5773,9.6007,9.6054,9.6101,9.6288,9.6989,9.7678,9.7865,9.8579,9.9152,9.9152,9.9152,9.684,8.9987,8.9161,8.9595,9.0315,9.0575,9.093,9.1603,9.161,9.1394,9.0781,8.9959,8.757,8.3098,8.2756,8.1226,7.7938,7.7792,7.7374,7.6463,7.6463,7.5817,7.4415,7.4415,7.4112,7.3463,7.3463,7.24,0.0,0.0,0.0,0.0,0.0,0.0,0.0,0.0,0.0,0.0,0.0,5.9804,6.2084,0.0,6.4707,6.8164,6.8789,6.9978,7.3331,7.4198,7.4358,7.382,7.4242,7.5199,7.6915,7.7998,7.9138,8.038,7.9839,8.0947,8.4466,8.2246,8.2549,8.6096,8.5947,8.6439,8.7654,8.8712,8.9226,8.9226,8.9771,9.0005,9.0005,9.0519,9.1065,9.1579,9.1579,9.186,9.2327,9.2327,9.2327,9.2069,8.9407,8.7068,8.5112,8.3721,8.3205,8.3011,8.1713,8.1853,8.262,8.262,8.4228,8.6209,8.6209,8.7218,8.8343,8.8343,8.8343,8.8864,9.1261,9.1866,9.2062,9.3036,9.331,9.331,9.331,9.2545,9.228,9.3804,9.328,9.2595,9.2595,9.2595,9.1268,8.7267,8.6686,8.6821,8.7297,8.7382,8.7382,8.7382,8.773,8.778,8.7425,8.5933,8.4167,8.2187,8.0719,7.8814,7.6419,7.6309,7.5701,7.4375,7.4337,7.3729,7.2514,7.2514,7.2059,7.1224,7.0388,6.9553,0.0,0.0,0.0,0.0,0.0,0.0,0.0,0.0,0.0,0.0,0.0,0.0,0.0,0.0,0.0,6.454,6.4895,6.6051,6.9613,6.9527,6.9371,6.9997,7.0265,7.0873,7.214,7.3065,7.442,7.6575,7.5652,7.6902,8.1205,7.7525,7.7284,8.1597,8.1327,8.2045,8.4078,8.5747,8.6606,8.6606,8.7487,0.0,8.7967,8.8806,8.9226,8.9226,8.9226,8.9226,8.9148,8.8649,8.843,8.7898,8.2343,8.0148,8.0115,7.9567,7.9373,7.9276,7.8757,7.8687,7.8855,7.8855,7.9339,7.9889,7.9889,8.0407,0.0,8.0958,8.1086,8.2154,8.5905,8.6862,8.7306,8.8859,8.9258,8.9258,8.9258,8.7605,8.6901,8.9313,8.8101,8.6686,8.6686,8.506,8.3744,8.3744,8.3744,8.3834,8.4134,8.4343,8.4294,8.3744,8.4468,8.4683,8.4036,8.1947,8.0661,8.0661,7.8099,7.5929,7.4372,7.4296,7.3422,7.1565,7.1527,7.1143,7.0379,7.0379,7.008,6.9444,6.7123,6.6112,0.0,0.0,0.0,0.0,0.0,0.0,0.0,0.0,0.0,0.0,0.0,0.0,0.0,0.0,0.0,0.0,5.8207,6.0991,6.5089,6.3133,6.2409,6.5336,6.6361,6.8069,7.1148,7.1549,7.2061,7.3047,7.2953,7.3527,7.4993,7.4529,0.0,0.0,0.0,7.6493,7.681,7.7013,7.7142,7.7173,8.1232,8.3172,8.331,8.7379,8.9226,8.9226,8.9226,8.9226,8.9024,8.6606,8.5609,8.4964,7.8727,7.6256,7.595,7.3508,7.2603,7.2299,6.9843,0.0,0.0,7.0216,7.2398,7.5071,7.5071,7.7414,8.0041,8.0041,8.0649,8.1364,8.1905,8.2046,8.2088,8.2303,8.2346,8.2346,8.2346,8.3366,8.4393,8.4732,8.5819,8.6686,8.6686,7.9116,7.3063,7.3063,7.3063,7.3603,7.4964,7.5846,7.6578,7.7159,7.8044,0.0,7.8468,7.6834,7.5816,7.5816,7.409,7.2701,7.1789,7.1713,7.0573,6.8072,6.8034,6.7649,6.6851,6.6851,6.7155,6.7617,6.3053,6.1394,0.0,0.0,0.0,0.0,0.0,0.0,0.0,0.0,0.0,0.0,0.0,0.0,0.0,0.0,0.0,0.0,5.4936,5.6828,5.7604,5.7351,5.8029,6.0369,6.1348,6.2799,6.5213,6.5488,6.6416,6.8732,6.7559,6.8423,7.2297,6.9687,6.9827,7.3686,7.3016,7.3266,7.4716,7.533,7.5616,7.5616,7.7559,7.8481,7.8542,8.0448,8.1293,8.1293,8.1293,8.1293,8.1232,8.0091,7.9583,7.9049,0.0,0.0,0.0,0.0,6.9164,6.9006,6.7841,6.7693,6.7996,6.7996,6.906,7.0287,7.0287,7.1419,7.2688,7.2688,7.2928,7.3715,7.5915,7.653,7.6746,7.7756,7.7972,7.8096,7.8567,7.7929,7.7819,7.9428,7.9066,0.0,7.7846,7.42,7.1485,7.1941,7.2017,7.2283,7.2932,7.3312,7.3536,7.3384,7.4109,7.4413,7.3992,7.3726,0.0,0.0,0.0,7.2169,7.1367,7.0839,0.0,0.0,0.0,6.6129,6.48,6.4375,0.0,0.0,5.9296,5.8037,0.0,0.0,0.0,0.0,0.0,0.0,0.0,0.0,0.0,0.0,0.0,0.0,0.0,0.0,0.0,0.0,5.2165,5.3114,5.1671,5.3114,5.486,5.6356,5.7393,5.8667,6.0375,6.0527,6.1672,6.4384,6.3146,6.4049,6.8324,6.5291,6.5395,6.9655,6.8977,6.943,7.1184,7.2184,7.267,7.267,7.3681,7.4171,7.4171,7.5155,7.5616,7.5616,7.5616,7.5616,7.5556,7.4794,7.4489,7.3946,6.854,6.6288,6.6098,6.6098,6.6098,6.6098,6.6098,6.6098,6.6167,6.6364,6.644,6.6478,6.6706,6.6933,6.7155,6.7155,6.7275,6.8057,7.0834,7.1532,7.1818,7.309,7.3376,7.3535,7.4104,7.2804,7.2092,7.4188,7.2699,7.0877,7.008,6.9961,7.0118,7.0725,7.0958,7.1186,7.1451,7.1869,7.1979,7.1371,7.2055,7.2249,7.1713,7.1979,7.2059,7.1831,7.1603,7.1143,7.0308,6.9439,6.8376,6.7155,6.5901,6.442,0.0,0.0,0.0,0.0,0.0,0.0,0.0,0.0,0.0,0.0,0.0,0.0,0.0,0.0,0.0,0.0,0.0,0.0,0.0,0.0,0.0,0.0,0.0,0.0,4.9022,5.105,5.2924,5.3848,5.5316,5.6922,5.8619,5.8771,5.9206,6.0203,6.0888,6.1343,6.1555,6.2229,6.2686,6.2901,6.3582,6.4001,6.4091,6.4862,6.525,6.5281,6.8847,7.0491,7.0623,7.4038,7.5616,7.5616,7.5616,7.5616,7.5404,7.2737,7.1692,7.1131,6.5928,6.3395,6.274,6.274,6.274,6.274,6.274,6.274,6.2892,6.3622,6.3858,6.401,6.4777,6.5605,6.6313,6.6313,6.6889,6.7497,6.7592,6.763,6.7662,6.7668,6.7706,6.7706,6.7776,6.8365,6.894,6.9038,6.8251,6.7351,6.6547,6.6465,6.6465,6.6503,6.7117,0.0,6.8794,7.0346,7.1333,7.1367,7.2055,7.2476,7.2476,7.1789,7.0991,7.0127,6.9363,6.849,6.7617,6.6813,6.6389,6.6351,6.3956,6.1875,6.0204,0.0,0.0,0.0,0.0,0.0,0.0,0.0,0.0,0.0,0.0,0.0,0.0,0.0,0.0,0.0,0.0,0.0,0.0,0.0,0.0,0.0,0.0,0.0,0.0,4.8406,5.0366,5.1153,5.2279,5.338,5.4481,5.4569,5.5164,5.6633,5.7415,5.8364,5.9492,5.9862,6.028,6.0888,6.1694,6.2082,6.2082,6.2947,6.3395,6.3395,6.4611,6.5244,6.5244,6.6965,6.7782,6.7792,6.8316,6.8523,6.8462,6.755,6.6521,6.5405,6.3669,6.2445,6.1694,6.1694,6.1381,6.0926,6.0926,6.0926,6.104,6.1846,6.2082,6.2234,6.3129,6.3584,6.3842,6.3842,6.4032,6.4344,6.4845,6.4997,6.5294,6.6433,6.6661,6.6813,6.7313,6.7693,6.7921,6.7921,6.675,6.5877,6.6205,6.6313,6.6433,6.7003,6.7275,6.7579,6.7883,6.8376,6.8756,6.8756,6.8984,6.9173,6.9173,6.8908,6.8604,6.8338,6.8072,6.7573,6.6699,6.5832,6.5149,6.461,6.3243,6.1486,5.915,0.0,0.0,0.0,0.0,0.0,0.0,0.0,0.0,0.0,0.0,0.0,0.0,0.0,0.0,0.0,0.0,0.0,0.0,0.0,0.0,0.0,0.0,0.0,0.0,0.0,0.0,4.937,5.0281,0.0,5.1988,5.2089,5.2393,5.3127,5.3987,5.505,5.6417,5.6823,5.7507,5.8657,5.9492,6.0062,6.0337,6.1229,6.1714,6.1714,6.1951,6.2103,6.2141,6.2977,6.3357,6.3357,6.3858,6.4086,6.4048,6.3479,6.2415,6.1154,6.0916,6.0052,5.9037,5.9037,5.8505,5.7887,5.8153,5.8239,5.8343,5.8847,5.9198,5.9654,6.085,6.103,6.0802,6.0802,6.0992,6.141,6.2226,6.2643,6.3213,6.461,6.4983,6.5097,6.5598,6.5908,6.606,6.5788,6.4845,6.4162,6.4428,6.499,6.5446,6.5674,6.6471,6.7041,6.7041,6.7275,6.7465,6.7465,6.7465,6.7465,6.7465,6.7465,6.7313,6.7079,6.7041,6.6547,6.5408,6.4807,6.398,6.2909,6.1524,5.973,0.0,0.0,0.0,0.0,0.0,0.0,0.0,0.0,0.0,0.0,0.0,0.0,0.0,0.0,0.0,0.0,0.0,0.0,0.0,0.0,0.0,0.0,0.0,0.0,0.0,0.0,0.0,4.83,4.9218,0.0,0.0,0.0,0.0,4.9816,5.0608,5.1481,5.233,5.3177,5.4354,5.5897,5.6823,5.7659,5.8429,5.9368,5.9824,5.9872,6.0602,6.102,6.1058,6.1989,6.2398,6.2398,6.2436,6.2474,6.2322,6.0508,5.9254,5.8419,5.7621,5.6318,5.4822,5.4822,5.4316,5.3734,5.4506,5.4784,5.4822,5.4822,5.5354,5.6314,5.7898,5.7849,0.0,0.0,5.7811,5.8647,5.9634,6.0413,6.121,6.2217,6.2474,6.2474,6.2512,6.3091,6.3365,6.2512,6.236,6.2103,6.1248,0.0,6.3281,6.2626,6.4565,6.6123,6.6161,6.6851,6.7313,6.7313,6.7313,6.7313,6.7313,6.7313,6.7009,6.6243,6.6199,6.5408,6.3744,6.3622,6.2757,6.0991,5.8647,0.0,0.0,0.0,0.0,0.0,0.0,0.0,0.0,0.0,0.0,0.0,0.0,0.0,0.0,0.0,0.0,0.0,0.0,0.0,0.0,0.0,0.0,0.0,0.0,0.0,0.0,4.2104,4.3871,4.5667,4.5554,4.5689,0.0,0.0,0.0,0.0,0.0,0.0,5.0499,5.0826,5.1457,5.2506,5.3342,5.4177,5.5102,5.5912,5.6607,5.7149,5.7377,5.7822,5.8495,5.933,5.971,5.9748,6.0432,6.0698,6.0432,5.6888,5.5292,5.5064,5.4874,5.3772,5.2265,5.2265,5.1709,5.1002,5.1167,5.1685,5.2265,5.2265,5.281,5.3506,5.3924,0.0,0.0,0.0,0.0,5.4531,5.6618,5.7339,5.8022,6.0204,6.0698,6.0888,6.1466,6.1741,6.1277,5.9244,5.932,5.9606,5.9378,0.0,0.0,6.1428,6.2711,6.3766,6.4344,6.508,6.5574,6.5574,6.5574,6.5574,6.5574,6.5574,6.5498,6.5301,6.4731,6.3964,6.293,6.1685,5.9768,5.7066,0.0,0.0,0.0,0.0,0.0,0.0,0.0,0.0,0.0,0.0,0.0,0.0,0.0,0.0,0.0,0.0,0.0,0.0,0.0,0.0,0.0,0.0,0.0,0.0,0.0,0.0,0.0,3.8807,4.0753,4.2336,4.257,4.2823,0.0,0.0,0.0,0.0,0.0,0.0,0.0,0.0,0.0,4.9583,5.0015,5.1064,5.2708,5.3177,5.3797,5.4569,5.4974,5.5418,5.5938,5.6747,5.7089,5.71,5.7279,5.6899,5.6064,5.3734,5.2746,5.2632,0.0,0.0,0.0,0.0,4.7966,4.7298,4.77,4.8231,4.8736,4.8542,0.0,0.0,0.0,0.0,0.0,0.0,0.0,5.1725,5.3303,5.4414,5.562,5.7404,5.7822,5.8049,5.8857,5.7706,5.6301,0.0,5.5526,5.5788,5.5946,0.0,0.0,0.0,0.0,6.1913,6.3091,6.3934,6.4549,6.4891,6.4928,6.4928,6.4928,6.4587,6.4397,6.4397,6.3327,6.2302,6.1495,5.9482,5.7149,0.0,0.0,0.0,0.0,0.0,0.0,0.0,0.0,0.0,0.0,0.0,0.0,0.0,0.0,0.0,0.0,0.0,0.0,0.0,0.0,0.0,0.0,0.0,0.0,0.0,0.0,0.0,0.0,0.0,3.712,3.883,0.0,0.0,0.0,0.0,0.0,0.0,0.0,0.0,0.0,0.0,0.0,0.0,0.0,4.7837,4.9963,5.0328,5.0974,5.1837,5.2607,5.3126,5.3354,5.4051,5.4329,5.4291,5.3039,0.0,5.0632,5.0333,0.0,0.0,0.0,0.0,0.0,0.0,0.0,0.0,0.0,0.0,0.0,0.0,0.0,0.0,0.0,0.0,0.0,0.0,0.0,0.0,0.0,0.0,5.3203,5.4176,5.4467,5.4569,5.4818,5.2361,5.0486,5.1665,5.1619,0.0,0.0,0.0,0.0,0.0,0.0,0.0,6.1788,6.2917,6.3858,6.4549,6.4625,6.4625,6.4625,6.401,6.3516,6.3441,6.1817,6.0479,5.9416,5.7138,0.0,0.0,0.0,0.0,0.0,0.0,0.0,0.0,0.0,0.0,0.0,0.0,0.0,0.0,0.0,0.0,0.0,0.0,0.0,0.0,0.0,0.0,0.0,0.0,0.0,0.0,0.0,0.0,0.0,0.0,0.0,0.0,0.0,0.0,0.0,0.0,0.0,0.0,0.0,0.0,0.0,0.0,0.0,0.0,0.0,0.0,0.0,0.0,0.0,0.0,4.8482,4.9294,5.0636,5.0788,5.084,5.0626,4.7052,4.6131,4.6979,4.5305,0.0,0.0,0.0,0.0,0.0,0.0,0.0,0.0,0.0,0.0,0.0,0.0,0.0,0.0,0.0,0.0,0.0,0.0,0.0,0.0,0.0,0.0,4.863,5.0784,5.1642,5.1235,4.8541,0.0,0.0,0.0,0.0,0.0,0.0,0.0,0.0,0.0,0.0,0.0,5.8685,6.1091,6.2854,6.2977,6.3006,6.3006,6.3006,6.2863,6.2483,6.1703,6.01,5.8163,0.0,0.0,0.0,0.0,0.0,0.0,0.0,0.0,0.0,0.0,0.0,0.0,0.0,0.0,0.0,0.0,0.0,0.0,0.0,0.0,0.0,0.0,0.0,0.0,0.0,0.0,0.0,0.0,0.0,0.0,0.0,0.0,0.0,0.0,0.0,0.0,0.0,0.0,0.0,0.0,0.0,0.0,0.0,0.0,0.0,0.0,0.0,0.0,0.0,0.0,0.0,0.0,0.0,0.0,0.0,0.0,0.0,0.0,4.4083,4.2395,0.0,0.0,0.0,0.0,0.0,0.0,0.0,0.0,0.0,0.0,0.0,0.0,0.0,0.0,0.0,0.0,0.0,0.0,0.0,0.0,0.0,0.0,0.0,0.0,0.0,0.0,0.0,0.0,0.0,0.0,0.0,0.0,0.0,0.0,0.0,0.0,0.0,0.0,0.0,0.0,5.651,5.94,6.1638,6.2512,6.2588,6.2588,6.2588,6.1761,6.0888,5.9986,5.7556,0.0,0.0,0.0,0.0,0.0,0.0,0.0,0.0,0.0,0.0,0.0,0.0,0.0,0.0,0.0,0.0,0.0,0.0,0.0,0.0,0.0,0.0,0.0,0.0,0.0,0.0,0.0,0.0,0.0,0.0,0.0,0.0,0.0,0.0,0.0,0.0,0.0,0.0,0.0,0.0,0.0,0.0,0.0,0.0,0.0,0.0,0.0,0.0,0.0,0.0,0.0,0.0,0.0,0.0,0.0,0.0,0.0,0.0,0.0,4.1109,3.9003,0.0,0.0,0.0,0.0,0.0,0.0,0.0,0.0,0.0,0.0,0.0,0.0,0.0,0.0,0.0,0.0,0.0,0.0,0.0,0.0,0.0,0.0,0.0,0.0,0.0,0.0,0.0,0.0,0.0,0.0,0.0,0.0,0.0,0.0,0.0,0.0,0.0,0.0,0.0,0.0,5.4418,5.7494,6.0042,6.1372,6.1524,6.1524,6.1524,6.028,5.8988,5.7773,5.5102,0.0,0.0,0.0,0.0,0.0,0.0,0.0,0.0,0.0,0.0,0.0,0.0,0.0,0.0,0.0,0.0,0.0,0.0,0.0,0.0,0.0,0.0,0.0,0.0,0.0,0.0,0.0,0.0,0.0,0.0,0.0,0.0,0.0,0.0,0.0,0.0,0.0,0.0,0.0,0.0,0.0,0.0,0.0,0.0,0.0,0.0,0.0,0.0,0.0,0.0,0.0,0.0,0.0,0.0,0.0,0.0,0.0,0.0,0.0,0.0,0.0,0.0,0.0,0.0,0.0,0.0,0.0,0.0,0.0,0.0,0.0,0.0,0.0,0.0,0.0,0.0,0.0,0.0,0.0,0.0,0.0,0.0,0.0,0.0,0.0,0.0,0.0,0.0,0.0,0.0,0.0,0.0,0.0,0.0,0.0,0.0,0.0,0.0,0.0,0.0,0.0,5.157,5.5169,5.7838,5.799,5.799,5.799,5.799,5.7876,5.6774,5.4418,0.0,0.0,0.0,0.0,0.0,0.0,0.0,0.0,0.0,0.0,0.0,0.0,0.0,0.0,0.0,0.0,0.0,0.0,0.0,0.0,0.0,0.0,0.0,0.0,0.0,0.0,0.0,0.0,0.0,0.0,0.0,0.0,0.0,0.0,0.0,0.0,0.0,0.0,0.0,0.0,0.0,0.0,0.0,0.0,0.0,0.0,0.0,0.0,0.0,0.0,0.0,0.0,0.0,0.0,0.0,0.0,0.0,0.0,0.0,0.0,0.0,0.0,0.0,0.0,0.0,0.0,0.0,0.0,0.0,0.0,0.0,0.0,0.0,0.0,0.0,0.0,0.0,0.0,0.0,0.0,0.0,0.0,0.0,0.0,0.0,0.0,0.0,0.0,0.0,0.0,0.0,0.0,0.0,0.0,0.0,0.0,0.0,0.0,0.0,0.0,0.0,0.0,5.0311,5.3714,5.6406,5.742,5.7534,5.7534,5.7534,5.6595,5.5086,5.28,0.0,0.0,0.0,0.0,0.0,0.0,0.0,0.0,0.0,0.0,0.0,0.0,0.0,0.0,0.0,0.0,0.0,0.0,0.0,0.0,0.0,0.0,0.0,0.0,0.0,0.0,0.0,0.0,0.0,0.0,0.0,0.0,0.0,0.0,0.0,0.0,0.0,0.0,0.0,0.0,0.0,0.0,0.0,0.0,0.0,0.0,0.0,0.0,0.0,0.0,0.0,0.0,0.0,0.0,0.0,0.0,0.0,0.0,0.0,0.0,0.0,0.0,0.0,0.0,0.0,0.0,0.0,0.0,0.0,0.0,0.0,0.0,0.0,0.0,0.0,0.0,0.0,0.0,0.0,0.0,0.0,0.0,0.0,0.0,0.0,0.0,0.0,0.0,0.0,0.0,0.0,0.0,0.0,0.0,0.0,0.0,0.0,0.0,0.0,0.0,0.0,0.0,4.9029,5.2185,5.4848,5.628,5.6204,5.6166,5.6432,5.4886,5.3014,5.091,0.0,0.0,0.0,0.0,0.0,0.0,0.0,0.0,0.0,0.0,0.0,0.0,0.0,0.0,0.0,0.0,0.0,0.0,0.0,0.0,0.0,0.0,0.0,0.0,0.0,0.0,0.0,0.0,0.0,0.0,0.0,0.0,0.0,0.0,0.0,0.0,0.0,0.0,0.0,0.0,0.0,0.0,0.0,0.0,0.0,0.0,0.0,0.0,0.0,0.0,0.0,0.0,0.0,0.0,0.0,0.0,0.0,0.0,0.0,0.0,0.0,0.0,0.0,0.0,0.0,0.0,0.0,0.0,0.0,0.0,0.0,0.0,0.0,0.0,0.0,0.0,0.0,0.0,0.0,0.0,0.0,0.0,0.0,0.0,0.0,0.0,0.0,0.0,0.0,0.0,0.0,0.0,0.0,0.0,0.0,0.0,0.0,0.0,0.0,0.0,0.0,0.0,4.7342,5.0433,5.2886,5.3772,5.3101,5.2924,5.381,5.2303,5.0441,0.0,0.0,0.0,0.0,0.0,0.0,0.0,0.0,0.0,0.0,0.0,0.0,0.0,0.0,0.0,0.0,0.0,0.0,0.0,0.0,0.0,0.0,0.0,0.0,0.0,0.0,0.0,0.0,0.0,0.0,0.0,0.0,0.0,0.0,0.0,0.0,0.0,0.0,0.0,0.0,0.0,0.0,0.0,0.0,0.0,0.0,0.0,0.0,0.0,0.0,0.0,0.0,0.0,0.0,0.0,0.0,0.0,0.0,0.0,0.0,0.0,0.0,0.0,0.0,0.0,0.0,0.0,0.0,0.0,0.0,0.0,0.0,0.0,0.0,0.0,0.0,0.0,0.0,0.0,0.0,0.0,0.0,0.0,0.0,0.0,0.0,0.0,0.0,0.0,0.0,0.0,0.0,0.0,0.0,0.0,0.0,0.0,0.0,0.0,0.0,0.0,0.0,0.0,4.5007,4.7165,4.9525,0.0,5.2633,5.2596,5.2886,5.1962,5.0283,4.7782,0.0,0.0,0.0,0.0,0.0,0.0,0.0,0.0,0.0,0.0,0.0,0.0,0.0,0.0,0.0,0.0,0.0,0.0,0.0,0.0,0.0,0.0,0.0,0.0,0.0,0.0,0.0,0.0,0.0,0.0,0.0,0.0,0.0,0.0,0.0,0.0,0.0,0.0,0.0,0.0,0.0,0.0,0.0,0.0,0.0,0.0,0.0,0.0,0.0,0.0,0.0,0.0,0.0,0.0,0.0,0.0,0.0,0.0,0.0,0.0,0.0,0.0,0.0,0.0,0.0,0.0,0.0,0.0,0.0,0.0,0.0,0.0,0.0,0.0,0.0,0.0,0.0,0.0,0.0,0.0,0.0,0.0,0.0,0.0,0.0,0.0,0.0,0.0,0.0,0.0,0.0,0.0,0.0,0.0,0.0,0.0,0.0,0.0,0.0,0.0,0.0,0.0,0.0,4.6389,4.8586,0.0,5.1454,5.1391,5.1718,5.053,4.8887,4.6747,0.0,0.0,0.0,0.0,0.0,0.0,0.0,0.0,0.0,0.0,0.0,0.0,0.0,0.0,0.0,0.0,0.0,0.0,0.0,0.0,0.0,0.0,0.0,0.0,0.0,0.0,0.0,0.0,0.0,0.0,0.0,0.0,0.0,0.0,0.0,0.0,0.0,0.0,0.0,0.0,0.0,0.0,0.0,0.0,0.0,0.0,0.0,0.0,0.0,0.0,0.0,0.0,0.0,0.0,0.0,0.0,0.0,0.0,0.0,0.0,0.0,0.0,0.0,0.0,0.0,0.0,0.0,0.0,0.0,0.0,0.0,0.0,0.0,0.0,0.0,0.0,0.0,0.0,0.0,0.0,0.0,0.0,0.0,0.0,0.0,0.0,0.0,0.0,0.0,0.0,0.0,0.0,0.0,0.0,0.0,0.0,0.0,0.0,0.0,0.0,0.0,0.0,0.0,4.7237,4.9205,5.0279,4.962,4.9447,5.0303,4.8485,4.6718,4.5298,4.3122,0.0,0.0,0.0,0.0,0.0,0.0,0.0,0.0,0.0,0.0,0.0,0.0,0.0,0.0,0.0,0.0,0.0,0.0,0.0,0.0,0.0,0.0,0.0,0.0,0.0,0.0,0.0,0.0,0.0,0.0,0.0,0.0,0.0,0.0,0.0,0.0,0.0,0.0,0.0,0.0,0.0,0.0,0.0,0.0,0.0,0.0,0.0,0.0,0.0,0.0,0.0,0.0,0.0,0.0,0.0,0.0,0.0,0.0,0.0,0.0,0.0,0.0,0.0,0.0,0.0,0.0,0.0,0.0,0.0,0.0,0.0,0.0,0.0,0.0,0.0,0.0,0.0,0.0,0.0,0.0,0.0,0.0,0.0,0.0,0.0,0.0,0.0,0.0,0.0,0.0,0.0,0.0,0.0,0.0,0.0,0.0,0.0,0.0,0.0,0.0,0.0,0.0,4.3876,4.6009,4.8642,4.8712,4.8675,4.8883,4.8432,4.7071,4.4573,4.3318,0.0,0.0,0.0,0.0,0.0,0.0,0.0,0.0,0.0,0.0,0.0,0.0,0.0,0.0,0.0,0.0,0.0,0.0,0.0,0.0,0.0,0.0,0.0,0.0,0.0,0.0,0.0,0.0,0.0,0.0,0.0,0.0,0.0,0.0,0.0,0.0,0.0,0.0,0.0,0.0,0.0,0.0,0.0,0.0,0.0,0.0,0.0,0.0,0.0,0.0,0.0,0.0,0.0,0.0,0.0,0.0,0.0,0.0,0.0,0.0,0.0,0.0,0.0,0.0,0.0,0.0,0.0,0.0,0.0,0.0,0.0,0.0,0.0,0.0,0.0,0.0,0.0,0.0,0.0,0.0,0.0,0.0,0.0,0.0,0.0,0.0,0.0,0.0,0.0,0.0,0.0,0.0,0.0,0.0,0.0,0.0,0.0,0.0,0.0,0.0,0.0,0.0,4.0724,4.3851,4.7655,4.8039,4.8039,4.8039,4.7497,4.6174,4.3905,4.2337,0.0,0.0,0.0,0.0,0.0,0.0,0.0,0.0,0.0,0.0,0.0,0.0,0.0,0.0,0.0,0.0,0.0,0.0,0.0,0.0,0.0,0.0,0.0,0.0,0.0,0.0,0.0,0.0,0.0,0.0,0.0,0.0,0.0,0.0,0.0,0.0,0.0,0.0,0.0,0.0,0.0,0.0,0.0,0.0,0.0,0.0,0.0,0.0,0.0,0.0,0.0,0.0,0.0,0.0,0.0,0.0,0.0,0.0,0.0,0.0,0.0,0.0,0.0,0.0,0.0,0.0,0.0,0.0,0.0,0.0,0.0,0.0,0.0,0.0,0.0,0.0,0.0,0.0,0.0,0.0,0.0,0.0,0.0,0.0,0.0,0.0,0.0,0.0,0.0,0.0,0.0,0.0,0.0,0.0,0.0,0.0,0.0,0.0,0.0,0.0,0.0,0.0,0.0,4.2151,4.6152,4.6913,4.7152,4.7152,4.615,4.4661,4.2735,0.0,0.0,0.0,0.0,0.0,0.0,0.0,0.0,0.0,0.0,0.0,0.0,0.0,0.0,0.0,0.0,0.0,0.0,0.0,0.0,0.0,0.0,0.0,0.0,0.0,0.0,0.0,0.0,0.0,0.0,0.0,0.0,0.0,0.0,0.0,0.0,0.0,0.0,0.0,0.0,0.0,0.0,0.0,0.0,0.0,0.0,0.0,0.0,0.0,0.0,0.0,0.0,0.0,0.0,0.0,0.0,0.0,0.0,0.0,0.0,0.0,0.0,0.0,0.0,0.0,0.0,0.0,0.0,0.0,0.0,0.0,0.0,0.0,0.0,0.0,0.0,0.0,0.0,0.0,0.0,0.0,0.0,0.0,0.0,0.0,0.0,0.0,0.0,0.0,0.0,0.0,0.0,0.0,0.0,0.0,0.0,0.0,0.0,0.0,0.0,0.0,0.0,0.0,0.0,4.0244,4.1719,4.3723,4.501,4.501,4.4799,4.3135,3.9458,0.0,0.0,0.0,0.0,0.0,0.0,0.0,0.0,0.0,0.0,0.0,0.0,0.0,0.0]}]]]